<?xml version="1.0" encoding="utf-8"?>
<gpx xmlns:xsi="http://www.w3.org/2001/XMLSchema-instance" xmlns:xsd="http://www.w3.org/2001/XMLSchema" version="1.1" creator="Shapelink.com" xmlns="http://www.topografix.com/GPX/1/1" xmlns:gpxtpx="http://www.garmin.com/xmlschemas/TrackPointExtension/v1">
  <metadata>
    <name>Ejecutar 6.44 km, 2019-08-23</name>
    <desc></desc>
    <author><name>Peter Littke</name></author> 
    <time>2019-08-23T08:11:45Z</time>
  </metadata>
  <trk>
    <name>Ejecutar 6.44 km, 2019-08-23</name>
    <trkseg>
      <trkpt lat="59.170938" lon="18.143158">
        <ele>70</ele>
        <time>2019-08-23T08:11:45Z</time>
      </trkpt>
      <trkpt lat="59.170925" lon="18.143116">
        <ele>71</ele>
        <time>2019-08-23T08:11:48Z</time>
      </trkpt>
      <trkpt lat="59.170919" lon="18.143079">
        <ele>71</ele>
        <time>2019-08-23T08:11:50Z</time>
      </trkpt>
      <trkpt lat="59.170908" lon="18.143051">
        <ele>69</ele>
        <time>2019-08-23T08:11:54Z</time>
      </trkpt>
      <trkpt lat="59.170878" lon="18.143079">
        <ele>69</ele>
        <time>2019-08-23T08:11:56Z</time>
      </trkpt>
      <trkpt lat="59.170855" lon="18.143073">
        <ele>70</ele>
        <time>2019-08-23T08:11:57Z</time>
      </trkpt>
      <trkpt lat="59.170831" lon="18.143063">
        <ele>70</ele>
        <time>2019-08-23T08:11:58Z</time>
      </trkpt>
      <trkpt lat="59.170806" lon="18.143055">
        <ele>70</ele>
        <time>2019-08-23T08:11:59Z</time>
      </trkpt>
      <trkpt lat="59.170781" lon="18.14304">
        <ele>69</ele>
        <time>2019-08-23T08:12:00Z</time>
      </trkpt>
      <trkpt lat="59.170752" lon="18.143028">
        <ele>69</ele>
        <time>2019-08-23T08:12:02Z</time>
      </trkpt>
      <trkpt lat="59.17072" lon="18.143014">
        <ele>67</ele>
        <time>2019-08-23T08:12:02Z</time>
      </trkpt>
      <trkpt lat="59.17069" lon="18.142998">
        <ele>66</ele>
        <time>2019-08-23T08:12:03Z</time>
      </trkpt>
      <trkpt lat="59.170655" lon="18.142981">
        <ele>66</ele>
        <time>2019-08-23T08:12:05Z</time>
      </trkpt>
      <trkpt lat="59.170618" lon="18.142967">
        <ele>66</ele>
        <time>2019-08-23T08:12:05Z</time>
      </trkpt>
      <trkpt lat="59.170586" lon="18.142948">
        <ele>68</ele>
        <time>2019-08-23T08:12:06Z</time>
      </trkpt>
      <trkpt lat="59.170559" lon="18.142932">
        <ele>68</ele>
        <time>2019-08-23T08:12:08Z</time>
      </trkpt>
      <trkpt lat="59.17054" lon="18.142932">
        <ele>68</ele>
        <time>2019-08-23T08:12:08Z</time>
      </trkpt>
      <trkpt lat="59.170512" lon="18.142975">
        <ele>69</ele>
        <time>2019-08-23T08:12:10Z</time>
      </trkpt>
      <trkpt lat="59.170498" lon="18.143013">
        <ele>69</ele>
        <time>2019-08-23T08:12:11Z</time>
      </trkpt>
      <trkpt lat="59.17048" lon="18.143057">
        <ele>69</ele>
        <time>2019-08-23T08:12:13Z</time>
      </trkpt>
      <trkpt lat="59.17047" lon="18.1431">
        <ele>70</ele>
        <time>2019-08-23T08:12:13Z</time>
      </trkpt>
      <trkpt lat="59.170448" lon="18.143136">
        <ele>70</ele>
        <time>2019-08-23T08:12:14Z</time>
      </trkpt>
      <trkpt lat="59.170429" lon="18.143176">
        <ele>71</ele>
        <time>2019-08-23T08:12:15Z</time>
      </trkpt>
      <trkpt lat="59.170412" lon="18.143216">
        <ele>71</ele>
        <time>2019-08-23T08:12:16Z</time>
      </trkpt>
      <trkpt lat="59.170391" lon="18.14326">
        <ele>71</ele>
        <time>2019-08-23T08:12:18Z</time>
      </trkpt>
      <trkpt lat="59.170371" lon="18.143296">
        <ele>71</ele>
        <time>2019-08-23T08:12:18Z</time>
      </trkpt>
      <trkpt lat="59.17035" lon="18.143341">
        <ele>71</ele>
        <time>2019-08-23T08:12:19Z</time>
      </trkpt>
      <trkpt lat="59.17033" lon="18.143384">
        <ele>71</ele>
        <time>2019-08-23T08:12:21Z</time>
      </trkpt>
      <trkpt lat="59.170306" lon="18.143423">
        <ele>71</ele>
        <time>2019-08-23T08:12:21Z</time>
      </trkpt>
      <trkpt lat="59.170281" lon="18.143462">
        <ele>71</ele>
        <time>2019-08-23T08:12:22Z</time>
      </trkpt>
      <trkpt lat="59.170256" lon="18.143506">
        <ele>71</ele>
        <time>2019-08-23T08:12:24Z</time>
      </trkpt>
      <trkpt lat="59.170233" lon="18.14354">
        <ele>71</ele>
        <time>2019-08-23T08:12:24Z</time>
      </trkpt>
      <trkpt lat="59.17021" lon="18.14357">
        <ele>71</ele>
        <time>2019-08-23T08:12:25Z</time>
      </trkpt>
      <trkpt lat="59.170183" lon="18.14359">
        <ele>70</ele>
        <time>2019-08-23T08:12:27Z</time>
      </trkpt>
      <trkpt lat="59.170152" lon="18.143607">
        <ele>70</ele>
        <time>2019-08-23T08:12:27Z</time>
      </trkpt>
      <trkpt lat="59.170121" lon="18.143619">
        <ele>70</ele>
        <time>2019-08-23T08:12:28Z</time>
      </trkpt>
      <trkpt lat="59.170089" lon="18.143621">
        <ele>70</ele>
        <time>2019-08-23T08:12:29Z</time>
      </trkpt>
      <trkpt lat="59.17006" lon="18.143616">
        <ele>70</ele>
        <time>2019-08-23T08:12:30Z</time>
      </trkpt>
      <trkpt lat="59.170028" lon="18.143619">
        <ele>70</ele>
        <time>2019-08-23T08:12:31Z</time>
      </trkpt>
      <trkpt lat="59.169998" lon="18.143619">
        <ele>70</ele>
        <time>2019-08-23T08:12:33Z</time>
      </trkpt>
      <trkpt lat="59.169965" lon="18.143616">
        <ele>70</ele>
        <time>2019-08-23T08:12:33Z</time>
      </trkpt>
      <trkpt lat="59.169934" lon="18.143621">
        <ele>70</ele>
        <time>2019-08-23T08:12:35Z</time>
      </trkpt>
      <trkpt lat="59.169904" lon="18.143625">
        <ele>70</ele>
        <time>2019-08-23T08:12:35Z</time>
      </trkpt>
      <trkpt lat="59.16987" lon="18.143621">
        <ele>70</ele>
        <time>2019-08-23T08:12:36Z</time>
      </trkpt>
      <trkpt lat="59.169838" lon="18.143627">
        <ele>70</ele>
        <time>2019-08-23T08:12:38Z</time>
      </trkpt>
      <trkpt lat="59.169806" lon="18.143639">
        <ele>70</ele>
        <time>2019-08-23T08:12:38Z</time>
      </trkpt>
      <trkpt lat="59.169767" lon="18.143641">
        <ele>70</ele>
        <time>2019-08-23T08:12:39Z</time>
      </trkpt>
      <trkpt lat="59.169738" lon="18.143638">
        <ele>70</ele>
        <time>2019-08-23T08:12:41Z</time>
      </trkpt>
      <trkpt lat="59.169704" lon="18.143637">
        <ele>70</ele>
        <time>2019-08-23T08:12:41Z</time>
      </trkpt>
      <trkpt lat="59.169672" lon="18.143647">
        <ele>0</ele>
        <time>2019-08-23T08:12:42Z</time>
      </trkpt>
      <trkpt lat="59.169647" lon="18.143655">
        <ele>70</ele>
        <time>2019-08-23T08:12:43Z</time>
      </trkpt>
      <trkpt lat="59.169622" lon="18.143656">
        <ele>69</ele>
        <time>2019-08-23T08:12:44Z</time>
      </trkpt>
      <trkpt lat="59.169597" lon="18.143654">
        <ele>70</ele>
        <time>2019-08-23T08:12:45Z</time>
      </trkpt>
      <trkpt lat="59.169568" lon="18.143656">
        <ele>70</ele>
        <time>2019-08-23T08:12:46Z</time>
      </trkpt>
      <trkpt lat="59.16954" lon="18.143655">
        <ele>70</ele>
        <time>2019-08-23T08:12:48Z</time>
      </trkpt>
      <trkpt lat="59.169512" lon="18.143644">
        <ele>70</ele>
        <time>2019-08-23T08:12:48Z</time>
      </trkpt>
      <trkpt lat="59.169486" lon="18.143645">
        <ele>69</ele>
        <time>2019-08-23T08:12:49Z</time>
      </trkpt>
      <trkpt lat="59.169459" lon="18.143638">
        <ele>69</ele>
        <time>2019-08-23T08:12:51Z</time>
      </trkpt>
      <trkpt lat="59.169433" lon="18.143628">
        <ele>69</ele>
        <time>2019-08-23T08:12:51Z</time>
      </trkpt>
      <trkpt lat="59.169407" lon="18.14363">
        <ele>69</ele>
        <time>2019-08-23T08:12:52Z</time>
      </trkpt>
      <trkpt lat="59.16938" lon="18.143621">
        <ele>69</ele>
        <time>2019-08-23T08:12:54Z</time>
      </trkpt>
      <trkpt lat="59.169351" lon="18.143613">
        <ele>69</ele>
        <time>2019-08-23T08:12:54Z</time>
      </trkpt>
      <trkpt lat="59.169322" lon="18.143609">
        <ele>69</ele>
        <time>2019-08-23T08:12:55Z</time>
      </trkpt>
      <trkpt lat="59.169292" lon="18.143613">
        <ele>69</ele>
        <time>2019-08-23T08:12:57Z</time>
      </trkpt>
      <trkpt lat="59.169263" lon="18.143616">
        <ele>69</ele>
        <time>2019-08-23T08:12:57Z</time>
      </trkpt>
      <trkpt lat="59.169242" lon="18.143627">
        <ele>69</ele>
        <time>2019-08-23T08:12:58Z</time>
      </trkpt>
      <trkpt lat="59.169229" lon="18.143668">
        <ele>69</ele>
        <time>2019-08-23T08:12:59Z</time>
      </trkpt>
      <trkpt lat="59.169215" lon="18.143707">
        <ele>69</ele>
        <time>2019-08-23T08:13:00Z</time>
      </trkpt>
      <trkpt lat="59.169199" lon="18.143747">
        <ele>0</ele>
        <time>2019-08-23T08:13:01Z</time>
      </trkpt>
      <trkpt lat="59.169185" lon="18.143791">
        <ele>69</ele>
        <time>2019-08-23T08:13:02Z</time>
      </trkpt>
      <trkpt lat="59.169174" lon="18.143841">
        <ele>70</ele>
        <time>2019-08-23T08:13:04Z</time>
      </trkpt>
      <trkpt lat="59.169165" lon="18.143902">
        <ele>70</ele>
        <time>2019-08-23T08:13:04Z</time>
      </trkpt>
      <trkpt lat="59.16916" lon="18.143965">
        <ele>70</ele>
        <time>2019-08-23T08:13:05Z</time>
      </trkpt>
      <trkpt lat="59.169154" lon="18.14402">
        <ele>70</ele>
        <time>2019-08-23T08:13:07Z</time>
      </trkpt>
      <trkpt lat="59.169149" lon="18.14408">
        <ele>69</ele>
        <time>2019-08-23T08:13:07Z</time>
      </trkpt>
      <trkpt lat="59.169148" lon="18.144135">
        <ele>69</ele>
        <time>2019-08-23T08:13:08Z</time>
      </trkpt>
      <trkpt lat="59.169148" lon="18.14419">
        <ele>69</ele>
        <time>2019-08-23T08:13:10Z</time>
      </trkpt>
      <trkpt lat="59.169144" lon="18.144245">
        <ele>69</ele>
        <time>2019-08-23T08:13:10Z</time>
      </trkpt>
      <trkpt lat="59.169142" lon="18.144299">
        <ele>70</ele>
        <time>2019-08-23T08:13:11Z</time>
      </trkpt>
      <trkpt lat="59.169135" lon="18.144351">
        <ele>70</ele>
        <time>2019-08-23T08:13:13Z</time>
      </trkpt>
      <trkpt lat="59.169131" lon="18.144402">
        <ele>70</ele>
        <time>2019-08-23T08:13:13Z</time>
      </trkpt>
      <trkpt lat="59.169124" lon="18.144453">
        <ele>70</ele>
        <time>2019-08-23T08:13:14Z</time>
      </trkpt>
      <trkpt lat="59.169123" lon="18.144507">
        <ele>70</ele>
        <time>2019-08-23T08:13:16Z</time>
      </trkpt>
      <trkpt lat="59.169122" lon="18.144556">
        <ele>70</ele>
        <time>2019-08-23T08:13:16Z</time>
      </trkpt>
      <trkpt lat="59.169124" lon="18.144605">
        <ele>70</ele>
        <time>2019-08-23T08:13:17Z</time>
      </trkpt>
      <trkpt lat="59.169131" lon="18.144655">
        <ele>70</ele>
        <time>2019-08-23T08:13:18Z</time>
      </trkpt>
      <trkpt lat="59.169132" lon="18.14471">
        <ele>70</ele>
        <time>2019-08-23T08:13:19Z</time>
      </trkpt>
      <trkpt lat="59.169132" lon="18.144761">
        <ele>0</ele>
        <time>2019-08-23T08:13:20Z</time>
      </trkpt>
      <trkpt lat="59.169135" lon="18.14481">
        <ele>70</ele>
        <time>2019-08-23T08:13:21Z</time>
      </trkpt>
      <trkpt lat="59.169136" lon="18.144859">
        <ele>70</ele>
        <time>2019-08-23T08:13:22Z</time>
      </trkpt>
      <trkpt lat="59.169134" lon="18.144918">
        <ele>70</ele>
        <time>2019-08-23T08:13:24Z</time>
      </trkpt>
      <trkpt lat="59.169133" lon="18.144974">
        <ele>70</ele>
        <time>2019-08-23T08:13:24Z</time>
      </trkpt>
      <trkpt lat="59.16913" lon="18.145033">
        <ele>70</ele>
        <time>2019-08-23T08:13:25Z</time>
      </trkpt>
      <trkpt lat="59.169127" lon="18.145092">
        <ele>70</ele>
        <time>2019-08-23T08:13:27Z</time>
      </trkpt>
      <trkpt lat="59.169127" lon="18.145146">
        <ele>70</ele>
        <time>2019-08-23T08:13:27Z</time>
      </trkpt>
      <trkpt lat="59.169123" lon="18.145204">
        <ele>70</ele>
        <time>2019-08-23T08:13:28Z</time>
      </trkpt>
      <trkpt lat="59.16912" lon="18.14526">
        <ele>70</ele>
        <time>2019-08-23T08:13:30Z</time>
      </trkpt>
      <trkpt lat="59.169117" lon="18.145311">
        <ele>70</ele>
        <time>2019-08-23T08:13:30Z</time>
      </trkpt>
      <trkpt lat="59.169114" lon="18.145365">
        <ele>70</ele>
        <time>2019-08-23T08:13:31Z</time>
      </trkpt>
      <trkpt lat="59.169106" lon="18.145416">
        <ele>70</ele>
        <time>2019-08-23T08:13:32Z</time>
      </trkpt>
      <trkpt lat="59.169093" lon="18.145463">
        <ele>70</ele>
        <time>2019-08-23T08:13:33Z</time>
      </trkpt>
      <trkpt lat="59.169082" lon="18.145506">
        <ele>70</ele>
        <time>2019-08-23T08:13:34Z</time>
      </trkpt>
      <trkpt lat="59.169072" lon="18.14555">
        <ele>70</ele>
        <time>2019-08-23T08:13:35Z</time>
      </trkpt>
      <trkpt lat="59.169055" lon="18.145594">
        <ele>70</ele>
        <time>2019-08-23T08:13:36Z</time>
      </trkpt>
      <trkpt lat="59.169036" lon="18.145623">
        <ele>70</ele>
        <time>2019-08-23T08:13:38Z</time>
      </trkpt>
      <trkpt lat="59.169012" lon="18.145653">
        <ele>70</ele>
        <time>2019-08-23T08:13:39Z</time>
      </trkpt>
      <trkpt lat="59.168985" lon="18.145689">
        <ele>70</ele>
        <time>2019-08-23T08:13:40Z</time>
      </trkpt>
      <trkpt lat="59.168964" lon="18.145715">
        <ele>69</ele>
        <time>2019-08-23T08:13:40Z</time>
      </trkpt>
      <trkpt lat="59.168937" lon="18.14574">
        <ele>69</ele>
        <time>2019-08-23T08:13:42Z</time>
      </trkpt>
      <trkpt lat="59.168904" lon="18.145758">
        <ele>69</ele>
        <time>2019-08-23T08:13:42Z</time>
      </trkpt>
      <trkpt lat="59.168871" lon="18.145771">
        <ele>69</ele>
        <time>2019-08-23T08:13:43Z</time>
      </trkpt>
      <trkpt lat="59.168836" lon="18.145788">
        <ele>69</ele>
        <time>2019-08-23T08:13:45Z</time>
      </trkpt>
      <trkpt lat="59.168802" lon="18.145808">
        <ele>69</ele>
        <time>2019-08-23T08:13:45Z</time>
      </trkpt>
      <trkpt lat="59.168771" lon="18.145821">
        <ele>69</ele>
        <time>2019-08-23T08:13:46Z</time>
      </trkpt>
      <trkpt lat="59.168738" lon="18.14583">
        <ele>69</ele>
        <time>2019-08-23T08:13:48Z</time>
      </trkpt>
      <trkpt lat="59.168705" lon="18.145842">
        <ele>69</ele>
        <time>2019-08-23T08:13:48Z</time>
      </trkpt>
      <trkpt lat="59.168671" lon="18.145853">
        <ele>69</ele>
        <time>2019-08-23T08:13:49Z</time>
      </trkpt>
      <trkpt lat="59.168641" lon="18.145862">
        <ele>69</ele>
        <time>2019-08-23T08:13:50Z</time>
      </trkpt>
      <trkpt lat="59.168611" lon="18.145864">
        <ele>69</ele>
        <time>2019-08-23T08:13:51Z</time>
      </trkpt>
      <trkpt lat="59.168582" lon="18.145861">
        <ele>69</ele>
        <time>2019-08-23T08:13:53Z</time>
      </trkpt>
      <trkpt lat="59.16855" lon="18.145859">
        <ele>69</ele>
        <time>2019-08-23T08:13:53Z</time>
      </trkpt>
      <trkpt lat="59.168521" lon="18.14585">
        <ele>70</ele>
        <time>2019-08-23T08:13:54Z</time>
      </trkpt>
      <trkpt lat="59.168494" lon="18.145844">
        <ele>70</ele>
        <time>2019-08-23T08:13:56Z</time>
      </trkpt>
      <trkpt lat="59.168463" lon="18.145833">
        <ele>70</ele>
        <time>2019-08-23T08:13:56Z</time>
      </trkpt>
      <trkpt lat="59.168437" lon="18.145822">
        <ele>70</ele>
        <time>2019-08-23T08:13:57Z</time>
      </trkpt>
      <trkpt lat="59.168412" lon="18.145817">
        <ele>70</ele>
        <time>2019-08-23T08:13:59Z</time>
      </trkpt>
      <trkpt lat="59.168386" lon="18.145814">
        <ele>71</ele>
        <time>2019-08-23T08:13:59Z</time>
      </trkpt>
      <trkpt lat="59.168354" lon="18.145824">
        <ele>71</ele>
        <time>2019-08-23T08:14:00Z</time>
      </trkpt>
      <trkpt lat="59.168324" lon="18.145833">
        <ele>71</ele>
        <time>2019-08-23T08:14:01Z</time>
      </trkpt>
      <trkpt lat="59.168296" lon="18.145844">
        <ele>71</ele>
        <time>2019-08-23T08:14:02Z</time>
      </trkpt>
      <trkpt lat="59.168275" lon="18.145873">
        <ele>71</ele>
        <time>2019-08-23T08:14:04Z</time>
      </trkpt>
      <trkpt lat="59.168258" lon="18.145892">
        <ele>71</ele>
        <time>2019-08-23T08:14:04Z</time>
      </trkpt>
      <trkpt lat="59.168239" lon="18.145916">
        <ele>72</ele>
        <time>2019-08-23T08:14:05Z</time>
      </trkpt>
      <trkpt lat="59.168219" lon="18.145921">
        <ele>72</ele>
        <time>2019-08-23T08:14:07Z</time>
      </trkpt>
      <trkpt lat="59.168202" lon="18.145943">
        <ele>72</ele>
        <time>2019-08-23T08:14:07Z</time>
      </trkpt>
      <trkpt lat="59.168185" lon="18.145963">
        <ele>72</ele>
        <time>2019-08-23T08:14:08Z</time>
      </trkpt>
      <trkpt lat="59.168164" lon="18.145978">
        <ele>72</ele>
        <time>2019-08-23T08:14:10Z</time>
      </trkpt>
      <trkpt lat="59.168134" lon="18.146003">
        <ele>72</ele>
        <time>2019-08-23T08:14:10Z</time>
      </trkpt>
      <trkpt lat="59.168109" lon="18.146018">
        <ele>72</ele>
        <time>2019-08-23T08:14:11Z</time>
      </trkpt>
      <trkpt lat="59.168083" lon="18.146024">
        <ele>72</ele>
        <time>2019-08-23T08:14:13Z</time>
      </trkpt>
      <trkpt lat="59.168054" lon="18.146021">
        <ele>72</ele>
        <time>2019-08-23T08:14:13Z</time>
      </trkpt>
      <trkpt lat="59.168022" lon="18.146015">
        <ele>71</ele>
        <time>2019-08-23T08:14:14Z</time>
      </trkpt>
      <trkpt lat="59.167988" lon="18.146012">
        <ele>71</ele>
        <time>2019-08-23T08:14:16Z</time>
      </trkpt>
      <trkpt lat="59.167961" lon="18.146014">
        <ele>71</ele>
        <time>2019-08-23T08:14:16Z</time>
      </trkpt>
      <trkpt lat="59.167936" lon="18.146035">
        <ele>70</ele>
        <time>2019-08-23T08:14:18Z</time>
      </trkpt>
      <trkpt lat="59.167921" lon="18.146072">
        <ele>70</ele>
        <time>2019-08-23T08:14:18Z</time>
      </trkpt>
      <trkpt lat="59.167913" lon="18.146121">
        <ele>70</ele>
        <time>2019-08-23T08:14:20Z</time>
      </trkpt>
      <trkpt lat="59.167905" lon="18.14618">
        <ele>70</ele>
        <time>2019-08-23T08:14:20Z</time>
      </trkpt>
      <trkpt lat="59.167901" lon="18.146231">
        <ele>70</ele>
        <time>2019-08-23T08:14:21Z</time>
      </trkpt>
      <trkpt lat="59.167892" lon="18.146276">
        <ele>70</ele>
        <time>2019-08-23T08:14:23Z</time>
      </trkpt>
      <trkpt lat="59.167886" lon="18.146327">
        <ele>70</ele>
        <time>2019-08-23T08:14:23Z</time>
      </trkpt>
      <trkpt lat="59.167882" lon="18.146379">
        <ele>70</ele>
        <time>2019-08-23T08:14:24Z</time>
      </trkpt>
      <trkpt lat="59.167876" lon="18.146432">
        <ele>70</ele>
        <time>2019-08-23T08:14:25Z</time>
      </trkpt>
      <trkpt lat="59.167872" lon="18.146487">
        <ele>70</ele>
        <time>2019-08-23T08:14:26Z</time>
      </trkpt>
      <trkpt lat="59.167871" lon="18.146538">
        <ele>70</ele>
        <time>2019-08-23T08:14:27Z</time>
      </trkpt>
      <trkpt lat="59.167876" lon="18.146592">
        <ele>70</ele>
        <time>2019-08-23T08:14:28Z</time>
      </trkpt>
      <trkpt lat="59.167879" lon="18.146645">
        <ele>70</ele>
        <time>2019-08-23T08:14:29Z</time>
      </trkpt>
      <trkpt lat="59.167881" lon="18.146698">
        <ele>70</ele>
        <time>2019-08-23T08:14:31Z</time>
      </trkpt>
      <trkpt lat="59.167881" lon="18.146748">
        <ele>70</ele>
        <time>2019-08-23T08:14:31Z</time>
      </trkpt>
      <trkpt lat="59.167876" lon="18.146802">
        <ele>69</ele>
        <time>2019-08-23T08:14:32Z</time>
      </trkpt>
      <trkpt lat="59.167873" lon="18.146859">
        <ele>69</ele>
        <time>2019-08-23T08:14:33Z</time>
      </trkpt>
      <trkpt lat="59.167866" lon="18.14691">
        <ele>69</ele>
        <time>2019-08-23T08:14:34Z</time>
      </trkpt>
      <trkpt lat="59.167859" lon="18.146964">
        <ele>69</ele>
        <time>2019-08-23T08:14:35Z</time>
      </trkpt>
      <trkpt lat="59.167852" lon="18.147014">
        <ele>69</ele>
        <time>2019-08-23T08:14:37Z</time>
      </trkpt>
      <trkpt lat="59.167849" lon="18.147069">
        <ele>69</ele>
        <time>2019-08-23T08:14:37Z</time>
      </trkpt>
      <trkpt lat="59.167851" lon="18.147129">
        <ele>69</ele>
        <time>2019-08-23T08:14:39Z</time>
      </trkpt>
      <trkpt lat="59.167853" lon="18.14719">
        <ele>69</ele>
        <time>2019-08-23T08:14:39Z</time>
      </trkpt>
      <trkpt lat="59.167853" lon="18.147253">
        <ele>69</ele>
        <time>2019-08-23T08:14:40Z</time>
      </trkpt>
      <trkpt lat="59.167848" lon="18.14731">
        <ele>69</ele>
        <time>2019-08-23T08:14:42Z</time>
      </trkpt>
      <trkpt lat="59.167842" lon="18.147364">
        <ele>68</ele>
        <time>2019-08-23T08:14:42Z</time>
      </trkpt>
      <trkpt lat="59.167839" lon="18.147418">
        <ele>68</ele>
        <time>2019-08-23T08:14:43Z</time>
      </trkpt>
      <trkpt lat="59.167834" lon="18.147472">
        <ele>68</ele>
        <time>2019-08-23T08:14:45Z</time>
      </trkpt>
      <trkpt lat="59.167817" lon="18.147526">
        <ele>68</ele>
        <time>2019-08-23T08:14:45Z</time>
      </trkpt>
      <trkpt lat="59.167794" lon="18.147569">
        <ele>68</ele>
        <time>2019-08-23T08:14:46Z</time>
      </trkpt>
      <trkpt lat="59.167771" lon="18.14759">
        <ele>68</ele>
        <time>2019-08-23T08:14:47Z</time>
      </trkpt>
      <trkpt lat="59.167745" lon="18.147596">
        <ele>67</ele>
        <time>2019-08-23T08:14:49Z</time>
      </trkpt>
      <trkpt lat="59.167719" lon="18.147601">
        <ele>67</ele>
        <time>2019-08-23T08:14:49Z</time>
      </trkpt>
      <trkpt lat="59.167691" lon="18.147601">
        <ele>67</ele>
        <time>2019-08-23T08:14:50Z</time>
      </trkpt>
      <trkpt lat="59.167664" lon="18.147608">
        <ele>67</ele>
        <time>2019-08-23T08:14:51Z</time>
      </trkpt>
      <trkpt lat="59.16763" lon="18.147609">
        <ele>66</ele>
        <time>2019-08-23T08:14:52Z</time>
      </trkpt>
      <trkpt lat="59.167602" lon="18.147605">
        <ele>66</ele>
        <time>2019-08-23T08:14:53Z</time>
      </trkpt>
      <trkpt lat="59.167566" lon="18.14761">
        <ele>66</ele>
        <time>2019-08-23T08:14:54Z</time>
      </trkpt>
      <trkpt lat="59.167535" lon="18.147607">
        <ele>66</ele>
        <time>2019-08-23T08:14:56Z</time>
      </trkpt>
      <trkpt lat="59.167504" lon="18.147606">
        <ele>65</ele>
        <time>2019-08-23T08:14:56Z</time>
      </trkpt>
      <trkpt lat="59.167471" lon="18.147605">
        <ele>65</ele>
        <time>2019-08-23T08:14:58Z</time>
      </trkpt>
      <trkpt lat="59.16744" lon="18.147598">
        <ele>65</ele>
        <time>2019-08-23T08:14:58Z</time>
      </trkpt>
      <trkpt lat="59.167411" lon="18.14759">
        <ele>65</ele>
        <time>2019-08-23T08:14:59Z</time>
      </trkpt>
      <trkpt lat="59.16738" lon="18.147589">
        <ele>64</ele>
        <time>2019-08-23T08:15:01Z</time>
      </trkpt>
      <trkpt lat="59.16735" lon="18.147598">
        <ele>64</ele>
        <time>2019-08-23T08:15:01Z</time>
      </trkpt>
      <trkpt lat="59.167324" lon="18.147601">
        <ele>64</ele>
        <time>2019-08-23T08:15:02Z</time>
      </trkpt>
      <trkpt lat="59.167293" lon="18.147625">
        <ele>64</ele>
        <time>2019-08-23T08:15:03Z</time>
      </trkpt>
      <trkpt lat="59.167262" lon="18.147648">
        <ele>64</ele>
        <time>2019-08-23T08:15:05Z</time>
      </trkpt>
      <trkpt lat="59.167234" lon="18.147651">
        <ele>64</ele>
        <time>2019-08-23T08:15:05Z</time>
      </trkpt>
      <trkpt lat="59.167204" lon="18.147671">
        <ele>64</ele>
        <time>2019-08-23T08:15:06Z</time>
      </trkpt>
      <trkpt lat="59.167171" lon="18.14769">
        <ele>64</ele>
        <time>2019-08-23T08:15:08Z</time>
      </trkpt>
      <trkpt lat="59.167137" lon="18.147703">
        <ele>64</ele>
        <time>2019-08-23T08:15:08Z</time>
      </trkpt>
      <trkpt lat="59.167109" lon="18.147706">
        <ele>64</ele>
        <time>2019-08-23T08:15:09Z</time>
      </trkpt>
      <trkpt lat="59.167076" lon="18.147729">
        <ele>64</ele>
        <time>2019-08-23T08:15:11Z</time>
      </trkpt>
      <trkpt lat="59.167047" lon="18.147737">
        <ele>64</ele>
        <time>2019-08-23T08:15:11Z</time>
      </trkpt>
      <trkpt lat="59.16702" lon="18.147763">
        <ele>65</ele>
        <time>2019-08-23T08:15:13Z</time>
      </trkpt>
      <trkpt lat="59.16699" lon="18.147791">
        <ele>65</ele>
        <time>2019-08-23T08:15:13Z</time>
      </trkpt>
      <trkpt lat="59.166958" lon="18.147814">
        <ele>65</ele>
        <time>2019-08-23T08:15:15Z</time>
      </trkpt>
      <trkpt lat="59.166934" lon="18.147831">
        <ele>65</ele>
        <time>2019-08-23T08:15:15Z</time>
      </trkpt>
      <trkpt lat="59.16691" lon="18.147848">
        <ele>65</ele>
        <time>2019-08-23T08:15:17Z</time>
      </trkpt>
      <trkpt lat="59.166849" lon="18.147878">
        <ele>65</ele>
        <time>2019-08-23T08:15:18Z</time>
      </trkpt>
      <trkpt lat="59.166818" lon="18.147894">
        <ele>65</ele>
        <time>2019-08-23T08:15:20Z</time>
      </trkpt>
      <trkpt lat="59.166788" lon="18.14791">
        <ele>65</ele>
        <time>2019-08-23T08:15:20Z</time>
      </trkpt>
      <trkpt lat="59.166763" lon="18.147928">
        <ele>65</ele>
        <time>2019-08-23T08:15:21Z</time>
      </trkpt>
      <trkpt lat="59.16674" lon="18.147925">
        <ele>65</ele>
        <time>2019-08-23T08:15:23Z</time>
      </trkpt>
      <trkpt lat="59.166714" lon="18.147923">
        <ele>65</ele>
        <time>2019-08-23T08:15:23Z</time>
      </trkpt>
      <trkpt lat="59.166695" lon="18.147943">
        <ele>65</ele>
        <time>2019-08-23T08:15:24Z</time>
      </trkpt>
      <trkpt lat="59.166668" lon="18.14796">
        <ele>65</ele>
        <time>2019-08-23T08:15:25Z</time>
      </trkpt>
      <trkpt lat="59.16665" lon="18.148001">
        <ele>65</ele>
        <time>2019-08-23T08:15:26Z</time>
      </trkpt>
      <trkpt lat="59.166624" lon="18.148023">
        <ele>65</ele>
        <time>2019-08-23T08:15:27Z</time>
      </trkpt>
      <trkpt lat="59.166592" lon="18.148035">
        <ele>65</ele>
        <time>2019-08-23T08:15:28Z</time>
      </trkpt>
      <trkpt lat="59.166558" lon="18.148046">
        <ele>65</ele>
        <time>2019-08-23T08:15:29Z</time>
      </trkpt>
      <trkpt lat="59.166527" lon="18.14806">
        <ele>65</ele>
        <time>2019-08-23T08:15:30Z</time>
      </trkpt>
      <trkpt lat="59.166495" lon="18.148078">
        <ele>65</ele>
        <time>2019-08-23T08:15:31Z</time>
      </trkpt>
      <trkpt lat="59.166467" lon="18.14809">
        <ele>65</ele>
        <time>2019-08-23T08:15:32Z</time>
      </trkpt>
      <trkpt lat="59.16644" lon="18.148106">
        <ele>65</ele>
        <time>2019-08-23T08:15:34Z</time>
      </trkpt>
      <trkpt lat="59.166415" lon="18.148126">
        <ele>65</ele>
        <time>2019-08-23T08:15:34Z</time>
      </trkpt>
      <trkpt lat="59.16639" lon="18.148149">
        <ele>64</ele>
        <time>2019-08-23T08:15:36Z</time>
      </trkpt>
      <trkpt lat="59.16636" lon="18.148174">
        <ele>64</ele>
        <time>2019-08-23T08:15:36Z</time>
      </trkpt>
      <trkpt lat="59.166333" lon="18.148198">
        <ele>64</ele>
        <time>2019-08-23T08:15:37Z</time>
      </trkpt>
      <trkpt lat="59.166307" lon="18.148225">
        <ele>64</ele>
        <time>2019-08-23T08:15:39Z</time>
      </trkpt>
      <trkpt lat="59.166285" lon="18.148256">
        <ele>64</ele>
        <time>2019-08-23T08:15:39Z</time>
      </trkpt>
      <trkpt lat="59.166261" lon="18.148286">
        <ele>64</ele>
        <time>2019-08-23T08:15:40Z</time>
      </trkpt>
      <trkpt lat="59.166236" lon="18.148319">
        <ele>64</ele>
        <time>2019-08-23T08:15:41Z</time>
      </trkpt>
      <trkpt lat="59.166214" lon="18.14836">
        <ele>64</ele>
        <time>2019-08-23T08:15:42Z</time>
      </trkpt>
      <trkpt lat="59.166191" lon="18.148402">
        <ele>63</ele>
        <time>2019-08-23T08:15:44Z</time>
      </trkpt>
      <trkpt lat="59.166166" lon="18.148444">
        <ele>63</ele>
        <time>2019-08-23T08:15:44Z</time>
      </trkpt>
      <trkpt lat="59.16614" lon="18.148486">
        <ele>63</ele>
        <time>2019-08-23T08:15:45Z</time>
      </trkpt>
      <trkpt lat="59.166115" lon="18.148531">
        <ele>63</ele>
        <time>2019-08-23T08:15:47Z</time>
      </trkpt>
      <trkpt lat="59.16609" lon="18.148575">
        <ele>63</ele>
        <time>2019-08-23T08:15:47Z</time>
      </trkpt>
      <trkpt lat="59.166068" lon="18.148611">
        <ele>63</ele>
        <time>2019-08-23T08:15:48Z</time>
      </trkpt>
      <trkpt lat="59.166047" lon="18.148651">
        <ele>63</ele>
        <time>2019-08-23T08:15:49Z</time>
      </trkpt>
      <trkpt lat="59.166029" lon="18.148696">
        <ele>63</ele>
        <time>2019-08-23T08:15:50Z</time>
      </trkpt>
      <trkpt lat="59.166018" lon="18.148736">
        <ele>63</ele>
        <time>2019-08-23T08:15:51Z</time>
      </trkpt>
      <trkpt lat="59.16601" lon="18.148784">
        <ele>63</ele>
        <time>2019-08-23T08:15:53Z</time>
      </trkpt>
      <trkpt lat="59.166001" lon="18.148825">
        <ele>63</ele>
        <time>2019-08-23T08:15:53Z</time>
      </trkpt>
      <trkpt lat="59.165991" lon="18.148878">
        <ele>63</ele>
        <time>2019-08-23T08:15:55Z</time>
      </trkpt>
      <trkpt lat="59.165981" lon="18.148931">
        <ele>63</ele>
        <time>2019-08-23T08:15:55Z</time>
      </trkpt>
      <trkpt lat="59.165973" lon="18.148987">
        <ele>63</ele>
        <time>2019-08-23T08:15:56Z</time>
      </trkpt>
      <trkpt lat="59.165962" lon="18.149036">
        <ele>63</ele>
        <time>2019-08-23T08:15:58Z</time>
      </trkpt>
      <trkpt lat="59.165956" lon="18.149083">
        <ele>63</ele>
        <time>2019-08-23T08:15:58Z</time>
      </trkpt>
      <trkpt lat="59.165947" lon="18.149132">
        <ele>63</ele>
        <time>2019-08-23T08:15:59Z</time>
      </trkpt>
      <trkpt lat="59.165938" lon="18.149186">
        <ele>63</ele>
        <time>2019-08-23T08:16:00Z</time>
      </trkpt>
      <trkpt lat="59.165926" lon="18.149253">
        <ele>63</ele>
        <time>2019-08-23T08:16:01Z</time>
      </trkpt>
      <trkpt lat="59.165917" lon="18.149316">
        <ele>63</ele>
        <time>2019-08-23T08:16:02Z</time>
      </trkpt>
      <trkpt lat="59.165914" lon="18.149383">
        <ele>63</ele>
        <time>2019-08-23T08:16:03Z</time>
      </trkpt>
      <trkpt lat="59.165907" lon="18.149447">
        <ele>63</ele>
        <time>2019-08-23T08:16:04Z</time>
      </trkpt>
      <trkpt lat="59.165899" lon="18.149511">
        <ele>63</ele>
        <time>2019-08-23T08:16:06Z</time>
      </trkpt>
      <trkpt lat="59.165892" lon="18.149575">
        <ele>63</ele>
        <time>2019-08-23T08:16:06Z</time>
      </trkpt>
      <trkpt lat="59.165882" lon="18.149633">
        <ele>63</ele>
        <time>2019-08-23T08:16:07Z</time>
      </trkpt>
      <trkpt lat="59.165872" lon="18.149691">
        <ele>63</ele>
        <time>2019-08-23T08:16:08Z</time>
      </trkpt>
      <trkpt lat="59.165867" lon="18.149749">
        <ele>63</ele>
        <time>2019-08-23T08:16:09Z</time>
      </trkpt>
      <trkpt lat="59.165861" lon="18.149811">
        <ele>64</ele>
        <time>2019-08-23T08:16:11Z</time>
      </trkpt>
      <trkpt lat="59.165855" lon="18.149867">
        <ele>64</ele>
        <time>2019-08-23T08:16:12Z</time>
      </trkpt>
      <trkpt lat="59.165846" lon="18.149923">
        <ele>64</ele>
        <time>2019-08-23T08:16:12Z</time>
      </trkpt>
      <trkpt lat="59.165839" lon="18.149973">
        <ele>64</ele>
        <time>2019-08-23T08:16:13Z</time>
      </trkpt>
      <trkpt lat="59.165828" lon="18.150027">
        <ele>64</ele>
        <time>2019-08-23T08:16:14Z</time>
      </trkpt>
      <trkpt lat="59.16582" lon="18.150089">
        <ele>64</ele>
        <time>2019-08-23T08:16:15Z</time>
      </trkpt>
      <trkpt lat="59.165807" lon="18.150144">
        <ele>64</ele>
        <time>2019-08-23T08:16:16Z</time>
      </trkpt>
      <trkpt lat="59.165789" lon="18.150202">
        <ele>64</ele>
        <time>2019-08-23T08:16:17Z</time>
      </trkpt>
      <trkpt lat="59.165778" lon="18.150258">
        <ele>64</ele>
        <time>2019-08-23T08:16:19Z</time>
      </trkpt>
      <trkpt lat="59.165766" lon="18.150317">
        <ele>64</ele>
        <time>2019-08-23T08:16:19Z</time>
      </trkpt>
      <trkpt lat="59.165756" lon="18.150365">
        <ele>64</ele>
        <time>2019-08-23T08:16:20Z</time>
      </trkpt>
      <trkpt lat="59.165744" lon="18.150413">
        <ele>64</ele>
        <time>2019-08-23T08:16:22Z</time>
      </trkpt>
      <trkpt lat="59.165731" lon="18.15046">
        <ele>64</ele>
        <time>2019-08-23T08:16:22Z</time>
      </trkpt>
      <trkpt lat="59.165719" lon="18.150507">
        <ele>64</ele>
        <time>2019-08-23T08:16:23Z</time>
      </trkpt>
      <trkpt lat="59.165707" lon="18.150561">
        <ele>64</ele>
        <time>2019-08-23T08:16:24Z</time>
      </trkpt>
      <trkpt lat="59.165695" lon="18.150608">
        <ele>64</ele>
        <time>2019-08-23T08:16:25Z</time>
      </trkpt>
      <trkpt lat="59.16568" lon="18.150657">
        <ele>64</ele>
        <time>2019-08-23T08:16:26Z</time>
      </trkpt>
      <trkpt lat="59.165665" lon="18.150707">
        <ele>64</ele>
        <time>2019-08-23T08:16:27Z</time>
      </trkpt>
      <trkpt lat="59.165655" lon="18.150759">
        <ele>65</ele>
        <time>2019-08-23T08:16:29Z</time>
      </trkpt>
      <trkpt lat="59.165642" lon="18.150817">
        <ele>65</ele>
        <time>2019-08-23T08:16:29Z</time>
      </trkpt>
      <trkpt lat="59.165626" lon="18.150874">
        <ele>65</ele>
        <time>2019-08-23T08:16:31Z</time>
      </trkpt>
      <trkpt lat="59.165614" lon="18.150929">
        <ele>65</ele>
        <time>2019-08-23T08:16:31Z</time>
      </trkpt>
      <trkpt lat="59.165598" lon="18.150984">
        <ele>65</ele>
        <time>2019-08-23T08:16:32Z</time>
      </trkpt>
      <trkpt lat="59.16559" lon="18.15103">
        <ele>65</ele>
        <time>2019-08-23T08:16:33Z</time>
      </trkpt>
      <trkpt lat="59.165583" lon="18.151086">
        <ele>65</ele>
        <time>2019-08-23T08:16:34Z</time>
      </trkpt>
      <trkpt lat="59.165587" lon="18.151138">
        <ele>66</ele>
        <time>2019-08-23T08:16:35Z</time>
      </trkpt>
      <trkpt lat="59.16559" lon="18.151192">
        <ele>66</ele>
        <time>2019-08-23T08:16:36Z</time>
      </trkpt>
      <trkpt lat="59.165596" lon="18.151253">
        <ele>66</ele>
        <time>2019-08-23T08:16:38Z</time>
      </trkpt>
      <trkpt lat="59.165596" lon="18.151315">
        <ele>66</ele>
        <time>2019-08-23T08:16:38Z</time>
      </trkpt>
      <trkpt lat="59.165592" lon="18.151375">
        <ele>66</ele>
        <time>2019-08-23T08:16:39Z</time>
      </trkpt>
      <trkpt lat="59.165588" lon="18.151433">
        <ele>66</ele>
        <time>2019-08-23T08:16:41Z</time>
      </trkpt>
      <trkpt lat="59.165581" lon="18.151484">
        <ele>67</ele>
        <time>2019-08-23T08:16:41Z</time>
      </trkpt>
      <trkpt lat="59.165581" lon="18.151548">
        <ele>67</ele>
        <time>2019-08-23T08:16:42Z</time>
      </trkpt>
      <trkpt lat="59.165576" lon="18.151611">
        <ele>67</ele>
        <time>2019-08-23T08:16:43Z</time>
      </trkpt>
      <trkpt lat="59.165573" lon="18.151669">
        <ele>67</ele>
        <time>2019-08-23T08:16:45Z</time>
      </trkpt>
      <trkpt lat="59.165566" lon="18.151721">
        <ele>67</ele>
        <time>2019-08-23T08:16:45Z</time>
      </trkpt>
      <trkpt lat="59.165557" lon="18.151774">
        <ele>67</ele>
        <time>2019-08-23T08:16:46Z</time>
      </trkpt>
      <trkpt lat="59.165545" lon="18.151827">
        <ele>67</ele>
        <time>2019-08-23T08:16:47Z</time>
      </trkpt>
      <trkpt lat="59.165535" lon="18.151881">
        <ele>67</ele>
        <time>2019-08-23T08:16:48Z</time>
      </trkpt>
      <trkpt lat="59.165527" lon="18.151936">
        <ele>67</ele>
        <time>2019-08-23T08:16:50Z</time>
      </trkpt>
      <trkpt lat="59.165518" lon="18.151994">
        <ele>67</ele>
        <time>2019-08-23T08:16:50Z</time>
      </trkpt>
      <trkpt lat="59.165512" lon="18.152049">
        <ele>67</ele>
        <time>2019-08-23T08:16:51Z</time>
      </trkpt>
      <trkpt lat="59.165503" lon="18.152105">
        <ele>67</ele>
        <time>2019-08-23T08:16:52Z</time>
      </trkpt>
      <trkpt lat="59.165495" lon="18.152158">
        <ele>67</ele>
        <time>2019-08-23T08:16:53Z</time>
      </trkpt>
      <trkpt lat="59.165487" lon="18.152214">
        <ele>67</ele>
        <time>2019-08-23T08:16:55Z</time>
      </trkpt>
      <trkpt lat="59.165477" lon="18.152271">
        <ele>68</ele>
        <time>2019-08-23T08:16:55Z</time>
      </trkpt>
      <trkpt lat="59.16547" lon="18.152329">
        <ele>68</ele>
        <time>2019-08-23T08:16:56Z</time>
      </trkpt>
      <trkpt lat="59.165465" lon="18.152392">
        <ele>68</ele>
        <time>2019-08-23T08:16:58Z</time>
      </trkpt>
      <trkpt lat="59.165456" lon="18.152446">
        <ele>67</ele>
        <time>2019-08-23T08:16:58Z</time>
      </trkpt>
      <trkpt lat="59.165448" lon="18.152502">
        <ele>67</ele>
        <time>2019-08-23T08:16:59Z</time>
      </trkpt>
      <trkpt lat="59.165441" lon="18.15256">
        <ele>67</ele>
        <time>2019-08-23T08:17:01Z</time>
      </trkpt>
      <trkpt lat="59.165432" lon="18.152619">
        <ele>67</ele>
        <time>2019-08-23T08:17:01Z</time>
      </trkpt>
      <trkpt lat="59.165425" lon="18.152673">
        <ele>67</ele>
        <time>2019-08-23T08:17:02Z</time>
      </trkpt>
      <trkpt lat="59.165419" lon="18.152723">
        <ele>67</ele>
        <time>2019-08-23T08:17:03Z</time>
      </trkpt>
      <trkpt lat="59.165415" lon="18.15277">
        <ele>67</ele>
        <time>2019-08-23T08:17:04Z</time>
      </trkpt>
      <trkpt lat="59.165414" lon="18.152818">
        <ele>67</ele>
        <time>2019-08-23T08:17:06Z</time>
      </trkpt>
      <trkpt lat="59.165411" lon="18.152868">
        <ele>67</ele>
        <time>2019-08-23T08:17:06Z</time>
      </trkpt>
      <trkpt lat="59.165408" lon="18.152923">
        <ele>67</ele>
        <time>2019-08-23T08:17:07Z</time>
      </trkpt>
      <trkpt lat="59.165407" lon="18.152977">
        <ele>67</ele>
        <time>2019-08-23T08:17:09Z</time>
      </trkpt>
      <trkpt lat="59.165409" lon="18.153028">
        <ele>67</ele>
        <time>2019-08-23T08:17:09Z</time>
      </trkpt>
      <trkpt lat="59.165412" lon="18.153077">
        <ele>67</ele>
        <time>2019-08-23T08:17:11Z</time>
      </trkpt>
      <trkpt lat="59.165414" lon="18.153128">
        <ele>67</ele>
        <time>2019-08-23T08:17:11Z</time>
      </trkpt>
      <trkpt lat="59.165419" lon="18.153179">
        <ele>66</ele>
        <time>2019-08-23T08:17:12Z</time>
      </trkpt>
      <trkpt lat="59.165432" lon="18.153221">
        <ele>66</ele>
        <time>2019-08-23T08:17:14Z</time>
      </trkpt>
      <trkpt lat="59.165452" lon="18.153251">
        <ele>66</ele>
        <time>2019-08-23T08:17:14Z</time>
      </trkpt>
      <trkpt lat="59.165474" lon="18.153266">
        <ele>66</ele>
        <time>2019-08-23T08:17:15Z</time>
      </trkpt>
      <trkpt lat="59.165495" lon="18.153281">
        <ele>66</ele>
        <time>2019-08-23T08:17:16Z</time>
      </trkpt>
      <trkpt lat="59.165516" lon="18.153296">
        <ele>66</ele>
        <time>2019-08-23T08:17:17Z</time>
      </trkpt>
      <trkpt lat="59.16554" lon="18.153312">
        <ele>66</ele>
        <time>2019-08-23T08:17:18Z</time>
      </trkpt>
      <trkpt lat="59.165565" lon="18.153329">
        <ele>66</ele>
        <time>2019-08-23T08:17:19Z</time>
      </trkpt>
      <trkpt lat="59.165588" lon="18.15334">
        <ele>65</ele>
        <time>2019-08-23T08:17:21Z</time>
      </trkpt>
      <trkpt lat="59.165608" lon="18.153351">
        <ele>65</ele>
        <time>2019-08-23T08:17:21Z</time>
      </trkpt>
      <trkpt lat="59.165628" lon="18.153365">
        <ele>65</ele>
        <time>2019-08-23T08:17:22Z</time>
      </trkpt>
      <trkpt lat="59.165651" lon="18.153388">
        <ele>65</ele>
        <time>2019-08-23T08:17:23Z</time>
      </trkpt>
      <trkpt lat="59.165672" lon="18.153412">
        <ele>65</ele>
        <time>2019-08-23T08:17:24Z</time>
      </trkpt>
      <trkpt lat="59.165694" lon="18.153437">
        <ele>65</ele>
        <time>2019-08-23T08:17:25Z</time>
      </trkpt>
      <trkpt lat="59.165711" lon="18.153476">
        <ele>65</ele>
        <time>2019-08-23T08:17:26Z</time>
      </trkpt>
      <trkpt lat="59.165716" lon="18.153531">
        <ele>65</ele>
        <time>2019-08-23T08:17:28Z</time>
      </trkpt>
      <trkpt lat="59.165714" lon="18.153586">
        <ele>65</ele>
        <time>2019-08-23T08:17:28Z</time>
      </trkpt>
      <trkpt lat="59.165706" lon="18.153638">
        <ele>65</ele>
        <time>2019-08-23T08:17:29Z</time>
      </trkpt>
      <trkpt lat="59.165702" lon="18.153688">
        <ele>65</ele>
        <time>2019-08-23T08:17:30Z</time>
      </trkpt>
      <trkpt lat="59.165697" lon="18.153736">
        <ele>65</ele>
        <time>2019-08-23T08:17:31Z</time>
      </trkpt>
      <trkpt lat="59.165689" lon="18.153783">
        <ele>65</ele>
        <time>2019-08-23T08:17:32Z</time>
      </trkpt>
      <trkpt lat="59.165682" lon="18.153832">
        <ele>65</ele>
        <time>2019-08-23T08:17:33Z</time>
      </trkpt>
      <trkpt lat="59.165676" lon="18.153883">
        <ele>64</ele>
        <time>2019-08-23T08:17:35Z</time>
      </trkpt>
      <trkpt lat="59.16567" lon="18.15393">
        <ele>64</ele>
        <time>2019-08-23T08:17:35Z</time>
      </trkpt>
      <trkpt lat="59.165662" lon="18.153974">
        <ele>64</ele>
        <time>2019-08-23T08:17:36Z</time>
      </trkpt>
      <trkpt lat="59.165654" lon="18.154019">
        <ele>64</ele>
        <time>2019-08-23T08:17:38Z</time>
      </trkpt>
      <trkpt lat="59.165643" lon="18.154065">
        <ele>64</ele>
        <time>2019-08-23T08:17:38Z</time>
      </trkpt>
      <trkpt lat="59.165631" lon="18.154114">
        <ele>64</ele>
        <time>2019-08-23T08:17:39Z</time>
      </trkpt>
      <trkpt lat="59.165622" lon="18.154161">
        <ele>64</ele>
        <time>2019-08-23T08:17:40Z</time>
      </trkpt>
      <trkpt lat="59.165614" lon="18.154215">
        <ele>64</ele>
        <time>2019-08-23T08:17:42Z</time>
      </trkpt>
      <trkpt lat="59.165607" lon="18.154269">
        <ele>64</ele>
        <time>2019-08-23T08:17:42Z</time>
      </trkpt>
      <trkpt lat="59.165598" lon="18.154321">
        <ele>64</ele>
        <time>2019-08-23T08:17:43Z</time>
      </trkpt>
      <trkpt lat="59.165591" lon="18.154372">
        <ele>64</ele>
        <time>2019-08-23T08:17:44Z</time>
      </trkpt>
      <trkpt lat="59.165587" lon="18.154419">
        <ele>64</ele>
        <time>2019-08-23T08:17:45Z</time>
      </trkpt>
      <trkpt lat="59.165579" lon="18.154469">
        <ele>64</ele>
        <time>2019-08-23T08:17:47Z</time>
      </trkpt>
      <trkpt lat="59.165573" lon="18.154522">
        <ele>64</ele>
        <time>2019-08-23T08:17:47Z</time>
      </trkpt>
      <trkpt lat="59.165567" lon="18.154572">
        <ele>64</ele>
        <time>2019-08-23T08:17:48Z</time>
      </trkpt>
      <trkpt lat="59.165557" lon="18.154623">
        <ele>64</ele>
        <time>2019-08-23T08:17:49Z</time>
      </trkpt>
      <trkpt lat="59.16555" lon="18.154671">
        <ele>64</ele>
        <time>2019-08-23T08:17:50Z</time>
      </trkpt>
      <trkpt lat="59.165541" lon="18.154723">
        <ele>64</ele>
        <time>2019-08-23T08:17:52Z</time>
      </trkpt>
      <trkpt lat="59.165533" lon="18.154774">
        <ele>64</ele>
        <time>2019-08-23T08:17:52Z</time>
      </trkpt>
      <trkpt lat="59.165525" lon="18.154825">
        <ele>64</ele>
        <time>2019-08-23T08:17:53Z</time>
      </trkpt>
      <trkpt lat="59.165519" lon="18.154879">
        <ele>64</ele>
        <time>2019-08-23T08:17:55Z</time>
      </trkpt>
      <trkpt lat="59.16551" lon="18.154927">
        <ele>64</ele>
        <time>2019-08-23T08:17:55Z</time>
      </trkpt>
      <trkpt lat="59.165502" lon="18.154972">
        <ele>64</ele>
        <time>2019-08-23T08:17:56Z</time>
      </trkpt>
      <trkpt lat="59.165494" lon="18.155021">
        <ele>64</ele>
        <time>2019-08-23T08:17:57Z</time>
      </trkpt>
      <trkpt lat="59.165488" lon="18.155071">
        <ele>64</ele>
        <time>2019-08-23T08:17:59Z</time>
      </trkpt>
      <trkpt lat="59.165482" lon="18.155121">
        <ele>64</ele>
        <time>2019-08-23T08:17:59Z</time>
      </trkpt>
      <trkpt lat="59.165477" lon="18.155173">
        <ele>64</ele>
        <time>2019-08-23T08:18:00Z</time>
      </trkpt>
      <trkpt lat="59.16547" lon="18.155222">
        <ele>64</ele>
        <time>2019-08-23T08:18:01Z</time>
      </trkpt>
      <trkpt lat="59.165462" lon="18.155268">
        <ele>64</ele>
        <time>2019-08-23T08:18:02Z</time>
      </trkpt>
      <trkpt lat="59.165453" lon="18.155318">
        <ele>64</ele>
        <time>2019-08-23T08:18:04Z</time>
      </trkpt>
      <trkpt lat="59.165447" lon="18.155371">
        <ele>64</ele>
        <time>2019-08-23T08:18:04Z</time>
      </trkpt>
      <trkpt lat="59.165441" lon="18.155423">
        <ele>64</ele>
        <time>2019-08-23T08:18:06Z</time>
      </trkpt>
      <trkpt lat="59.165435" lon="18.155475">
        <ele>65</ele>
        <time>2019-08-23T08:18:06Z</time>
      </trkpt>
      <trkpt lat="59.165428" lon="18.155526">
        <ele>65</ele>
        <time>2019-08-23T08:18:07Z</time>
      </trkpt>
      <trkpt lat="59.165419" lon="18.155581">
        <ele>65</ele>
        <time>2019-08-23T08:18:08Z</time>
      </trkpt>
      <trkpt lat="59.165409" lon="18.155635">
        <ele>65</ele>
        <time>2019-08-23T08:18:09Z</time>
      </trkpt>
      <trkpt lat="59.165399" lon="18.15569">
        <ele>65</ele>
        <time>2019-08-23T08:18:10Z</time>
      </trkpt>
      <trkpt lat="59.16539" lon="18.155743">
        <ele>64</ele>
        <time>2019-08-23T08:18:11Z</time>
      </trkpt>
      <trkpt lat="59.165384" lon="18.155796">
        <ele>64</ele>
        <time>2019-08-23T08:18:13Z</time>
      </trkpt>
      <trkpt lat="59.165377" lon="18.15585">
        <ele>64</ele>
        <time>2019-08-23T08:18:13Z</time>
      </trkpt>
      <trkpt lat="59.165372" lon="18.155899">
        <ele>64</ele>
        <time>2019-08-23T08:18:14Z</time>
      </trkpt>
      <trkpt lat="59.165368" lon="18.155951">
        <ele>64</ele>
        <time>2019-08-23T08:18:16Z</time>
      </trkpt>
      <trkpt lat="59.165366" lon="18.156001">
        <ele>64</ele>
        <time>2019-08-23T08:18:17Z</time>
      </trkpt>
      <trkpt lat="59.165363" lon="18.156053">
        <ele>64</ele>
        <time>2019-08-23T08:18:17Z</time>
      </trkpt>
      <trkpt lat="59.165357" lon="18.156106">
        <ele>64</ele>
        <time>2019-08-23T08:18:18Z</time>
      </trkpt>
      <trkpt lat="59.165351" lon="18.156155">
        <ele>64</ele>
        <time>2019-08-23T08:18:19Z</time>
      </trkpt>
      <trkpt lat="59.165347" lon="18.156204">
        <ele>64</ele>
        <time>2019-08-23T08:18:20Z</time>
      </trkpt>
      <trkpt lat="59.165344" lon="18.156253">
        <ele>64</ele>
        <time>2019-08-23T08:18:22Z</time>
      </trkpt>
      <trkpt lat="59.165338" lon="18.156302">
        <ele>64</ele>
        <time>2019-08-23T08:18:22Z</time>
      </trkpt>
      <trkpt lat="59.165331" lon="18.156351">
        <ele>63</ele>
        <time>2019-08-23T08:18:23Z</time>
      </trkpt>
      <trkpt lat="59.165323" lon="18.156399">
        <ele>63</ele>
        <time>2019-08-23T08:18:25Z</time>
      </trkpt>
      <trkpt lat="59.165309" lon="18.156448">
        <ele>63</ele>
        <time>2019-08-23T08:18:25Z</time>
      </trkpt>
      <trkpt lat="59.165292" lon="18.156489">
        <ele>63</ele>
        <time>2019-08-23T08:18:26Z</time>
      </trkpt>
      <trkpt lat="59.165273" lon="18.156521">
        <ele>63</ele>
        <time>2019-08-23T08:18:27Z</time>
      </trkpt>
      <trkpt lat="59.165247" lon="18.156531">
        <ele>62</ele>
        <time>2019-08-23T08:18:28Z</time>
      </trkpt>
      <trkpt lat="59.165218" lon="18.156523">
        <ele>62</ele>
        <time>2019-08-23T08:18:30Z</time>
      </trkpt>
      <trkpt lat="59.165187" lon="18.156507">
        <ele>62</ele>
        <time>2019-08-23T08:18:30Z</time>
      </trkpt>
      <trkpt lat="59.165153" lon="18.156484">
        <ele>61</ele>
        <time>2019-08-23T08:18:31Z</time>
      </trkpt>
      <trkpt lat="59.165122" lon="18.156458">
        <ele>61</ele>
        <time>2019-08-23T08:18:33Z</time>
      </trkpt>
      <trkpt lat="59.16509" lon="18.156431">
        <ele>61</ele>
        <time>2019-08-23T08:18:34Z</time>
      </trkpt>
      <trkpt lat="59.165061" lon="18.156407">
        <ele>61</ele>
        <time>2019-08-23T08:18:34Z</time>
      </trkpt>
      <trkpt lat="59.16503" lon="18.156386">
        <ele>60</ele>
        <time>2019-08-23T08:18:35Z</time>
      </trkpt>
      <trkpt lat="59.165" lon="18.156364">
        <ele>60</ele>
        <time>2019-08-23T08:18:36Z</time>
      </trkpt>
      <trkpt lat="59.164969" lon="18.156349">
        <ele>60</ele>
        <time>2019-08-23T08:18:37Z</time>
      </trkpt>
      <trkpt lat="59.164939" lon="18.15633">
        <ele>60</ele>
        <time>2019-08-23T08:18:38Z</time>
      </trkpt>
      <trkpt lat="59.16491" lon="18.156316">
        <ele>60</ele>
        <time>2019-08-23T08:18:39Z</time>
      </trkpt>
      <trkpt lat="59.164882" lon="18.156301">
        <ele>60</ele>
        <time>2019-08-23T08:18:41Z</time>
      </trkpt>
      <trkpt lat="59.164854" lon="18.15629">
        <ele>60</ele>
        <time>2019-08-23T08:18:41Z</time>
      </trkpt>
      <trkpt lat="59.164826" lon="18.156276">
        <ele>60</ele>
        <time>2019-08-23T08:18:42Z</time>
      </trkpt>
      <trkpt lat="59.164798" lon="18.156256">
        <ele>60</ele>
        <time>2019-08-23T08:18:44Z</time>
      </trkpt>
      <trkpt lat="59.164771" lon="18.156238">
        <ele>60</ele>
        <time>2019-08-23T08:18:44Z</time>
      </trkpt>
      <trkpt lat="59.164743" lon="18.156219">
        <ele>60</ele>
        <time>2019-08-23T08:18:45Z</time>
      </trkpt>
      <trkpt lat="59.164717" lon="18.156203">
        <ele>60</ele>
        <time>2019-08-23T08:18:46Z</time>
      </trkpt>
      <trkpt lat="59.164689" lon="18.156188">
        <ele>59</ele>
        <time>2019-08-23T08:18:47Z</time>
      </trkpt>
      <trkpt lat="59.164664" lon="18.156169">
        <ele>59</ele>
        <time>2019-08-23T08:18:49Z</time>
      </trkpt>
      <trkpt lat="59.164637" lon="18.156153">
        <ele>59</ele>
        <time>2019-08-23T08:18:49Z</time>
      </trkpt>
      <trkpt lat="59.16461" lon="18.156139">
        <ele>59</ele>
        <time>2019-08-23T08:18:50Z</time>
      </trkpt>
      <trkpt lat="59.164584" lon="18.156123">
        <ele>59</ele>
        <time>2019-08-23T08:18:52Z</time>
      </trkpt>
      <trkpt lat="59.164559" lon="18.156104">
        <ele>59</ele>
        <time>2019-08-23T08:18:53Z</time>
      </trkpt>
      <trkpt lat="59.164534" lon="18.15609">
        <ele>59</ele>
        <time>2019-08-23T08:18:53Z</time>
      </trkpt>
      <trkpt lat="59.164508" lon="18.156077">
        <ele>59</ele>
        <time>2019-08-23T08:18:54Z</time>
      </trkpt>
      <trkpt lat="59.164483" lon="18.156056">
        <ele>59</ele>
        <time>2019-08-23T08:18:55Z</time>
      </trkpt>
      <trkpt lat="59.164458" lon="18.156038">
        <ele>59</ele>
        <time>2019-08-23T08:18:56Z</time>
      </trkpt>
      <trkpt lat="59.164433" lon="18.156017">
        <ele>59</ele>
        <time>2019-08-23T08:18:58Z</time>
      </trkpt>
      <trkpt lat="59.164411" lon="18.155991">
        <ele>59</ele>
        <time>2019-08-23T08:18:58Z</time>
      </trkpt>
      <trkpt lat="59.16439" lon="18.155967">
        <ele>59</ele>
        <time>2019-08-23T08:18:59Z</time>
      </trkpt>
      <trkpt lat="59.164369" lon="18.15594">
        <ele>58</ele>
        <time>2019-08-23T08:19:01Z</time>
      </trkpt>
      <trkpt lat="59.164348" lon="18.155918">
        <ele>58</ele>
        <time>2019-08-23T08:19:01Z</time>
      </trkpt>
      <trkpt lat="59.164324" lon="18.155903">
        <ele>58</ele>
        <time>2019-08-23T08:19:03Z</time>
      </trkpt>
      <trkpt lat="59.164298" lon="18.155891">
        <ele>58</ele>
        <time>2019-08-23T08:19:03Z</time>
      </trkpt>
      <trkpt lat="59.164274" lon="18.155875">
        <ele>59</ele>
        <time>2019-08-23T08:19:04Z</time>
      </trkpt>
      <trkpt lat="59.16425" lon="18.155859">
        <ele>58</ele>
        <time>2019-08-23T08:19:05Z</time>
      </trkpt>
      <trkpt lat="59.164228" lon="18.155843">
        <ele>59</ele>
        <time>2019-08-23T08:19:06Z</time>
      </trkpt>
      <trkpt lat="59.164204" lon="18.155829">
        <ele>59</ele>
        <time>2019-08-23T08:19:07Z</time>
      </trkpt>
      <trkpt lat="59.164182" lon="18.155811">
        <ele>59</ele>
        <time>2019-08-23T08:19:08Z</time>
      </trkpt>
      <trkpt lat="59.164162" lon="18.155798">
        <ele>59</ele>
        <time>2019-08-23T08:19:10Z</time>
      </trkpt>
      <trkpt lat="59.164139" lon="18.155785">
        <ele>59</ele>
        <time>2019-08-23T08:19:10Z</time>
      </trkpt>
      <trkpt lat="59.164118" lon="18.155767">
        <ele>59</ele>
        <time>2019-08-23T08:19:11Z</time>
      </trkpt>
      <trkpt lat="59.164096" lon="18.155751">
        <ele>59</ele>
        <time>2019-08-23T08:19:13Z</time>
      </trkpt>
      <trkpt lat="59.164074" lon="18.155734">
        <ele>59</ele>
        <time>2019-08-23T08:19:13Z</time>
      </trkpt>
      <trkpt lat="59.16405" lon="18.155722">
        <ele>59</ele>
        <time>2019-08-23T08:19:14Z</time>
      </trkpt>
      <trkpt lat="59.164026" lon="18.15571">
        <ele>59</ele>
        <time>2019-08-23T08:19:15Z</time>
      </trkpt>
      <trkpt lat="59.164004" lon="18.155693">
        <ele>59</ele>
        <time>2019-08-23T08:19:16Z</time>
      </trkpt>
      <trkpt lat="59.163986" lon="18.15568">
        <ele>59</ele>
        <time>2019-08-23T08:19:17Z</time>
      </trkpt>
      <trkpt lat="59.16396" lon="18.155664">
        <ele>59</ele>
        <time>2019-08-23T08:19:19Z</time>
      </trkpt>
      <trkpt lat="59.16394" lon="18.155648">
        <ele>58</ele>
        <time>2019-08-23T08:19:22Z</time>
      </trkpt>
      <trkpt lat="59.163918" lon="18.15563">
        <ele>58</ele>
        <time>2019-08-23T08:19:24Z</time>
      </trkpt>
      <trkpt lat="59.1639" lon="18.155603">
        <ele>58</ele>
        <time>2019-08-23T08:19:25Z</time>
      </trkpt>
      <trkpt lat="59.1639" lon="18.155558">
        <ele>57</ele>
        <time>2019-08-23T08:19:27Z</time>
      </trkpt>
      <trkpt lat="59.163906" lon="18.155519">
        <ele>57</ele>
        <time>2019-08-23T08:19:29Z</time>
      </trkpt>
      <trkpt lat="59.163914" lon="18.155481">
        <ele>57</ele>
        <time>2019-08-23T08:19:32Z</time>
      </trkpt>
      <trkpt lat="59.16392" lon="18.155441">
        <ele>56</ele>
        <time>2019-08-23T08:19:33Z</time>
      </trkpt>
      <trkpt lat="59.163926" lon="18.155407">
        <ele>56</ele>
        <time>2019-08-23T08:19:36Z</time>
      </trkpt>
      <trkpt lat="59.16393" lon="18.155358">
        <ele>56</ele>
        <time>2019-08-23T08:19:38Z</time>
      </trkpt>
      <trkpt lat="59.163932" lon="18.155308">
        <ele>56</ele>
        <time>2019-08-23T08:19:41Z</time>
      </trkpt>
      <trkpt lat="59.163932" lon="18.155258">
        <ele>56</ele>
        <time>2019-08-23T08:19:44Z</time>
      </trkpt>
      <trkpt lat="59.16393" lon="18.155222">
        <ele>56</ele>
        <time>2019-08-23T08:19:55Z</time>
      </trkpt>
      <trkpt lat="59.163916" lon="18.155195">
        <ele>56</ele>
        <time>2019-08-23T08:20:00Z</time>
      </trkpt>
      <trkpt lat="59.163896" lon="18.155175">
        <ele>56</ele>
        <time>2019-08-23T08:20:02Z</time>
      </trkpt>
      <trkpt lat="59.163874" lon="18.155175">
        <ele>56</ele>
        <time>2019-08-23T08:20:03Z</time>
      </trkpt>
      <trkpt lat="59.163853" lon="18.155166">
        <ele>55</ele>
        <time>2019-08-23T08:20:06Z</time>
      </trkpt>
      <trkpt lat="59.16383" lon="18.15516">
        <ele>55</ele>
        <time>2019-08-23T08:20:07Z</time>
      </trkpt>
      <trkpt lat="59.16381" lon="18.155153">
        <ele>55</ele>
        <time>2019-08-23T08:20:09Z</time>
      </trkpt>
      <trkpt lat="59.16379" lon="18.155145">
        <ele>56</ele>
        <time>2019-08-23T08:20:11Z</time>
      </trkpt>
      <trkpt lat="59.163769" lon="18.155134">
        <ele>55</ele>
        <time>2019-08-23T08:20:14Z</time>
      </trkpt>
      <trkpt lat="59.163744" lon="18.155121">
        <ele>56</ele>
        <time>2019-08-23T08:20:17Z</time>
      </trkpt>
      <trkpt lat="59.16372" lon="18.155102">
        <ele>55</ele>
        <time>2019-08-23T08:20:19Z</time>
      </trkpt>
      <trkpt lat="59.163712" lon="18.155067">
        <ele>55</ele>
        <time>2019-08-23T08:23:23Z</time>
      </trkpt>
      <trkpt lat="59.163718" lon="18.155101">
        <ele>55</ele>
        <time>2019-08-23T08:23:50Z</time>
      </trkpt>
      <trkpt lat="59.163701" lon="18.155106">
        <ele>56</ele>
        <time>2019-08-23T08:25:23Z</time>
      </trkpt>
      <trkpt lat="59.163717" lon="18.155072">
        <ele>56</ele>
        <time>2019-08-23T08:25:38Z</time>
      </trkpt>
      <trkpt lat="59.163738" lon="18.155058">
        <ele>56</ele>
        <time>2019-08-23T08:25:40Z</time>
      </trkpt>
      <trkpt lat="59.163763" lon="18.15506">
        <ele>56</ele>
        <time>2019-08-23T08:25:42Z</time>
      </trkpt>
      <trkpt lat="59.163784" lon="18.155046">
        <ele>56</ele>
        <time>2019-08-23T08:25:45Z</time>
      </trkpt>
      <trkpt lat="59.163769" lon="18.155068">
        <ele>57</ele>
        <time>2019-08-23T08:26:00Z</time>
      </trkpt>
      <trkpt lat="59.163754" lon="18.155097">
        <ele>57</ele>
        <time>2019-08-23T08:26:04Z</time>
      </trkpt>
      <trkpt lat="59.163735" lon="18.155097">
        <ele>57</ele>
        <time>2019-08-23T08:26:09Z</time>
      </trkpt>
      <trkpt lat="59.163729" lon="18.155137">
        <ele>56</ele>
        <time>2019-08-23T08:26:57Z</time>
      </trkpt>
      <trkpt lat="59.163711" lon="18.155124">
        <ele>56</ele>
        <time>2019-08-23T08:27:08Z</time>
      </trkpt>
      <trkpt lat="59.163717" lon="18.155087">
        <ele>56</ele>
        <time>2019-08-23T08:27:50Z</time>
      </trkpt>
      <trkpt lat="59.163741" lon="18.155073">
        <ele>56</ele>
        <time>2019-08-23T08:27:55Z</time>
      </trkpt>
      <trkpt lat="59.163771" lon="18.155069">
        <ele>57</ele>
        <time>2019-08-23T08:27:58Z</time>
      </trkpt>
      <trkpt lat="59.163789" lon="18.155088">
        <ele>57</ele>
        <time>2019-08-23T08:27:58Z</time>
      </trkpt>
      <trkpt lat="59.16381" lon="18.155116">
        <ele>57</ele>
        <time>2019-08-23T08:27:59Z</time>
      </trkpt>
      <trkpt lat="59.16383" lon="18.155147">
        <ele>57</ele>
        <time>2019-08-23T08:28:00Z</time>
      </trkpt>
      <trkpt lat="59.163848" lon="18.155187">
        <ele>57</ele>
        <time>2019-08-23T08:28:01Z</time>
      </trkpt>
      <trkpt lat="59.163862" lon="18.155232">
        <ele>57</ele>
        <time>2019-08-23T08:28:02Z</time>
      </trkpt>
      <trkpt lat="59.163875" lon="18.155281">
        <ele>57</ele>
        <time>2019-08-23T08:28:03Z</time>
      </trkpt>
      <trkpt lat="59.163882" lon="18.155332">
        <ele>57</ele>
        <time>2019-08-23T08:28:04Z</time>
      </trkpt>
      <trkpt lat="59.163884" lon="18.155385">
        <ele>57</ele>
        <time>2019-08-23T08:28:06Z</time>
      </trkpt>
      <trkpt lat="59.163884" lon="18.155438">
        <ele>57</ele>
        <time>2019-08-23T08:28:06Z</time>
      </trkpt>
      <trkpt lat="59.16388" lon="18.155491">
        <ele>57</ele>
        <time>2019-08-23T08:28:07Z</time>
      </trkpt>
      <trkpt lat="59.163872" lon="18.155545">
        <ele>57</ele>
        <time>2019-08-23T08:28:09Z</time>
      </trkpt>
      <trkpt lat="59.163864" lon="18.1556">
        <ele>57</ele>
        <time>2019-08-23T08:28:09Z</time>
      </trkpt>
      <trkpt lat="59.16385" lon="18.155651">
        <ele>57</ele>
        <time>2019-08-23T08:28:10Z</time>
      </trkpt>
      <trkpt lat="59.163835" lon="18.155701">
        <ele>57</ele>
        <time>2019-08-23T08:28:11Z</time>
      </trkpt>
      <trkpt lat="59.163816" lon="18.155748">
        <ele>57</ele>
        <time>2019-08-23T08:28:12Z</time>
      </trkpt>
      <trkpt lat="59.163794" lon="18.15579">
        <ele>57</ele>
        <time>2019-08-23T08:28:14Z</time>
      </trkpt>
      <trkpt lat="59.16377" lon="18.155827">
        <ele>57</ele>
        <time>2019-08-23T08:28:14Z</time>
      </trkpt>
      <trkpt lat="59.163744" lon="18.155862">
        <ele>57</ele>
        <time>2019-08-23T08:28:16Z</time>
      </trkpt>
      <trkpt lat="59.163718" lon="18.155892">
        <ele>57</ele>
        <time>2019-08-23T08:28:16Z</time>
      </trkpt>
      <trkpt lat="59.16369" lon="18.155919">
        <ele>57</ele>
        <time>2019-08-23T08:28:17Z</time>
      </trkpt>
      <trkpt lat="59.163664" lon="18.15594">
        <ele>57</ele>
        <time>2019-08-23T08:28:19Z</time>
      </trkpt>
      <trkpt lat="59.163634" lon="18.155954">
        <ele>57</ele>
        <time>2019-08-23T08:28:19Z</time>
      </trkpt>
      <trkpt lat="59.163603" lon="18.155966">
        <ele>57</ele>
        <time>2019-08-23T08:28:20Z</time>
      </trkpt>
      <trkpt lat="59.163572" lon="18.155971">
        <ele>56</ele>
        <time>2019-08-23T08:28:21Z</time>
      </trkpt>
      <trkpt lat="59.163538" lon="18.15597">
        <ele>57</ele>
        <time>2019-08-23T08:28:22Z</time>
      </trkpt>
      <trkpt lat="59.163506" lon="18.155964">
        <ele>57</ele>
        <time>2019-08-23T08:28:23Z</time>
      </trkpt>
      <trkpt lat="59.163471" lon="18.155961">
        <ele>57</ele>
        <time>2019-08-23T08:28:24Z</time>
      </trkpt>
      <trkpt lat="59.163436" lon="18.155952">
        <ele>57</ele>
        <time>2019-08-23T08:28:25Z</time>
      </trkpt>
      <trkpt lat="59.1634" lon="18.155938">
        <ele>57</ele>
        <time>2019-08-23T08:28:27Z</time>
      </trkpt>
      <trkpt lat="59.163366" lon="18.155922">
        <ele>57</ele>
        <time>2019-08-23T08:28:27Z</time>
      </trkpt>
      <trkpt lat="59.163332" lon="18.155906">
        <ele>57</ele>
        <time>2019-08-23T08:28:28Z</time>
      </trkpt>
      <trkpt lat="59.163296" lon="18.155889">
        <ele>57</ele>
        <time>2019-08-23T08:28:30Z</time>
      </trkpt>
      <trkpt lat="59.163264" lon="18.155874">
        <ele>57</ele>
        <time>2019-08-23T08:28:31Z</time>
      </trkpt>
      <trkpt lat="59.163232" lon="18.155861">
        <ele>57</ele>
        <time>2019-08-23T08:28:31Z</time>
      </trkpt>
      <trkpt lat="59.1632" lon="18.155846">
        <ele>57</ele>
        <time>2019-08-23T08:28:33Z</time>
      </trkpt>
      <trkpt lat="59.16317" lon="18.155829">
        <ele>57</ele>
        <time>2019-08-23T08:28:33Z</time>
      </trkpt>
      <trkpt lat="59.16314" lon="18.155813">
        <ele>57</ele>
        <time>2019-08-23T08:28:34Z</time>
      </trkpt>
      <trkpt lat="59.16311" lon="18.155798">
        <ele>58</ele>
        <time>2019-08-23T08:28:35Z</time>
      </trkpt>
      <trkpt lat="59.163082" lon="18.155781">
        <ele>58</ele>
        <time>2019-08-23T08:28:36Z</time>
      </trkpt>
      <trkpt lat="59.163052" lon="18.155765">
        <ele>58</ele>
        <time>2019-08-23T08:28:37Z</time>
      </trkpt>
      <trkpt lat="59.163022" lon="18.155752">
        <ele>58</ele>
        <time>2019-08-23T08:28:38Z</time>
      </trkpt>
      <trkpt lat="59.162992" lon="18.155735">
        <ele>58</ele>
        <time>2019-08-23T08:28:40Z</time>
      </trkpt>
      <trkpt lat="59.162961" lon="18.155721">
        <ele>58</ele>
        <time>2019-08-23T08:28:40Z</time>
      </trkpt>
      <trkpt lat="59.162932" lon="18.155704">
        <ele>58</ele>
        <time>2019-08-23T08:28:41Z</time>
      </trkpt>
      <trkpt lat="59.1629" lon="18.155686">
        <ele>58</ele>
        <time>2019-08-23T08:28:43Z</time>
      </trkpt>
      <trkpt lat="59.16287" lon="18.155667">
        <ele>58</ele>
        <time>2019-08-23T08:28:43Z</time>
      </trkpt>
      <trkpt lat="59.162838" lon="18.155648">
        <ele>58</ele>
        <time>2019-08-23T08:28:44Z</time>
      </trkpt>
      <trkpt lat="59.162806" lon="18.15563">
        <ele>58</ele>
        <time>2019-08-23T08:28:45Z</time>
      </trkpt>
      <trkpt lat="59.162773" lon="18.155613">
        <ele>59</ele>
        <time>2019-08-23T08:28:47Z</time>
      </trkpt>
      <trkpt lat="59.162742" lon="18.155596">
        <ele>59</ele>
        <time>2019-08-23T08:28:47Z</time>
      </trkpt>
      <trkpt lat="59.16271" lon="18.15558">
        <ele>59</ele>
        <time>2019-08-23T08:28:48Z</time>
      </trkpt>
      <trkpt lat="59.162679" lon="18.155562">
        <ele>59</ele>
        <time>2019-08-23T08:28:49Z</time>
      </trkpt>
      <trkpt lat="59.162648" lon="18.155536">
        <ele>59</ele>
        <time>2019-08-23T08:28:50Z</time>
      </trkpt>
      <trkpt lat="59.162618" lon="18.155507">
        <ele>60</ele>
        <time>2019-08-23T08:28:52Z</time>
      </trkpt>
      <trkpt lat="59.16259" lon="18.155473">
        <ele>60</ele>
        <time>2019-08-23T08:28:52Z</time>
      </trkpt>
      <trkpt lat="59.162562" lon="18.155431">
        <ele>60</ele>
        <time>2019-08-23T08:28:54Z</time>
      </trkpt>
      <trkpt lat="59.162539" lon="18.155382">
        <ele>60</ele>
        <time>2019-08-23T08:28:54Z</time>
      </trkpt>
      <trkpt lat="59.162519" lon="18.15533">
        <ele>60</ele>
        <time>2019-08-23T08:28:55Z</time>
      </trkpt>
      <trkpt lat="59.1625" lon="18.155277">
        <ele>60</ele>
        <time>2019-08-23T08:28:56Z</time>
      </trkpt>
      <trkpt lat="59.162482" lon="18.155221">
        <ele>60</ele>
        <time>2019-08-23T08:28:57Z</time>
      </trkpt>
      <trkpt lat="59.162466" lon="18.155162">
        <ele>60</ele>
        <time>2019-08-23T08:28:59Z</time>
      </trkpt>
      <trkpt lat="59.162452" lon="18.155101">
        <ele>60</ele>
        <time>2019-08-23T08:28:59Z</time>
      </trkpt>
      <trkpt lat="59.162444" lon="18.15504">
        <ele>60</ele>
        <time>2019-08-23T08:29:00Z</time>
      </trkpt>
      <trkpt lat="59.162439" lon="18.154977">
        <ele>60</ele>
        <time>2019-08-23T08:29:02Z</time>
      </trkpt>
      <trkpt lat="59.16244" lon="18.154908">
        <ele>59</ele>
        <time>2019-08-23T08:29:03Z</time>
      </trkpt>
      <trkpt lat="59.162444" lon="18.154838">
        <ele>59</ele>
        <time>2019-08-23T08:29:04Z</time>
      </trkpt>
      <trkpt lat="59.162452" lon="18.154772">
        <ele>59</ele>
        <time>2019-08-23T08:29:04Z</time>
      </trkpt>
      <trkpt lat="59.162464" lon="18.154706">
        <ele>58</ele>
        <time>2019-08-23T08:29:05Z</time>
      </trkpt>
      <trkpt lat="59.162479" lon="18.154638">
        <ele>58</ele>
        <time>2019-08-23T08:29:07Z</time>
      </trkpt>
      <trkpt lat="59.162497" lon="18.154576">
        <ele>58</ele>
        <time>2019-08-23T08:29:07Z</time>
      </trkpt>
      <trkpt lat="59.162517" lon="18.154522">
        <ele>58</ele>
        <time>2019-08-23T08:29:08Z</time>
      </trkpt>
      <trkpt lat="59.162539" lon="18.15447">
        <ele>58</ele>
        <time>2019-08-23T08:29:09Z</time>
      </trkpt>
      <trkpt lat="59.162563" lon="18.15442">
        <ele>58</ele>
        <time>2019-08-23T08:29:11Z</time>
      </trkpt>
      <trkpt lat="59.162583" lon="18.154376">
        <ele>58</ele>
        <time>2019-08-23T08:29:11Z</time>
      </trkpt>
      <trkpt lat="59.162606" lon="18.154336">
        <ele>58</ele>
        <time>2019-08-23T08:29:12Z</time>
      </trkpt>
      <trkpt lat="59.162633" lon="18.154302">
        <ele>58</ele>
        <time>2019-08-23T08:29:13Z</time>
      </trkpt>
      <trkpt lat="59.162662" lon="18.15427">
        <ele>58</ele>
        <time>2019-08-23T08:29:14Z</time>
      </trkpt>
      <trkpt lat="59.162691" lon="18.154238">
        <ele>58</ele>
        <time>2019-08-23T08:29:15Z</time>
      </trkpt>
      <trkpt lat="59.162723" lon="18.154212">
        <ele>58</ele>
        <time>2019-08-23T08:29:17Z</time>
      </trkpt>
      <trkpt lat="59.162754" lon="18.154194">
        <ele>58</ele>
        <time>2019-08-23T08:29:17Z</time>
      </trkpt>
      <trkpt lat="59.162786" lon="18.154186">
        <ele>58</ele>
        <time>2019-08-23T08:29:18Z</time>
      </trkpt>
      <trkpt lat="59.162817" lon="18.154186">
        <ele>58</ele>
        <time>2019-08-23T08:29:19Z</time>
      </trkpt>
      <trkpt lat="59.162849" lon="18.154192">
        <ele>57</ele>
        <time>2019-08-23T08:29:20Z</time>
      </trkpt>
      <trkpt lat="59.162881" lon="18.154204">
        <ele>57</ele>
        <time>2019-08-23T08:29:22Z</time>
      </trkpt>
      <trkpt lat="59.162911" lon="18.15422">
        <ele>57</ele>
        <time>2019-08-23T08:29:22Z</time>
      </trkpt>
      <trkpt lat="59.162943" lon="18.154234">
        <ele>57</ele>
        <time>2019-08-23T08:29:23Z</time>
      </trkpt>
      <trkpt lat="59.162973" lon="18.15425">
        <ele>57</ele>
        <time>2019-08-23T08:29:25Z</time>
      </trkpt>
      <trkpt lat="59.163002" lon="18.154268">
        <ele>57</ele>
        <time>2019-08-23T08:29:25Z</time>
      </trkpt>
      <trkpt lat="59.163031" lon="18.154286">
        <ele>57</ele>
        <time>2019-08-23T08:29:26Z</time>
      </trkpt>
      <trkpt lat="59.163061" lon="18.154308">
        <ele>57</ele>
        <time>2019-08-23T08:29:27Z</time>
      </trkpt>
      <trkpt lat="59.163092" lon="18.154328">
        <ele>57</ele>
        <time>2019-08-23T08:29:28Z</time>
      </trkpt>
      <trkpt lat="59.163124" lon="18.15435">
        <ele>57</ele>
        <time>2019-08-23T08:29:30Z</time>
      </trkpt>
      <trkpt lat="59.163157" lon="18.154376">
        <ele>57</ele>
        <time>2019-08-23T08:29:30Z</time>
      </trkpt>
      <trkpt lat="59.163187" lon="18.1544">
        <ele>57</ele>
        <time>2019-08-23T08:29:32Z</time>
      </trkpt>
      <trkpt lat="59.163217" lon="18.15442">
        <ele>57</ele>
        <time>2019-08-23T08:29:33Z</time>
      </trkpt>
      <trkpt lat="59.163246" lon="18.154438">
        <ele>57</ele>
        <time>2019-08-23T08:29:33Z</time>
      </trkpt>
      <trkpt lat="59.163275" lon="18.154456">
        <ele>57</ele>
        <time>2019-08-23T08:29:34Z</time>
      </trkpt>
      <trkpt lat="59.163304" lon="18.154474">
        <ele>57</ele>
        <time>2019-08-23T08:29:35Z</time>
      </trkpt>
      <trkpt lat="59.163335" lon="18.154492">
        <ele>57</ele>
        <time>2019-08-23T08:29:36Z</time>
      </trkpt>
      <trkpt lat="59.163367" lon="18.154512">
        <ele>57</ele>
        <time>2019-08-23T08:29:38Z</time>
      </trkpt>
      <trkpt lat="59.163396" lon="18.15453">
        <ele>57</ele>
        <time>2019-08-23T08:29:38Z</time>
      </trkpt>
      <trkpt lat="59.163425" lon="18.154546">
        <ele>57</ele>
        <time>2019-08-23T08:29:39Z</time>
      </trkpt>
      <trkpt lat="59.163455" lon="18.154564">
        <ele>57</ele>
        <time>2019-08-23T08:29:41Z</time>
      </trkpt>
      <trkpt lat="59.163484" lon="18.154584">
        <ele>57</ele>
        <time>2019-08-23T08:29:41Z</time>
      </trkpt>
      <trkpt lat="59.163512" lon="18.154604">
        <ele>57</ele>
        <time>2019-08-23T08:29:42Z</time>
      </trkpt>
      <trkpt lat="59.163541" lon="18.154626">
        <ele>57</ele>
        <time>2019-08-23T08:29:43Z</time>
      </trkpt>
      <trkpt lat="59.163572" lon="18.154644">
        <ele>57</ele>
        <time>2019-08-23T08:29:44Z</time>
      </trkpt>
      <trkpt lat="59.163603" lon="18.154662">
        <ele>57</ele>
        <time>2019-08-23T08:29:45Z</time>
      </trkpt>
      <trkpt lat="59.163635" lon="18.154682">
        <ele>57</ele>
        <time>2019-08-23T08:29:47Z</time>
      </trkpt>
      <trkpt lat="59.163665" lon="18.154702">
        <ele>57</ele>
        <time>2019-08-23T08:29:48Z</time>
      </trkpt>
      <trkpt lat="59.163692" lon="18.154724">
        <ele>57</ele>
        <time>2019-08-23T08:29:49Z</time>
      </trkpt>
      <trkpt lat="59.163718" lon="18.15475">
        <ele>57</ele>
        <time>2019-08-23T08:29:49Z</time>
      </trkpt>
      <trkpt lat="59.163742" lon="18.154782">
        <ele>57</ele>
        <time>2019-08-23T08:29:50Z</time>
      </trkpt>
      <trkpt lat="59.16376" lon="18.154818">
        <ele>56</ele>
        <time>2019-08-23T08:29:51Z</time>
      </trkpt>
      <trkpt lat="59.16377" lon="18.154852">
        <ele>56</ele>
        <time>2019-08-23T08:29:52Z</time>
      </trkpt>
      <trkpt lat="59.163763" lon="18.154908">
        <ele>56</ele>
        <time>2019-08-23T08:29:54Z</time>
      </trkpt>
      <trkpt lat="59.163753" lon="18.15495">
        <ele>56</ele>
        <time>2019-08-23T08:29:56Z</time>
      </trkpt>
      <trkpt lat="59.163744" lon="18.154992">
        <ele>56</ele>
        <time>2019-08-23T08:29:58Z</time>
      </trkpt>
      <trkpt lat="59.163736" lon="18.155046">
        <ele>56</ele>
        <time>2019-08-23T08:30:01Z</time>
      </trkpt>
      <trkpt lat="59.163728" lon="18.155092">
        <ele>56</ele>
        <time>2019-08-23T08:30:03Z</time>
      </trkpt>
      <trkpt lat="59.163718" lon="18.15513">
        <ele>56</ele>
        <time>2019-08-23T08:30:06Z</time>
      </trkpt>
      <trkpt lat="59.163719" lon="18.155166">
        <ele>56</ele>
        <time>2019-08-23T08:30:11Z</time>
      </trkpt>
      <trkpt lat="59.163707" lon="18.155137">
        <ele>56</ele>
        <time>2019-08-23T08:30:33Z</time>
      </trkpt>
      <trkpt lat="59.163715" lon="18.155098">
        <ele>57</ele>
        <time>2019-08-23T08:31:05Z</time>
      </trkpt>
      <trkpt lat="59.163726" lon="18.155062">
        <ele>56</ele>
        <time>2019-08-23T08:31:10Z</time>
      </trkpt>
      <trkpt lat="59.163721" lon="18.155028">
        <ele>56</ele>
        <time>2019-08-23T08:31:15Z</time>
      </trkpt>
      <trkpt lat="59.163716" lon="18.15499">
        <ele>57</ele>
        <time>2019-08-23T08:31:30Z</time>
      </trkpt>
      <trkpt lat="59.16373" lon="18.154946">
        <ele>57</ele>
        <time>2019-08-23T08:31:34Z</time>
      </trkpt>
      <trkpt lat="59.163736" lon="18.154907">
        <ele>57</ele>
        <time>2019-08-23T08:31:35Z</time>
      </trkpt>
      <trkpt lat="59.163743" lon="18.154871">
        <ele>57</ele>
        <time>2019-08-23T08:31:37Z</time>
      </trkpt>
      <trkpt lat="59.163753" lon="18.15484">
        <ele>57</ele>
        <time>2019-08-23T08:31:39Z</time>
      </trkpt>
      <trkpt lat="59.16378" lon="18.154857">
        <ele>57</ele>
        <time>2019-08-23T08:31:43Z</time>
      </trkpt>
      <trkpt lat="59.163796" lon="18.154894">
        <ele>57</ele>
        <time>2019-08-23T08:31:43Z</time>
      </trkpt>
      <trkpt lat="59.163813" lon="18.154941">
        <ele>57</ele>
        <time>2019-08-23T08:31:45Z</time>
      </trkpt>
      <trkpt lat="59.16383" lon="18.154996">
        <ele>57</ele>
        <time>2019-08-23T08:31:46Z</time>
      </trkpt>
      <trkpt lat="59.163846" lon="18.15506">
        <ele>57</ele>
        <time>2019-08-23T08:31:47Z</time>
      </trkpt>
      <trkpt lat="59.163858" lon="18.155124">
        <ele>57</ele>
        <time>2019-08-23T08:31:47Z</time>
      </trkpt>
      <trkpt lat="59.163869" lon="18.155186">
        <ele>57</ele>
        <time>2019-08-23T08:31:48Z</time>
      </trkpt>
      <trkpt lat="59.163877" lon="18.155251">
        <ele>57</ele>
        <time>2019-08-23T08:31:49Z</time>
      </trkpt>
      <trkpt lat="59.163881" lon="18.155318">
        <ele>57</ele>
        <time>2019-08-23T08:31:50Z</time>
      </trkpt>
      <trkpt lat="59.163883" lon="18.155382">
        <ele>57</ele>
        <time>2019-08-23T08:31:51Z</time>
      </trkpt>
      <trkpt lat="59.16388" lon="18.155449">
        <ele>57</ele>
        <time>2019-08-23T08:31:52Z</time>
      </trkpt>
      <trkpt lat="59.163873" lon="18.155512">
        <ele>57</ele>
        <time>2019-08-23T08:31:54Z</time>
      </trkpt>
      <trkpt lat="59.163862" lon="18.155576">
        <ele>57</ele>
        <time>2019-08-23T08:31:54Z</time>
      </trkpt>
      <trkpt lat="59.163849" lon="18.155639">
        <ele>57</ele>
        <time>2019-08-23T08:31:55Z</time>
      </trkpt>
      <trkpt lat="59.163832" lon="18.155699">
        <ele>57</ele>
        <time>2019-08-23T08:31:57Z</time>
      </trkpt>
      <trkpt lat="59.163813" lon="18.155749">
        <ele>57</ele>
        <time>2019-08-23T08:31:58Z</time>
      </trkpt>
      <trkpt lat="59.163788" lon="18.155795">
        <ele>57</ele>
        <time>2019-08-23T08:31:58Z</time>
      </trkpt>
      <trkpt lat="59.163762" lon="18.155835">
        <ele>56</ele>
        <time>2019-08-23T08:31:59Z</time>
      </trkpt>
      <trkpt lat="59.163735" lon="18.155868">
        <ele>56</ele>
        <time>2019-08-23T08:32:00Z</time>
      </trkpt>
      <trkpt lat="59.163705" lon="18.155907">
        <ele>56</ele>
        <time>2019-08-23T08:32:02Z</time>
      </trkpt>
      <trkpt lat="59.163673" lon="18.155944">
        <ele>56</ele>
        <time>2019-08-23T08:32:02Z</time>
      </trkpt>
      <trkpt lat="59.163638" lon="18.155964">
        <ele>56</ele>
        <time>2019-08-23T08:32:04Z</time>
      </trkpt>
      <trkpt lat="59.163603" lon="18.155974">
        <ele>56</ele>
        <time>2019-08-23T08:32:04Z</time>
      </trkpt>
      <trkpt lat="59.163567" lon="18.155978">
        <ele>56</ele>
        <time>2019-08-23T08:32:05Z</time>
      </trkpt>
      <trkpt lat="59.16353" lon="18.15598">
        <ele>56</ele>
        <time>2019-08-23T08:32:06Z</time>
      </trkpt>
      <trkpt lat="59.163493" lon="18.155978">
        <ele>56</ele>
        <time>2019-08-23T08:32:07Z</time>
      </trkpt>
      <trkpt lat="59.163458" lon="18.155968">
        <ele>56</ele>
        <time>2019-08-23T08:32:08Z</time>
      </trkpt>
      <trkpt lat="59.163421" lon="18.15595">
        <ele>56</ele>
        <time>2019-08-23T08:32:09Z</time>
      </trkpt>
      <trkpt lat="59.163388" lon="18.155928">
        <ele>56</ele>
        <time>2019-08-23T08:32:11Z</time>
      </trkpt>
      <trkpt lat="59.163353" lon="18.155902">
        <ele>56</ele>
        <time>2019-08-23T08:32:12Z</time>
      </trkpt>
      <trkpt lat="59.163317" lon="18.155876">
        <ele>56</ele>
        <time>2019-08-23T08:32:12Z</time>
      </trkpt>
      <trkpt lat="59.163284" lon="18.155852">
        <ele>56</ele>
        <time>2019-08-23T08:32:13Z</time>
      </trkpt>
      <trkpt lat="59.16325" lon="18.155826">
        <ele>56</ele>
        <time>2019-08-23T08:32:14Z</time>
      </trkpt>
      <trkpt lat="59.163216" lon="18.155802">
        <ele>56</ele>
        <time>2019-08-23T08:32:15Z</time>
      </trkpt>
      <trkpt lat="59.163178" lon="18.155786">
        <ele>56</ele>
        <time>2019-08-23T08:32:16Z</time>
      </trkpt>
      <trkpt lat="59.163143" lon="18.15577">
        <ele>56</ele>
        <time>2019-08-23T08:32:17Z</time>
      </trkpt>
      <trkpt lat="59.163103" lon="18.155758">
        <ele>56</ele>
        <time>2019-08-23T08:32:19Z</time>
      </trkpt>
      <trkpt lat="59.163067" lon="18.15574">
        <ele>56</ele>
        <time>2019-08-23T08:32:19Z</time>
      </trkpt>
      <trkpt lat="59.163032" lon="18.155718">
        <ele>56</ele>
        <time>2019-08-23T08:32:21Z</time>
      </trkpt>
      <trkpt lat="59.162996" lon="18.155696">
        <ele>56</ele>
        <time>2019-08-23T08:32:21Z</time>
      </trkpt>
      <trkpt lat="59.162958" lon="18.155676">
        <ele>57</ele>
        <time>2019-08-23T08:32:23Z</time>
      </trkpt>
      <trkpt lat="59.162918" lon="18.15566">
        <ele>57</ele>
        <time>2019-08-23T08:32:24Z</time>
      </trkpt>
      <trkpt lat="59.162878" lon="18.155644">
        <ele>57</ele>
        <time>2019-08-23T08:32:24Z</time>
      </trkpt>
      <trkpt lat="59.162841" lon="18.155626">
        <ele>57</ele>
        <time>2019-08-23T08:32:25Z</time>
      </trkpt>
      <trkpt lat="59.162803" lon="18.155606">
        <ele>57</ele>
        <time>2019-08-23T08:32:26Z</time>
      </trkpt>
      <trkpt lat="59.162766" lon="18.155582">
        <ele>57</ele>
        <time>2019-08-23T08:32:27Z</time>
      </trkpt>
      <trkpt lat="59.162732" lon="18.15556">
        <ele>57</ele>
        <time>2019-08-23T08:32:28Z</time>
      </trkpt>
      <trkpt lat="59.162698" lon="18.155534">
        <ele>57</ele>
        <time>2019-08-23T08:32:29Z</time>
      </trkpt>
      <trkpt lat="59.162666" lon="18.155502">
        <ele>57</ele>
        <time>2019-08-23T08:32:30Z</time>
      </trkpt>
      <trkpt lat="59.162635" lon="18.155472">
        <ele>58</ele>
        <time>2019-08-23T08:32:32Z</time>
      </trkpt>
      <trkpt lat="59.162604" lon="18.155434">
        <ele>58</ele>
        <time>2019-08-23T08:32:32Z</time>
      </trkpt>
      <trkpt lat="59.162575" lon="18.15539">
        <ele>58</ele>
        <time>2019-08-23T08:32:33Z</time>
      </trkpt>
      <trkpt lat="59.162547" lon="18.15534">
        <ele>58</ele>
        <time>2019-08-23T08:32:35Z</time>
      </trkpt>
      <trkpt lat="59.162523" lon="18.155288">
        <ele>58</ele>
        <time>2019-08-23T08:32:35Z</time>
      </trkpt>
      <trkpt lat="59.1625" lon="18.155232">
        <ele>58</ele>
        <time>2019-08-23T08:32:36Z</time>
      </trkpt>
      <trkpt lat="59.162479" lon="18.15517">
        <ele>58</ele>
        <time>2019-08-23T08:32:37Z</time>
      </trkpt>
      <trkpt lat="59.162462" lon="18.155102">
        <ele>58</ele>
        <time>2019-08-23T08:32:39Z</time>
      </trkpt>
      <trkpt lat="59.162454" lon="18.155026">
        <ele>58</ele>
        <time>2019-08-23T08:32:40Z</time>
      </trkpt>
      <trkpt lat="59.16245" lon="18.154952">
        <ele>58</ele>
        <time>2019-08-23T08:32:40Z</time>
      </trkpt>
      <trkpt lat="59.162451" lon="18.154874">
        <ele>58</ele>
        <time>2019-08-23T08:32:42Z</time>
      </trkpt>
      <trkpt lat="59.162459" lon="18.154786">
        <ele>58</ele>
        <time>2019-08-23T08:32:42Z</time>
      </trkpt>
      <trkpt lat="59.162466" lon="18.154704">
        <ele>58</ele>
        <time>2019-08-23T08:32:43Z</time>
      </trkpt>
      <trkpt lat="59.162479" lon="18.154626">
        <ele>58</ele>
        <time>2019-08-23T08:32:44Z</time>
      </trkpt>
      <trkpt lat="59.162491" lon="18.154552">
        <ele>58</ele>
        <time>2019-08-23T08:32:45Z</time>
      </trkpt>
      <trkpt lat="59.162508" lon="18.154488">
        <ele>58</ele>
        <time>2019-08-23T08:32:46Z</time>
      </trkpt>
      <trkpt lat="59.162528" lon="18.154426">
        <ele>58</ele>
        <time>2019-08-23T08:32:47Z</time>
      </trkpt>
      <trkpt lat="59.162552" lon="18.154368">
        <ele>58</ele>
        <time>2019-08-23T08:32:48Z</time>
      </trkpt>
      <trkpt lat="59.162581" lon="18.15431">
        <ele>58</ele>
        <time>2019-08-23T08:32:50Z</time>
      </trkpt>
      <trkpt lat="59.16261" lon="18.15426">
        <ele>58</ele>
        <time>2019-08-23T08:32:51Z</time>
      </trkpt>
      <trkpt lat="59.162643" lon="18.154216">
        <ele>58</ele>
        <time>2019-08-23T08:32:51Z</time>
      </trkpt>
      <trkpt lat="59.162675" lon="18.154184">
        <ele>58</ele>
        <time>2019-08-23T08:32:52Z</time>
      </trkpt>
      <trkpt lat="59.162709" lon="18.154156">
        <ele>58</ele>
        <time>2019-08-23T08:32:53Z</time>
      </trkpt>
      <trkpt lat="59.162742" lon="18.154136">
        <ele>58</ele>
        <time>2019-08-23T08:32:54Z</time>
      </trkpt>
      <trkpt lat="59.162778" lon="18.154128">
        <ele>58</ele>
        <time>2019-08-23T08:32:56Z</time>
      </trkpt>
      <trkpt lat="59.162815" lon="18.154128">
        <ele>58</ele>
        <time>2019-08-23T08:32:56Z</time>
      </trkpt>
      <trkpt lat="59.162855" lon="18.154144">
        <ele>58</ele>
        <time>2019-08-23T08:32:57Z</time>
      </trkpt>
      <trkpt lat="59.162893" lon="18.154168">
        <ele>58</ele>
        <time>2019-08-23T08:32:59Z</time>
      </trkpt>
      <trkpt lat="59.16293" lon="18.154188">
        <ele>58</ele>
        <time>2019-08-23T08:32:59Z</time>
      </trkpt>
      <trkpt lat="59.162965" lon="18.154216">
        <ele>57</ele>
        <time>2019-08-23T08:33:00Z</time>
      </trkpt>
      <trkpt lat="59.162999" lon="18.154244">
        <ele>57</ele>
        <time>2019-08-23T08:33:01Z</time>
      </trkpt>
      <trkpt lat="59.163033" lon="18.154264">
        <ele>57</ele>
        <time>2019-08-23T08:33:02Z</time>
      </trkpt>
      <trkpt lat="59.163065" lon="18.154284">
        <ele>57</ele>
        <time>2019-08-23T08:33:04Z</time>
      </trkpt>
      <trkpt lat="59.163099" lon="18.154311">
        <ele>57</ele>
        <time>2019-08-23T08:33:04Z</time>
      </trkpt>
      <trkpt lat="59.163132" lon="18.15433">
        <ele>57</ele>
        <time>2019-08-23T08:33:05Z</time>
      </trkpt>
      <trkpt lat="59.163166" lon="18.154352">
        <ele>57</ele>
        <time>2019-08-23T08:33:07Z</time>
      </trkpt>
      <trkpt lat="59.163199" lon="18.154369">
        <ele>57</ele>
        <time>2019-08-23T08:33:07Z</time>
      </trkpt>
      <trkpt lat="59.163232" lon="18.154386">
        <ele>57</ele>
        <time>2019-08-23T08:33:08Z</time>
      </trkpt>
      <trkpt lat="59.163262" lon="18.154406">
        <ele>57</ele>
        <time>2019-08-23T08:33:10Z</time>
      </trkpt>
      <trkpt lat="59.163294" lon="18.154427">
        <ele>57</ele>
        <time>2019-08-23T08:33:10Z</time>
      </trkpt>
      <trkpt lat="59.163326" lon="18.154455">
        <ele>57</ele>
        <time>2019-08-23T08:33:11Z</time>
      </trkpt>
      <trkpt lat="59.163358" lon="18.154484">
        <ele>57</ele>
        <time>2019-08-23T08:33:12Z</time>
      </trkpt>
      <trkpt lat="59.163389" lon="18.154503">
        <ele>57</ele>
        <time>2019-08-23T08:33:13Z</time>
      </trkpt>
      <trkpt lat="59.16342" lon="18.154525">
        <ele>57</ele>
        <time>2019-08-23T08:33:15Z</time>
      </trkpt>
      <trkpt lat="59.163452" lon="18.154545">
        <ele>57</ele>
        <time>2019-08-23T08:33:15Z</time>
      </trkpt>
      <trkpt lat="59.163483" lon="18.154566">
        <ele>57</ele>
        <time>2019-08-23T08:33:16Z</time>
      </trkpt>
      <trkpt lat="59.163514" lon="18.154587">
        <ele>56</ele>
        <time>2019-08-23T08:33:18Z</time>
      </trkpt>
      <trkpt lat="59.163545" lon="18.154609">
        <ele>56</ele>
        <time>2019-08-23T08:33:19Z</time>
      </trkpt>
      <trkpt lat="59.163574" lon="18.15463">
        <ele>56</ele>
        <time>2019-08-23T08:33:19Z</time>
      </trkpt>
      <trkpt lat="59.163606" lon="18.154654">
        <ele>56</ele>
        <time>2019-08-23T08:33:20Z</time>
      </trkpt>
      <trkpt lat="59.163638" lon="18.154677">
        <ele>56</ele>
        <time>2019-08-23T08:33:21Z</time>
      </trkpt>
      <trkpt lat="59.163668" lon="18.154697">
        <ele>56</ele>
        <time>2019-08-23T08:33:22Z</time>
      </trkpt>
      <trkpt lat="59.163698" lon="18.15472">
        <ele>56</ele>
        <time>2019-08-23T08:33:23Z</time>
      </trkpt>
      <trkpt lat="59.163728" lon="18.154749">
        <ele>56</ele>
        <time>2019-08-23T08:33:24Z</time>
      </trkpt>
      <trkpt lat="59.163756" lon="18.154784">
        <ele>56</ele>
        <time>2019-08-23T08:33:25Z</time>
      </trkpt>
      <trkpt lat="59.163781" lon="18.154824">
        <ele>57</ele>
        <time>2019-08-23T08:33:27Z</time>
      </trkpt>
      <trkpt lat="59.163803" lon="18.154871">
        <ele>57</ele>
        <time>2019-08-23T08:33:27Z</time>
      </trkpt>
      <trkpt lat="59.163825" lon="18.154922">
        <ele>57</ele>
        <time>2019-08-23T08:33:28Z</time>
      </trkpt>
      <trkpt lat="59.163843" lon="18.154975">
        <ele>57</ele>
        <time>2019-08-23T08:33:30Z</time>
      </trkpt>
      <trkpt lat="59.163857" lon="18.155027">
        <ele>57</ele>
        <time>2019-08-23T08:33:30Z</time>
      </trkpt>
      <trkpt lat="59.163869" lon="18.15509">
        <ele>57</ele>
        <time>2019-08-23T08:33:31Z</time>
      </trkpt>
      <trkpt lat="59.163878" lon="18.155155">
        <ele>57</ele>
        <time>2019-08-23T08:33:32Z</time>
      </trkpt>
      <trkpt lat="59.163885" lon="18.15522">
        <ele>57</ele>
        <time>2019-08-23T08:33:34Z</time>
      </trkpt>
      <trkpt lat="59.163884" lon="18.15529">
        <ele>57</ele>
        <time>2019-08-23T08:33:34Z</time>
      </trkpt>
      <trkpt lat="59.163886" lon="18.155357">
        <ele>57</ele>
        <time>2019-08-23T08:33:35Z</time>
      </trkpt>
      <trkpt lat="59.16388" lon="18.155419">
        <ele>57</ele>
        <time>2019-08-23T08:33:37Z</time>
      </trkpt>
      <trkpt lat="59.163873" lon="18.155482">
        <ele>57</ele>
        <time>2019-08-23T08:33:37Z</time>
      </trkpt>
      <trkpt lat="59.16385" lon="18.155606">
        <ele>57</ele>
        <time>2019-08-23T08:33:39Z</time>
      </trkpt>
      <trkpt lat="59.163833" lon="18.155664">
        <ele>57</ele>
        <time>2019-08-23T08:33:40Z</time>
      </trkpt>
      <trkpt lat="59.163814" lon="18.155721">
        <ele>57</ele>
        <time>2019-08-23T08:33:41Z</time>
      </trkpt>
      <trkpt lat="59.163794" lon="18.155772">
        <ele>57</ele>
        <time>2019-08-23T08:33:42Z</time>
      </trkpt>
      <trkpt lat="59.163771" lon="18.155821">
        <ele>57</ele>
        <time>2019-08-23T08:33:43Z</time>
      </trkpt>
      <trkpt lat="59.163744" lon="18.155862">
        <ele>57</ele>
        <time>2019-08-23T08:33:44Z</time>
      </trkpt>
      <trkpt lat="59.163715" lon="18.155901">
        <ele>57</ele>
        <time>2019-08-23T08:33:45Z</time>
      </trkpt>
      <trkpt lat="59.163684" lon="18.155937">
        <ele>57</ele>
        <time>2019-08-23T08:33:46Z</time>
      </trkpt>
      <trkpt lat="59.16365" lon="18.155961">
        <ele>57</ele>
        <time>2019-08-23T08:33:48Z</time>
      </trkpt>
      <trkpt lat="59.163619" lon="18.155976">
        <ele>57</ele>
        <time>2019-08-23T08:33:48Z</time>
      </trkpt>
      <trkpt lat="59.16359" lon="18.155989">
        <ele>57</ele>
        <time>2019-08-23T08:33:49Z</time>
      </trkpt>
      <trkpt lat="59.163557" lon="18.155997">
        <ele>57</ele>
        <time>2019-08-23T08:33:50Z</time>
      </trkpt>
      <trkpt lat="59.163524" lon="18.155996">
        <ele>57</ele>
        <time>2019-08-23T08:33:51Z</time>
      </trkpt>
      <trkpt lat="59.163488" lon="18.155998">
        <ele>57</ele>
        <time>2019-08-23T08:33:53Z</time>
      </trkpt>
      <trkpt lat="59.163454" lon="18.155989">
        <ele>57</ele>
        <time>2019-08-23T08:33:53Z</time>
      </trkpt>
      <trkpt lat="59.16342" lon="18.155975">
        <ele>57</ele>
        <time>2019-08-23T08:33:54Z</time>
      </trkpt>
      <trkpt lat="59.163387" lon="18.155955">
        <ele>57</ele>
        <time>2019-08-23T08:33:56Z</time>
      </trkpt>
      <trkpt lat="59.163354" lon="18.155932">
        <ele>57</ele>
        <time>2019-08-23T08:33:56Z</time>
      </trkpt>
      <trkpt lat="59.163322" lon="18.155907">
        <ele>57</ele>
        <time>2019-08-23T08:33:57Z</time>
      </trkpt>
      <trkpt lat="59.163292" lon="18.155879">
        <ele>57</ele>
        <time>2019-08-23T08:33:58Z</time>
      </trkpt>
      <trkpt lat="59.163261" lon="18.155856">
        <ele>57</ele>
        <time>2019-08-23T08:33:59Z</time>
      </trkpt>
      <trkpt lat="59.16323" lon="18.155832">
        <ele>57</ele>
        <time>2019-08-23T08:34:01Z</time>
      </trkpt>
      <trkpt lat="59.163198" lon="18.155811">
        <ele>57</ele>
        <time>2019-08-23T08:34:01Z</time>
      </trkpt>
      <trkpt lat="59.163166" lon="18.155792">
        <ele>57</ele>
        <time>2019-08-23T08:34:03Z</time>
      </trkpt>
      <trkpt lat="59.163136" lon="18.155773">
        <ele>57</ele>
        <time>2019-08-23T08:34:03Z</time>
      </trkpt>
      <trkpt lat="59.163102" lon="18.155757">
        <ele>57</ele>
        <time>2019-08-23T08:34:04Z</time>
      </trkpt>
      <trkpt lat="59.163071" lon="18.155736">
        <ele>57</ele>
        <time>2019-08-23T08:34:05Z</time>
      </trkpt>
      <trkpt lat="59.16304" lon="18.155715">
        <ele>57</ele>
        <time>2019-08-23T08:34:06Z</time>
      </trkpt>
      <trkpt lat="59.16301" lon="18.155694">
        <ele>57</ele>
        <time>2019-08-23T08:34:07Z</time>
      </trkpt>
      <trkpt lat="59.162977" lon="18.155682">
        <ele>57</ele>
        <time>2019-08-23T08:34:08Z</time>
      </trkpt>
      <trkpt lat="59.162943" lon="18.155675">
        <ele>57</ele>
        <time>2019-08-23T08:34:09Z</time>
      </trkpt>
      <trkpt lat="59.16291" lon="18.155664">
        <ele>57</ele>
        <time>2019-08-23T08:34:10Z</time>
      </trkpt>
      <trkpt lat="59.162878" lon="18.155648">
        <ele>57</ele>
        <time>2019-08-23T08:34:12Z</time>
      </trkpt>
      <trkpt lat="59.162842" lon="18.155633">
        <ele>58</ele>
        <time>2019-08-23T08:34:12Z</time>
      </trkpt>
      <trkpt lat="59.16281" lon="18.155617">
        <ele>58</ele>
        <time>2019-08-23T08:34:13Z</time>
      </trkpt>
      <trkpt lat="59.162776" lon="18.155602">
        <ele>58</ele>
        <time>2019-08-23T08:34:15Z</time>
      </trkpt>
      <trkpt lat="59.162743" lon="18.155581">
        <ele>58</ele>
        <time>2019-08-23T08:34:15Z</time>
      </trkpt>
      <trkpt lat="59.162711" lon="18.155553">
        <ele>58</ele>
        <time>2019-08-23T08:34:16Z</time>
      </trkpt>
      <trkpt lat="59.162679" lon="18.155525">
        <ele>58</ele>
        <time>2019-08-23T08:34:18Z</time>
      </trkpt>
      <trkpt lat="59.16265" lon="18.155491">
        <ele>58</ele>
        <time>2019-08-23T08:34:18Z</time>
      </trkpt>
      <trkpt lat="59.162622" lon="18.155454">
        <ele>58</ele>
        <time>2019-08-23T08:34:19Z</time>
      </trkpt>
      <trkpt lat="59.162592" lon="18.155422">
        <ele>58</ele>
        <time>2019-08-23T08:34:20Z</time>
      </trkpt>
      <trkpt lat="59.162566" lon="18.155377">
        <ele>58</ele>
        <time>2019-08-23T08:34:21Z</time>
      </trkpt>
      <trkpt lat="59.162539" lon="18.155331">
        <ele>58</ele>
        <time>2019-08-23T08:34:22Z</time>
      </trkpt>
      <trkpt lat="59.162514" lon="18.155284">
        <ele>58</ele>
        <time>2019-08-23T08:34:23Z</time>
      </trkpt>
      <trkpt lat="59.162494" lon="18.155231">
        <ele>58</ele>
        <time>2019-08-23T08:34:24Z</time>
      </trkpt>
      <trkpt lat="59.162474" lon="18.15518">
        <ele>58</ele>
        <time>2019-08-23T08:34:26Z</time>
      </trkpt>
      <trkpt lat="59.16246" lon="18.155123">
        <ele>58</ele>
        <time>2019-08-23T08:34:26Z</time>
      </trkpt>
      <trkpt lat="59.162447" lon="18.155059">
        <ele>58</ele>
        <time>2019-08-23T08:34:27Z</time>
      </trkpt>
      <trkpt lat="59.162439" lon="18.154987">
        <ele>58</ele>
        <time>2019-08-23T08:34:28Z</time>
      </trkpt>
      <trkpt lat="59.162434" lon="18.15492">
        <ele>58</ele>
        <time>2019-08-23T08:34:29Z</time>
      </trkpt>
      <trkpt lat="59.162432" lon="18.154836">
        <ele>58</ele>
        <time>2019-08-23T08:34:30Z</time>
      </trkpt>
      <trkpt lat="59.162438" lon="18.154757">
        <ele>58</ele>
        <time>2019-08-23T08:34:32Z</time>
      </trkpt>
      <trkpt lat="59.162446" lon="18.154684">
        <ele>58</ele>
        <time>2019-08-23T08:34:32Z</time>
      </trkpt>
      <trkpt lat="59.162458" lon="18.154615">
        <ele>58</ele>
        <time>2019-08-23T08:34:34Z</time>
      </trkpt>
      <trkpt lat="59.162476" lon="18.154549">
        <ele>58</ele>
        <time>2019-08-23T08:34:34Z</time>
      </trkpt>
      <trkpt lat="59.162498" lon="18.154484">
        <ele>58</ele>
        <time>2019-08-23T08:34:36Z</time>
      </trkpt>
      <trkpt lat="59.162524" lon="18.154421">
        <ele>58</ele>
        <time>2019-08-23T08:34:36Z</time>
      </trkpt>
      <trkpt lat="59.162548" lon="18.154364">
        <ele>58</ele>
        <time>2019-08-23T08:34:37Z</time>
      </trkpt>
      <trkpt lat="59.162576" lon="18.154309">
        <ele>58</ele>
        <time>2019-08-23T08:34:38Z</time>
      </trkpt>
      <trkpt lat="59.162606" lon="18.154259">
        <ele>58</ele>
        <time>2019-08-23T08:34:39Z</time>
      </trkpt>
      <trkpt lat="59.162639" lon="18.154219">
        <ele>58</ele>
        <time>2019-08-23T08:34:40Z</time>
      </trkpt>
      <trkpt lat="59.162672" lon="18.15418">
        <ele>58</ele>
        <time>2019-08-23T08:34:41Z</time>
      </trkpt>
      <trkpt lat="59.162705" lon="18.154153">
        <ele>58</ele>
        <time>2019-08-23T08:34:42Z</time>
      </trkpt>
      <trkpt lat="59.162738" lon="18.154131">
        <ele>58</ele>
        <time>2019-08-23T08:34:44Z</time>
      </trkpt>
      <trkpt lat="59.162772" lon="18.154116">
        <ele>58</ele>
        <time>2019-08-23T08:34:45Z</time>
      </trkpt>
      <trkpt lat="59.162808" lon="18.154115">
        <ele>58</ele>
        <time>2019-08-23T08:34:45Z</time>
      </trkpt>
      <trkpt lat="59.162845" lon="18.154116">
        <ele>58</ele>
        <time>2019-08-23T08:34:46Z</time>
      </trkpt>
      <trkpt lat="59.162882" lon="18.154129">
        <ele>58</ele>
        <time>2019-08-23T08:34:47Z</time>
      </trkpt>
      <trkpt lat="59.162919" lon="18.154151">
        <ele>58</ele>
        <time>2019-08-23T08:34:48Z</time>
      </trkpt>
      <trkpt lat="59.162956" lon="18.154175">
        <ele>58</ele>
        <time>2019-08-23T08:34:49Z</time>
      </trkpt>
      <trkpt lat="59.162992" lon="18.154198">
        <ele>58</ele>
        <time>2019-08-23T08:34:50Z</time>
      </trkpt>
      <trkpt lat="59.163024" lon="18.154226">
        <ele>58</ele>
        <time>2019-08-23T08:34:51Z</time>
      </trkpt>
      <trkpt lat="59.16306" lon="18.154256">
        <ele>58</ele>
        <time>2019-08-23T08:34:53Z</time>
      </trkpt>
      <trkpt lat="59.163092" lon="18.154277">
        <ele>57</ele>
        <time>2019-08-23T08:34:53Z</time>
      </trkpt>
      <trkpt lat="59.163124" lon="18.154304">
        <ele>57</ele>
        <time>2019-08-23T08:34:54Z</time>
      </trkpt>
      <trkpt lat="59.163154" lon="18.154325">
        <ele>57</ele>
        <time>2019-08-23T08:34:55Z</time>
      </trkpt>
      <trkpt lat="59.163186" lon="18.154352">
        <ele>57</ele>
        <time>2019-08-23T08:34:56Z</time>
      </trkpt>
      <trkpt lat="59.163216" lon="18.154371">
        <ele>57</ele>
        <time>2019-08-23T08:34:57Z</time>
      </trkpt>
      <trkpt lat="59.16325" lon="18.154391">
        <ele>57</ele>
        <time>2019-08-23T08:34:58Z</time>
      </trkpt>
      <trkpt lat="59.163282" lon="18.154412">
        <ele>57</ele>
        <time>2019-08-23T08:35:00Z</time>
      </trkpt>
      <trkpt lat="59.163314" lon="18.154437">
        <ele>57</ele>
        <time>2019-08-23T08:35:00Z</time>
      </trkpt>
      <trkpt lat="59.163344" lon="18.154458">
        <ele>57</ele>
        <time>2019-08-23T08:35:01Z</time>
      </trkpt>
      <trkpt lat="59.163375" lon="18.154476">
        <ele>57</ele>
        <time>2019-08-23T08:35:03Z</time>
      </trkpt>
      <trkpt lat="59.163405" lon="18.154495">
        <ele>57</ele>
        <time>2019-08-23T08:35:03Z</time>
      </trkpt>
      <trkpt lat="59.163436" lon="18.154517">
        <ele>57</ele>
        <time>2019-08-23T08:35:04Z</time>
      </trkpt>
      <trkpt lat="59.163468" lon="18.154539">
        <ele>57</ele>
        <time>2019-08-23T08:35:05Z</time>
      </trkpt>
      <trkpt lat="59.163499" lon="18.154555">
        <ele>57</ele>
        <time>2019-08-23T08:35:06Z</time>
      </trkpt>
      <trkpt lat="59.16353" lon="18.154575">
        <ele>57</ele>
        <time>2019-08-23T08:35:07Z</time>
      </trkpt>
      <trkpt lat="59.16356" lon="18.154592">
        <ele>57</ele>
        <time>2019-08-23T08:35:08Z</time>
      </trkpt>
      <trkpt lat="59.16359" lon="18.154612">
        <ele>57</ele>
        <time>2019-08-23T08:35:09Z</time>
      </trkpt>
      <trkpt lat="59.163622" lon="18.154632">
        <ele>57</ele>
        <time>2019-08-23T08:35:11Z</time>
      </trkpt>
      <trkpt lat="59.163651" lon="18.154654">
        <ele>57</ele>
        <time>2019-08-23T08:35:12Z</time>
      </trkpt>
      <trkpt lat="59.163681" lon="18.154677">
        <ele>57</ele>
        <time>2019-08-23T08:35:12Z</time>
      </trkpt>
      <trkpt lat="59.163708" lon="18.154705">
        <ele>57</ele>
        <time>2019-08-23T08:35:14Z</time>
      </trkpt>
      <trkpt lat="59.163735" lon="18.154736">
        <ele>57</ele>
        <time>2019-08-23T08:35:14Z</time>
      </trkpt>
      <trkpt lat="59.163763" lon="18.154775">
        <ele>57</ele>
        <time>2019-08-23T08:35:15Z</time>
      </trkpt>
      <trkpt lat="59.163791" lon="18.154823">
        <ele>57</ele>
        <time>2019-08-23T08:35:17Z</time>
      </trkpt>
      <trkpt lat="59.163815" lon="18.154875">
        <ele>57</ele>
        <time>2019-08-23T08:35:17Z</time>
      </trkpt>
      <trkpt lat="59.163837" lon="18.154926">
        <ele>57</ele>
        <time>2019-08-23T08:35:18Z</time>
      </trkpt>
      <trkpt lat="59.163856" lon="18.15498">
        <ele>57</ele>
        <time>2019-08-23T08:35:20Z</time>
      </trkpt>
      <trkpt lat="59.163874" lon="18.15504">
        <ele>57</ele>
        <time>2019-08-23T08:35:20Z</time>
      </trkpt>
      <trkpt lat="59.163889" lon="18.155101">
        <ele>57</ele>
        <time>2019-08-23T08:35:21Z</time>
      </trkpt>
      <trkpt lat="59.163902" lon="18.155166">
        <ele>57</ele>
        <time>2019-08-23T08:35:22Z</time>
      </trkpt>
      <trkpt lat="59.163909" lon="18.155235">
        <ele>57</ele>
        <time>2019-08-23T08:35:23Z</time>
      </trkpt>
      <trkpt lat="59.163906" lon="18.155311">
        <ele>57</ele>
        <time>2019-08-23T08:35:25Z</time>
      </trkpt>
      <trkpt lat="59.163904" lon="18.155377">
        <ele>57</ele>
        <time>2019-08-23T08:35:25Z</time>
      </trkpt>
      <trkpt lat="59.163896" lon="18.155444">
        <ele>57</ele>
        <time>2019-08-23T08:35:26Z</time>
      </trkpt>
      <trkpt lat="59.163883" lon="18.155507">
        <ele>57</ele>
        <time>2019-08-23T08:35:28Z</time>
      </trkpt>
      <trkpt lat="59.163868" lon="18.155575">
        <ele>57</ele>
        <time>2019-08-23T08:35:29Z</time>
      </trkpt>
      <trkpt lat="59.163854" lon="18.155634">
        <ele>57</ele>
        <time>2019-08-23T08:35:29Z</time>
      </trkpt>
      <trkpt lat="59.163831" lon="18.155694">
        <ele>57</ele>
        <time>2019-08-23T08:35:31Z</time>
      </trkpt>
      <trkpt lat="59.163811" lon="18.155747">
        <ele>57</ele>
        <time>2019-08-23T08:35:31Z</time>
      </trkpt>
      <trkpt lat="59.163791" lon="18.155795">
        <ele>57</ele>
        <time>2019-08-23T08:35:33Z</time>
      </trkpt>
      <trkpt lat="59.163764" lon="18.15584">
        <ele>57</ele>
        <time>2019-08-23T08:35:33Z</time>
      </trkpt>
      <trkpt lat="59.163737" lon="18.155884">
        <ele>57</ele>
        <time>2019-08-23T08:35:34Z</time>
      </trkpt>
      <trkpt lat="59.163706" lon="18.155919">
        <ele>57</ele>
        <time>2019-08-23T08:35:35Z</time>
      </trkpt>
      <trkpt lat="59.163674" lon="18.15595">
        <ele>57</ele>
        <time>2019-08-23T08:35:36Z</time>
      </trkpt>
      <trkpt lat="59.163643" lon="18.155976">
        <ele>57</ele>
        <time>2019-08-23T08:35:37Z</time>
      </trkpt>
      <trkpt lat="59.163615" lon="18.155992">
        <ele>57</ele>
        <time>2019-08-23T08:35:38Z</time>
      </trkpt>
      <trkpt lat="59.163581" lon="18.156001">
        <ele>56</ele>
        <time>2019-08-23T08:35:39Z</time>
      </trkpt>
      <trkpt lat="59.163543" lon="18.155997">
        <ele>56</ele>
        <time>2019-08-23T08:35:41Z</time>
      </trkpt>
      <trkpt lat="59.163506" lon="18.155986">
        <ele>56</ele>
        <time>2019-08-23T08:35:42Z</time>
      </trkpt>
      <trkpt lat="59.163468" lon="18.155976">
        <ele>56</ele>
        <time>2019-08-23T08:35:42Z</time>
      </trkpt>
      <trkpt lat="59.163432" lon="18.15596">
        <ele>56</ele>
        <time>2019-08-23T08:35:43Z</time>
      </trkpt>
      <trkpt lat="59.163397" lon="18.155941">
        <ele>56</ele>
        <time>2019-08-23T08:35:44Z</time>
      </trkpt>
      <trkpt lat="59.163362" lon="18.155919">
        <ele>56</ele>
        <time>2019-08-23T08:35:45Z</time>
      </trkpt>
      <trkpt lat="59.163332" lon="18.155894">
        <ele>56</ele>
        <time>2019-08-23T08:35:46Z</time>
      </trkpt>
      <trkpt lat="59.1633" lon="18.155867">
        <ele>56</ele>
        <time>2019-08-23T08:35:47Z</time>
      </trkpt>
      <trkpt lat="59.163269" lon="18.155846">
        <ele>56</ele>
        <time>2019-08-23T08:35:48Z</time>
      </trkpt>
      <trkpt lat="59.163234" lon="18.155826">
        <ele>56</ele>
        <time>2019-08-23T08:35:50Z</time>
      </trkpt>
      <trkpt lat="59.163201" lon="18.15581">
        <ele>57</ele>
        <time>2019-08-23T08:35:50Z</time>
      </trkpt>
      <trkpt lat="59.163163" lon="18.155801">
        <ele>57</ele>
        <time>2019-08-23T08:35:51Z</time>
      </trkpt>
      <trkpt lat="59.163127" lon="18.15579">
        <ele>57</ele>
        <time>2019-08-23T08:35:52Z</time>
      </trkpt>
      <trkpt lat="59.163095" lon="18.155776">
        <ele>57</ele>
        <time>2019-08-23T08:35:53Z</time>
      </trkpt>
      <trkpt lat="59.163061" lon="18.155759">
        <ele>57</ele>
        <time>2019-08-23T08:35:54Z</time>
      </trkpt>
      <trkpt lat="59.163027" lon="18.155745">
        <ele>57</ele>
        <time>2019-08-23T08:35:55Z</time>
      </trkpt>
      <trkpt lat="59.162994" lon="18.15573">
        <ele>57</ele>
        <time>2019-08-23T08:35:57Z</time>
      </trkpt>
      <trkpt lat="59.162964" lon="18.155717">
        <ele>58</ele>
        <time>2019-08-23T08:35:57Z</time>
      </trkpt>
      <trkpt lat="59.162931" lon="18.1557">
        <ele>58</ele>
        <time>2019-08-23T08:35:59Z</time>
      </trkpt>
      <trkpt lat="59.162897" lon="18.155685">
        <ele>58</ele>
        <time>2019-08-23T08:35:59Z</time>
      </trkpt>
      <trkpt lat="59.162863" lon="18.155668">
        <ele>58</ele>
        <time>2019-08-23T08:36:01Z</time>
      </trkpt>
      <trkpt lat="59.16283" lon="18.155647">
        <ele>58</ele>
        <time>2019-08-23T08:36:01Z</time>
      </trkpt>
      <trkpt lat="59.162798" lon="18.15562">
        <ele>58</ele>
        <time>2019-08-23T08:36:02Z</time>
      </trkpt>
      <trkpt lat="59.162766" lon="18.155602">
        <ele>59</ele>
        <time>2019-08-23T08:36:03Z</time>
      </trkpt>
      <trkpt lat="59.162734" lon="18.155582">
        <ele>59</ele>
        <time>2019-08-23T08:36:04Z</time>
      </trkpt>
      <trkpt lat="59.162704" lon="18.155565">
        <ele>59</ele>
        <time>2019-08-23T08:36:06Z</time>
      </trkpt>
      <trkpt lat="59.162673" lon="18.155538">
        <ele>59</ele>
        <time>2019-08-23T08:36:06Z</time>
      </trkpt>
      <trkpt lat="59.162645" lon="18.155512">
        <ele>59</ele>
        <time>2019-08-23T08:36:07Z</time>
      </trkpt>
      <trkpt lat="59.162618" lon="18.155483">
        <ele>59</ele>
        <time>2019-08-23T08:36:09Z</time>
      </trkpt>
      <trkpt lat="59.162591" lon="18.155451">
        <ele>59</ele>
        <time>2019-08-23T08:36:09Z</time>
      </trkpt>
      <trkpt lat="59.162564" lon="18.155416">
        <ele>59</ele>
        <time>2019-08-23T08:36:11Z</time>
      </trkpt>
      <trkpt lat="59.162537" lon="18.155372">
        <ele>59</ele>
        <time>2019-08-23T08:36:12Z</time>
      </trkpt>
      <trkpt lat="59.162512" lon="18.155326">
        <ele>59</ele>
        <time>2019-08-23T08:36:12Z</time>
      </trkpt>
      <trkpt lat="59.162488" lon="18.155279">
        <ele>59</ele>
        <time>2019-08-23T08:36:13Z</time>
      </trkpt>
      <trkpt lat="59.162468" lon="18.155224">
        <ele>59</ele>
        <time>2019-08-23T08:36:14Z</time>
      </trkpt>
      <trkpt lat="59.162453" lon="18.155168">
        <ele>59</ele>
        <time>2019-08-23T08:36:15Z</time>
      </trkpt>
      <trkpt lat="59.162443" lon="18.155101">
        <ele>59</ele>
        <time>2019-08-23T08:36:16Z</time>
      </trkpt>
      <trkpt lat="59.162439" lon="18.15503">
        <ele>59</ele>
        <time>2019-08-23T08:36:17Z</time>
      </trkpt>
      <trkpt lat="59.162437" lon="18.154957">
        <ele>59</ele>
        <time>2019-08-23T08:36:18Z</time>
      </trkpt>
      <trkpt lat="59.16244" lon="18.154885">
        <ele>59</ele>
        <time>2019-08-23T08:36:20Z</time>
      </trkpt>
      <trkpt lat="59.162445" lon="18.154807">
        <ele>59</ele>
        <time>2019-08-23T08:36:20Z</time>
      </trkpt>
      <trkpt lat="59.162453" lon="18.154734">
        <ele>59</ele>
        <time>2019-08-23T08:36:21Z</time>
      </trkpt>
      <trkpt lat="59.162464" lon="18.154659">
        <ele>59</ele>
        <time>2019-08-23T08:36:23Z</time>
      </trkpt>
      <trkpt lat="59.162477" lon="18.154591">
        <ele>59</ele>
        <time>2019-08-23T08:36:23Z</time>
      </trkpt>
      <trkpt lat="59.162495" lon="18.154521">
        <ele>59</ele>
        <time>2019-08-23T08:36:25Z</time>
      </trkpt>
      <trkpt lat="59.162516" lon="18.154453">
        <ele>59</ele>
        <time>2019-08-23T08:36:25Z</time>
      </trkpt>
      <trkpt lat="59.162539" lon="18.15439">
        <ele>59</ele>
        <time>2019-08-23T08:36:26Z</time>
      </trkpt>
      <trkpt lat="59.162562" lon="18.154332">
        <ele>59</ele>
        <time>2019-08-23T08:36:28Z</time>
      </trkpt>
      <trkpt lat="59.162593" lon="18.154277">
        <ele>59</ele>
        <time>2019-08-23T08:36:28Z</time>
      </trkpt>
      <trkpt lat="59.162623" lon="18.154232">
        <ele>59</ele>
        <time>2019-08-23T08:36:30Z</time>
      </trkpt>
      <trkpt lat="59.162655" lon="18.154189">
        <ele>59</ele>
        <time>2019-08-23T08:36:30Z</time>
      </trkpt>
      <trkpt lat="59.162684" lon="18.154152">
        <ele>59</ele>
        <time>2019-08-23T08:36:31Z</time>
      </trkpt>
      <trkpt lat="59.162714" lon="18.15412">
        <ele>59</ele>
        <time>2019-08-23T08:36:33Z</time>
      </trkpt>
      <trkpt lat="59.162747" lon="18.154101">
        <ele>59</ele>
        <time>2019-08-23T08:36:34Z</time>
      </trkpt>
      <trkpt lat="59.162783" lon="18.154092">
        <ele>59</ele>
        <time>2019-08-23T08:36:34Z</time>
      </trkpt>
      <trkpt lat="59.162816" lon="18.154097">
        <ele>59</ele>
        <time>2019-08-23T08:36:35Z</time>
      </trkpt>
      <trkpt lat="59.162853" lon="18.154111">
        <ele>59</ele>
        <time>2019-08-23T08:36:36Z</time>
      </trkpt>
      <trkpt lat="59.162891" lon="18.154132">
        <ele>58</ele>
        <time>2019-08-23T08:36:37Z</time>
      </trkpt>
      <trkpt lat="59.162926" lon="18.154159">
        <ele>58</ele>
        <time>2019-08-23T08:36:39Z</time>
      </trkpt>
      <trkpt lat="59.162964" lon="18.154189">
        <ele>58</ele>
        <time>2019-08-23T08:36:39Z</time>
      </trkpt>
      <trkpt lat="59.162997" lon="18.154216">
        <ele>58</ele>
        <time>2019-08-23T08:36:40Z</time>
      </trkpt>
      <trkpt lat="59.163032" lon="18.154246">
        <ele>58</ele>
        <time>2019-08-23T08:36:41Z</time>
      </trkpt>
      <trkpt lat="59.163063" lon="18.154271">
        <ele>58</ele>
        <time>2019-08-23T08:36:42Z</time>
      </trkpt>
      <trkpt lat="59.163096" lon="18.154295">
        <ele>58</ele>
        <time>2019-08-23T08:36:43Z</time>
      </trkpt>
      <trkpt lat="59.163127" lon="18.154315">
        <ele>58</ele>
        <time>2019-08-23T08:36:45Z</time>
      </trkpt>
      <trkpt lat="59.163158" lon="18.154336">
        <ele>58</ele>
        <time>2019-08-23T08:36:45Z</time>
      </trkpt>
      <trkpt lat="59.163189" lon="18.154356">
        <ele>58</ele>
        <time>2019-08-23T08:36:47Z</time>
      </trkpt>
      <trkpt lat="59.16322" lon="18.154381">
        <ele>58</ele>
        <time>2019-08-23T08:36:47Z</time>
      </trkpt>
      <trkpt lat="59.163252" lon="18.154401">
        <ele>58</ele>
        <time>2019-08-23T08:36:49Z</time>
      </trkpt>
      <trkpt lat="59.163283" lon="18.15442">
        <ele>58</ele>
        <time>2019-08-23T08:36:49Z</time>
      </trkpt>
      <trkpt lat="59.163315" lon="18.154437">
        <ele>57</ele>
        <time>2019-08-23T08:36:50Z</time>
      </trkpt>
      <trkpt lat="59.163343" lon="18.15446">
        <ele>57</ele>
        <time>2019-08-23T08:36:51Z</time>
      </trkpt>
      <trkpt lat="59.163373" lon="18.154483">
        <ele>57</ele>
        <time>2019-08-23T08:36:52Z</time>
      </trkpt>
      <trkpt lat="59.163401" lon="18.154504">
        <ele>57</ele>
        <time>2019-08-23T08:36:54Z</time>
      </trkpt>
      <trkpt lat="59.163432" lon="18.154528">
        <ele>57</ele>
        <time>2019-08-23T08:36:54Z</time>
      </trkpt>
      <trkpt lat="59.163462" lon="18.154545">
        <ele>57</ele>
        <time>2019-08-23T08:36:55Z</time>
      </trkpt>
      <trkpt lat="59.163495" lon="18.154566">
        <ele>57</ele>
        <time>2019-08-23T08:36:56Z</time>
      </trkpt>
      <trkpt lat="59.163529" lon="18.154586">
        <ele>57</ele>
        <time>2019-08-23T08:36:57Z</time>
      </trkpt>
      <trkpt lat="59.163563" lon="18.154606">
        <ele>57</ele>
        <time>2019-08-23T08:36:58Z</time>
      </trkpt>
      <trkpt lat="59.163594" lon="18.154624">
        <ele>57</ele>
        <time>2019-08-23T08:36:59Z</time>
      </trkpt>
      <trkpt lat="59.163623" lon="18.154648">
        <ele>57</ele>
        <time>2019-08-23T08:37:00Z</time>
      </trkpt>
      <trkpt lat="59.163654" lon="18.154671">
        <ele>57</ele>
        <time>2019-08-23T08:37:02Z</time>
      </trkpt>
      <trkpt lat="59.163682" lon="18.154694">
        <ele>57</ele>
        <time>2019-08-23T08:37:02Z</time>
      </trkpt>
      <trkpt lat="59.163711" lon="18.154718">
        <ele>57</ele>
        <time>2019-08-23T08:37:03Z</time>
      </trkpt>
      <trkpt lat="59.163738" lon="18.15475">
        <ele>57</ele>
        <time>2019-08-23T08:37:05Z</time>
      </trkpt>
      <trkpt lat="59.163764" lon="18.154787">
        <ele>57</ele>
        <time>2019-08-23T08:37:06Z</time>
      </trkpt>
      <trkpt lat="59.163788" lon="18.154827">
        <ele>57</ele>
        <time>2019-08-23T08:37:06Z</time>
      </trkpt>
      <trkpt lat="59.163811" lon="18.154869">
        <ele>57</ele>
        <time>2019-08-23T08:37:08Z</time>
      </trkpt>
      <trkpt lat="59.16383" lon="18.154923">
        <ele>56</ele>
        <time>2019-08-23T08:37:09Z</time>
      </trkpt>
      <trkpt lat="59.163847" lon="18.154979">
        <ele>56</ele>
        <time>2019-08-23T08:37:09Z</time>
      </trkpt>
      <trkpt lat="59.16386" lon="18.15504">
        <ele>56</ele>
        <time>2019-08-23T08:37:10Z</time>
      </trkpt>
      <trkpt lat="59.163874" lon="18.155103">
        <ele>56</ele>
        <time>2019-08-23T08:37:11Z</time>
      </trkpt>
      <trkpt lat="59.163884" lon="18.155167">
        <ele>56</ele>
        <time>2019-08-23T08:37:12Z</time>
      </trkpt>
      <trkpt lat="59.163891" lon="18.155233">
        <ele>56</ele>
        <time>2019-08-23T08:37:13Z</time>
      </trkpt>
      <trkpt lat="59.163893" lon="18.155298">
        <ele>56</ele>
        <time>2019-08-23T08:37:14Z</time>
      </trkpt>
      <trkpt lat="59.163891" lon="18.155366">
        <ele>56</ele>
        <time>2019-08-23T08:37:15Z</time>
      </trkpt>
      <trkpt lat="59.163886" lon="18.155429">
        <ele>56</ele>
        <time>2019-08-23T08:37:17Z</time>
      </trkpt>
      <trkpt lat="59.163874" lon="18.155493">
        <ele>56</ele>
        <time>2019-08-23T08:37:17Z</time>
      </trkpt>
      <trkpt lat="59.163862" lon="18.155555">
        <ele>56</ele>
        <time>2019-08-23T08:37:18Z</time>
      </trkpt>
      <trkpt lat="59.163852" lon="18.155614">
        <ele>56</ele>
        <time>2019-08-23T08:37:19Z</time>
      </trkpt>
      <trkpt lat="59.163837" lon="18.155674">
        <ele>56</ele>
        <time>2019-08-23T08:37:20Z</time>
      </trkpt>
      <trkpt lat="59.163817" lon="18.155733">
        <ele>56</ele>
        <time>2019-08-23T08:37:21Z</time>
      </trkpt>
      <trkpt lat="59.163792" lon="18.155788">
        <ele>56</ele>
        <time>2019-08-23T08:37:22Z</time>
      </trkpt>
      <trkpt lat="59.163765" lon="18.155837">
        <ele>56</ele>
        <time>2019-08-23T08:37:24Z</time>
      </trkpt>
      <trkpt lat="59.163738" lon="18.155875">
        <ele>56</ele>
        <time>2019-08-23T08:37:25Z</time>
      </trkpt>
      <trkpt lat="59.163707" lon="18.155908">
        <ele>56</ele>
        <time>2019-08-23T08:37:25Z</time>
      </trkpt>
      <trkpt lat="59.163675" lon="18.155938">
        <ele>56</ele>
        <time>2019-08-23T08:37:27Z</time>
      </trkpt>
      <trkpt lat="59.163645" lon="18.155964">
        <ele>57</ele>
        <time>2019-08-23T08:37:27Z</time>
      </trkpt>
      <trkpt lat="59.163613" lon="18.155989">
        <ele>57</ele>
        <time>2019-08-23T08:37:28Z</time>
      </trkpt>
      <trkpt lat="59.163578" lon="18.156013">
        <ele>57</ele>
        <time>2019-08-23T08:37:29Z</time>
      </trkpt>
      <trkpt lat="59.163538" lon="18.156028">
        <ele>57</ele>
        <time>2019-08-23T08:37:30Z</time>
      </trkpt>
      <trkpt lat="59.163503" lon="18.156028">
        <ele>57</ele>
        <time>2019-08-23T08:37:31Z</time>
      </trkpt>
      <trkpt lat="59.16347" lon="18.15602">
        <ele>57</ele>
        <time>2019-08-23T08:37:32Z</time>
      </trkpt>
      <trkpt lat="59.163435" lon="18.15601">
        <ele>57</ele>
        <time>2019-08-23T08:37:33Z</time>
      </trkpt>
      <trkpt lat="59.163403" lon="18.15599">
        <ele>57</ele>
        <time>2019-08-23T08:37:35Z</time>
      </trkpt>
      <trkpt lat="59.163369" lon="18.155963">
        <ele>58</ele>
        <time>2019-08-23T08:37:35Z</time>
      </trkpt>
      <trkpt lat="59.163338" lon="18.155939">
        <ele>58</ele>
        <time>2019-08-23T08:37:36Z</time>
      </trkpt>
      <trkpt lat="59.163309" lon="18.155912">
        <ele>58</ele>
        <time>2019-08-23T08:37:38Z</time>
      </trkpt>
      <trkpt lat="59.163279" lon="18.155889">
        <ele>58</ele>
        <time>2019-08-23T08:37:38Z</time>
      </trkpt>
      <trkpt lat="59.163247" lon="18.155867">
        <ele>58</ele>
        <time>2019-08-23T08:37:39Z</time>
      </trkpt>
      <trkpt lat="59.163215" lon="18.155853">
        <ele>58</ele>
        <time>2019-08-23T08:37:40Z</time>
      </trkpt>
      <trkpt lat="59.163181" lon="18.15584">
        <ele>58</ele>
        <time>2019-08-23T08:37:41Z</time>
      </trkpt>
      <trkpt lat="59.163148" lon="18.155824">
        <ele>58</ele>
        <time>2019-08-23T08:37:42Z</time>
      </trkpt>
      <trkpt lat="59.163115" lon="18.155808">
        <ele>58</ele>
        <time>2019-08-23T08:37:44Z</time>
      </trkpt>
      <trkpt lat="59.163084" lon="18.155786">
        <ele>58</ele>
        <time>2019-08-23T08:37:44Z</time>
      </trkpt>
      <trkpt lat="59.163055" lon="18.155774">
        <ele>58</ele>
        <time>2019-08-23T08:37:46Z</time>
      </trkpt>
      <trkpt lat="59.163025" lon="18.155756">
        <ele>58</ele>
        <time>2019-08-23T08:37:46Z</time>
      </trkpt>
      <trkpt lat="59.162993" lon="18.15574">
        <ele>58</ele>
        <time>2019-08-23T08:37:47Z</time>
      </trkpt>
      <trkpt lat="59.162962" lon="18.155719">
        <ele>58</ele>
        <time>2019-08-23T08:37:48Z</time>
      </trkpt>
      <trkpt lat="59.16293" lon="18.155699">
        <ele>58</ele>
        <time>2019-08-23T08:37:49Z</time>
      </trkpt>
      <trkpt lat="59.1629" lon="18.15568">
        <ele>58</ele>
        <time>2019-08-23T08:37:51Z</time>
      </trkpt>
      <trkpt lat="59.162868" lon="18.155662">
        <ele>58</ele>
        <time>2019-08-23T08:37:51Z</time>
      </trkpt>
      <trkpt lat="59.162836" lon="18.155645">
        <ele>58</ele>
        <time>2019-08-23T08:37:53Z</time>
      </trkpt>
      <trkpt lat="59.162806" lon="18.155627">
        <ele>58</ele>
        <time>2019-08-23T08:37:53Z</time>
      </trkpt>
      <trkpt lat="59.162776" lon="18.15561">
        <ele>59</ele>
        <time>2019-08-23T08:37:54Z</time>
      </trkpt>
      <trkpt lat="59.162744" lon="18.155587">
        <ele>59</ele>
        <time>2019-08-23T08:37:55Z</time>
      </trkpt>
      <trkpt lat="59.162713" lon="18.155559">
        <ele>59</ele>
        <time>2019-08-23T08:37:56Z</time>
      </trkpt>
      <trkpt lat="59.16268" lon="18.155533">
        <ele>59</ele>
        <time>2019-08-23T08:37:57Z</time>
      </trkpt>
      <trkpt lat="59.16265" lon="18.155507">
        <ele>59</ele>
        <time>2019-08-23T08:37:58Z</time>
      </trkpt>
      <trkpt lat="59.162621" lon="18.155472">
        <ele>59</ele>
        <time>2019-08-23T08:37:59Z</time>
      </trkpt>
      <trkpt lat="59.162591" lon="18.155437">
        <ele>59</ele>
        <time>2019-08-23T08:38:01Z</time>
      </trkpt>
      <trkpt lat="59.162565" lon="18.155399">
        <ele>59</ele>
        <time>2019-08-23T08:38:01Z</time>
      </trkpt>
      <trkpt lat="59.16254" lon="18.155358">
        <ele>59</ele>
        <time>2019-08-23T08:38:03Z</time>
      </trkpt>
      <trkpt lat="59.162515" lon="18.155314">
        <ele>60</ele>
        <time>2019-08-23T08:38:03Z</time>
      </trkpt>
      <trkpt lat="59.162488" lon="18.155266">
        <ele>60</ele>
        <time>2019-08-23T08:38:05Z</time>
      </trkpt>
      <trkpt lat="59.162465" lon="18.15522">
        <ele>60</ele>
        <time>2019-08-23T08:38:05Z</time>
      </trkpt>
      <trkpt lat="59.16245" lon="18.155164">
        <ele>60</ele>
        <time>2019-08-23T08:38:06Z</time>
      </trkpt>
      <trkpt lat="59.162441" lon="18.155098">
        <ele>60</ele>
        <time>2019-08-23T08:38:08Z</time>
      </trkpt>
      <trkpt lat="59.162432" lon="18.155026">
        <ele>60</ele>
        <time>2019-08-23T08:38:08Z</time>
      </trkpt>
      <trkpt lat="59.162431" lon="18.154958">
        <ele>60</ele>
        <time>2019-08-23T08:38:09Z</time>
      </trkpt>
      <trkpt lat="59.162433" lon="18.154884">
        <ele>60</ele>
        <time>2019-08-23T08:38:11Z</time>
      </trkpt>
      <trkpt lat="59.16244" lon="18.154808">
        <ele>60</ele>
        <time>2019-08-23T08:38:11Z</time>
      </trkpt>
      <trkpt lat="59.162449" lon="18.15473">
        <ele>60</ele>
        <time>2019-08-23T08:38:12Z</time>
      </trkpt>
      <trkpt lat="59.162459" lon="18.154649">
        <ele>60</ele>
        <time>2019-08-23T08:38:13Z</time>
      </trkpt>
      <trkpt lat="59.162471" lon="18.154585">
        <ele>60</ele>
        <time>2019-08-23T08:38:14Z</time>
      </trkpt>
      <trkpt lat="59.162489" lon="18.154514">
        <ele>60</ele>
        <time>2019-08-23T08:38:16Z</time>
      </trkpt>
      <trkpt lat="59.162507" lon="18.154449">
        <ele>60</ele>
        <time>2019-08-23T08:38:16Z</time>
      </trkpt>
      <trkpt lat="59.162529" lon="18.154387">
        <ele>60</ele>
        <time>2019-08-23T08:38:17Z</time>
      </trkpt>
      <trkpt lat="59.162552" lon="18.15433">
        <ele>60</ele>
        <time>2019-08-23T08:38:19Z</time>
      </trkpt>
      <trkpt lat="59.16258" lon="18.154274">
        <ele>60</ele>
        <time>2019-08-23T08:38:20Z</time>
      </trkpt>
      <trkpt lat="59.162608" lon="18.154224">
        <ele>60</ele>
        <time>2019-08-23T08:38:20Z</time>
      </trkpt>
      <trkpt lat="59.16264" lon="18.154173">
        <ele>60</ele>
        <time>2019-08-23T08:38:22Z</time>
      </trkpt>
      <trkpt lat="59.162671" lon="18.15413">
        <ele>59</ele>
        <time>2019-08-23T08:38:22Z</time>
      </trkpt>
      <trkpt lat="59.162703" lon="18.154102">
        <ele>59</ele>
        <time>2019-08-23T08:38:24Z</time>
      </trkpt>
      <trkpt lat="59.162735" lon="18.154074">
        <ele>59</ele>
        <time>2019-08-23T08:38:24Z</time>
      </trkpt>
      <trkpt lat="59.16277" lon="18.154054">
        <ele>59</ele>
        <time>2019-08-23T08:38:25Z</time>
      </trkpt>
      <trkpt lat="59.162808" lon="18.154052">
        <ele>59</ele>
        <time>2019-08-23T08:38:26Z</time>
      </trkpt>
      <trkpt lat="59.162843" lon="18.154068">
        <ele>59</ele>
        <time>2019-08-23T08:38:27Z</time>
      </trkpt>
      <trkpt lat="59.162882" lon="18.154094">
        <ele>59</ele>
        <time>2019-08-23T08:38:28Z</time>
      </trkpt>
      <trkpt lat="59.162917" lon="18.154124">
        <ele>59</ele>
        <time>2019-08-23T08:38:29Z</time>
      </trkpt>
      <trkpt lat="59.162953" lon="18.154152">
        <ele>59</ele>
        <time>2019-08-23T08:38:30Z</time>
      </trkpt>
      <trkpt lat="59.162985" lon="18.15418">
        <ele>59</ele>
        <time>2019-08-23T08:38:31Z</time>
      </trkpt>
      <trkpt lat="59.163017" lon="18.154208">
        <ele>58</ele>
        <time>2019-08-23T08:38:32Z</time>
      </trkpt>
      <trkpt lat="59.163048" lon="18.154234">
        <ele>58</ele>
        <time>2019-08-23T08:38:34Z</time>
      </trkpt>
      <trkpt lat="59.163079" lon="18.154259">
        <ele>58</ele>
        <time>2019-08-23T08:38:34Z</time>
      </trkpt>
      <trkpt lat="59.163111" lon="18.154282">
        <ele>58</ele>
        <time>2019-08-23T08:38:35Z</time>
      </trkpt>
      <trkpt lat="59.163143" lon="18.154307">
        <ele>58</ele>
        <time>2019-08-23T08:38:36Z</time>
      </trkpt>
      <trkpt lat="59.163171" lon="18.154332">
        <ele>58</ele>
        <time>2019-08-23T08:38:37Z</time>
      </trkpt>
      <trkpt lat="59.163201" lon="18.15436">
        <ele>58</ele>
        <time>2019-08-23T08:38:38Z</time>
      </trkpt>
      <trkpt lat="59.163231" lon="18.154377">
        <ele>58</ele>
        <time>2019-08-23T08:38:39Z</time>
      </trkpt>
      <trkpt lat="59.16326" lon="18.154401">
        <ele>58</ele>
        <time>2019-08-23T08:38:41Z</time>
      </trkpt>
      <trkpt lat="59.163287" lon="18.154426">
        <ele>58</ele>
        <time>2019-08-23T08:38:41Z</time>
      </trkpt>
      <trkpt lat="59.163318" lon="18.154448">
        <ele>58</ele>
        <time>2019-08-23T08:38:43Z</time>
      </trkpt>
      <trkpt lat="59.163349" lon="18.154468">
        <ele>58</ele>
        <time>2019-08-23T08:38:43Z</time>
      </trkpt>
      <trkpt lat="59.16338" lon="18.154491">
        <ele>58</ele>
        <time>2019-08-23T08:38:44Z</time>
      </trkpt>
      <trkpt lat="59.163409" lon="18.154512">
        <ele>58</ele>
        <time>2019-08-23T08:38:45Z</time>
      </trkpt>
      <trkpt lat="59.163443" lon="18.154533">
        <ele>58</ele>
        <time>2019-08-23T08:38:46Z</time>
      </trkpt>
      <trkpt lat="59.163472" lon="18.154559">
        <ele>58</ele>
        <time>2019-08-23T08:38:47Z</time>
      </trkpt>
      <trkpt lat="59.163504" lon="18.154583">
        <ele>57</ele>
        <time>2019-08-23T08:38:48Z</time>
      </trkpt>
      <trkpt lat="59.163535" lon="18.154606">
        <ele>57</ele>
        <time>2019-08-23T08:38:50Z</time>
      </trkpt>
      <trkpt lat="59.163564" lon="18.154627">
        <ele>57</ele>
        <time>2019-08-23T08:38:50Z</time>
      </trkpt>
      <trkpt lat="59.163595" lon="18.154648">
        <ele>57</ele>
        <time>2019-08-23T08:38:51Z</time>
      </trkpt>
      <trkpt lat="59.163627" lon="18.154665">
        <ele>57</ele>
        <time>2019-08-23T08:38:52Z</time>
      </trkpt>
      <trkpt lat="59.163657" lon="18.154684">
        <ele>57</ele>
        <time>2019-08-23T08:38:53Z</time>
      </trkpt>
      <trkpt lat="59.163687" lon="18.154706">
        <ele>57</ele>
        <time>2019-08-23T08:38:54Z</time>
      </trkpt>
      <trkpt lat="59.163717" lon="18.154731">
        <ele>57</ele>
        <time>2019-08-23T08:38:55Z</time>
      </trkpt>
      <trkpt lat="59.163747" lon="18.15476">
        <ele>57</ele>
        <time>2019-08-23T08:38:56Z</time>
      </trkpt>
      <trkpt lat="59.163773" lon="18.154797">
        <ele>57</ele>
        <time>2019-08-23T08:38:58Z</time>
      </trkpt>
      <trkpt lat="59.163797" lon="18.154842">
        <ele>57</ele>
        <time>2019-08-23T08:38:58Z</time>
      </trkpt>
      <trkpt lat="59.163823" lon="18.154888">
        <ele>57</ele>
        <time>2019-08-23T08:39:00Z</time>
      </trkpt>
      <trkpt lat="59.163843" lon="18.154938">
        <ele>57</ele>
        <time>2019-08-23T08:39:00Z</time>
      </trkpt>
      <trkpt lat="59.16386" lon="18.154992">
        <ele>57</ele>
        <time>2019-08-23T08:39:02Z</time>
      </trkpt>
      <trkpt lat="59.163874" lon="18.155051">
        <ele>57</ele>
        <time>2019-08-23T08:39:02Z</time>
      </trkpt>
      <trkpt lat="59.163885" lon="18.155112">
        <ele>57</ele>
        <time>2019-08-23T08:39:03Z</time>
      </trkpt>
      <trkpt lat="59.163893" lon="18.155173">
        <ele>57</ele>
        <time>2019-08-23T08:39:05Z</time>
      </trkpt>
      <trkpt lat="59.163898" lon="18.155237">
        <ele>57</ele>
        <time>2019-08-23T08:39:05Z</time>
      </trkpt>
      <trkpt lat="59.163897" lon="18.155306">
        <ele>57</ele>
        <time>2019-08-23T08:39:06Z</time>
      </trkpt>
      <trkpt lat="59.163895" lon="18.155372">
        <ele>57</ele>
        <time>2019-08-23T08:39:08Z</time>
      </trkpt>
      <trkpt lat="59.163889" lon="18.155436">
        <ele>57</ele>
        <time>2019-08-23T08:39:08Z</time>
      </trkpt>
      <trkpt lat="59.163881" lon="18.155502">
        <ele>57</ele>
        <time>2019-08-23T08:39:09Z</time>
      </trkpt>
      <trkpt lat="59.163871" lon="18.155562">
        <ele>57</ele>
        <time>2019-08-23T08:39:11Z</time>
      </trkpt>
      <trkpt lat="59.163859" lon="18.15562">
        <ele>57</ele>
        <time>2019-08-23T08:39:11Z</time>
      </trkpt>
      <trkpt lat="59.163844" lon="18.155677">
        <ele>57</ele>
        <time>2019-08-23T08:39:12Z</time>
      </trkpt>
      <trkpt lat="59.163824" lon="18.15573">
        <ele>57</ele>
        <time>2019-08-23T08:39:13Z</time>
      </trkpt>
      <trkpt lat="59.163801" lon="18.155779">
        <ele>57</ele>
        <time>2019-08-23T08:39:14Z</time>
      </trkpt>
      <trkpt lat="59.163777" lon="18.155824">
        <ele>57</ele>
        <time>2019-08-23T08:39:16Z</time>
      </trkpt>
      <trkpt lat="59.16375" lon="18.15586">
        <ele>57</ele>
        <time>2019-08-23T08:39:16Z</time>
      </trkpt>
      <trkpt lat="59.163722" lon="18.155894">
        <ele>57</ele>
        <time>2019-08-23T08:39:17Z</time>
      </trkpt>
      <trkpt lat="59.163692" lon="18.155927">
        <ele>57</ele>
        <time>2019-08-23T08:39:19Z</time>
      </trkpt>
      <trkpt lat="59.16366" lon="18.155949">
        <ele>57</ele>
        <time>2019-08-23T08:39:20Z</time>
      </trkpt>
      <trkpt lat="59.16359" lon="18.155979">
        <ele>57</ele>
        <time>2019-08-23T08:39:21Z</time>
      </trkpt>
      <trkpt lat="59.163551" lon="18.155994">
        <ele>57</ele>
        <time>2019-08-23T08:39:22Z</time>
      </trkpt>
      <trkpt lat="59.16351" lon="18.156005">
        <ele>58</ele>
        <time>2019-08-23T08:39:23Z</time>
      </trkpt>
      <trkpt lat="59.163472" lon="18.156009">
        <ele>58</ele>
        <time>2019-08-23T08:39:24Z</time>
      </trkpt>
      <trkpt lat="59.163434" lon="18.156008">
        <ele>58</ele>
        <time>2019-08-23T08:39:25Z</time>
      </trkpt>
      <trkpt lat="59.163404" lon="18.155987">
        <ele>58</ele>
        <time>2019-08-23T08:39:26Z</time>
      </trkpt>
      <trkpt lat="59.163376" lon="18.155964">
        <ele>58</ele>
        <time>2019-08-23T08:39:28Z</time>
      </trkpt>
      <trkpt lat="59.163346" lon="18.155941">
        <ele>58</ele>
        <time>2019-08-23T08:39:28Z</time>
      </trkpt>
      <trkpt lat="59.163319" lon="18.155922">
        <ele>58</ele>
        <time>2019-08-23T08:39:29Z</time>
      </trkpt>
      <trkpt lat="59.163291" lon="18.155897">
        <ele>58</ele>
        <time>2019-08-23T08:39:31Z</time>
      </trkpt>
      <trkpt lat="59.163266" lon="18.155873">
        <ele>57</ele>
        <time>2019-08-23T08:39:31Z</time>
      </trkpt>
      <trkpt lat="59.163239" lon="18.155851">
        <ele>57</ele>
        <time>2019-08-23T08:39:32Z</time>
      </trkpt>
      <trkpt lat="59.163211" lon="18.155829">
        <ele>57</ele>
        <time>2019-08-23T08:39:33Z</time>
      </trkpt>
      <trkpt lat="59.163182" lon="18.15581">
        <ele>57</ele>
        <time>2019-08-23T08:39:35Z</time>
      </trkpt>
      <trkpt lat="59.163152" lon="18.155789">
        <ele>57</ele>
        <time>2019-08-23T08:39:35Z</time>
      </trkpt>
      <trkpt lat="59.163121" lon="18.155773">
        <ele>57</ele>
        <time>2019-08-23T08:39:36Z</time>
      </trkpt>
      <trkpt lat="59.16309" lon="18.155758">
        <ele>57</ele>
        <time>2019-08-23T08:39:38Z</time>
      </trkpt>
      <trkpt lat="59.163056" lon="18.155747">
        <ele>58</ele>
        <time>2019-08-23T08:39:38Z</time>
      </trkpt>
      <trkpt lat="59.163024" lon="18.155736">
        <ele>58</ele>
        <time>2019-08-23T08:39:40Z</time>
      </trkpt>
      <trkpt lat="59.162992" lon="18.15572">
        <ele>58</ele>
        <time>2019-08-23T08:39:40Z</time>
      </trkpt>
      <trkpt lat="59.16296" lon="18.155705">
        <ele>58</ele>
        <time>2019-08-23T08:39:41Z</time>
      </trkpt>
      <trkpt lat="59.16293" lon="18.155689">
        <ele>58</ele>
        <time>2019-08-23T08:39:43Z</time>
      </trkpt>
      <trkpt lat="59.1629" lon="18.155671">
        <ele>58</ele>
        <time>2019-08-23T08:39:43Z</time>
      </trkpt>
      <trkpt lat="59.162869" lon="18.155656">
        <ele>58</ele>
        <time>2019-08-23T08:39:44Z</time>
      </trkpt>
      <trkpt lat="59.162838" lon="18.155641">
        <ele>58</ele>
        <time>2019-08-23T08:39:45Z</time>
      </trkpt>
      <trkpt lat="59.162808" lon="18.155623">
        <ele>58</ele>
        <time>2019-08-23T08:39:46Z</time>
      </trkpt>
      <trkpt lat="59.162777" lon="18.1556">
        <ele>58</ele>
        <time>2019-08-23T08:39:47Z</time>
      </trkpt>
      <trkpt lat="59.162747" lon="18.15558">
        <ele>58</ele>
        <time>2019-08-23T08:39:48Z</time>
      </trkpt>
      <trkpt lat="59.162717" lon="18.155559">
        <ele>58</ele>
        <time>2019-08-23T08:39:50Z</time>
      </trkpt>
      <trkpt lat="59.162686" lon="18.155539">
        <ele>58</ele>
        <time>2019-08-23T08:39:51Z</time>
      </trkpt>
      <trkpt lat="59.162657" lon="18.155517">
        <ele>59</ele>
        <time>2019-08-23T08:39:51Z</time>
      </trkpt>
      <trkpt lat="59.162628" lon="18.155493">
        <ele>59</ele>
        <time>2019-08-23T08:39:52Z</time>
      </trkpt>
      <trkpt lat="59.162601" lon="18.155463">
        <ele>59</ele>
        <time>2019-08-23T08:39:53Z</time>
      </trkpt>
      <trkpt lat="59.162577" lon="18.155425">
        <ele>59</ele>
        <time>2019-08-23T08:39:54Z</time>
      </trkpt>
      <trkpt lat="59.162555" lon="18.155377">
        <ele>59</ele>
        <time>2019-08-23T08:39:56Z</time>
      </trkpt>
      <trkpt lat="59.162536" lon="18.155328">
        <ele>59</ele>
        <time>2019-08-23T08:39:57Z</time>
      </trkpt>
      <trkpt lat="59.162515" lon="18.155283">
        <ele>59</ele>
        <time>2019-08-23T08:39:57Z</time>
      </trkpt>
      <trkpt lat="59.162496" lon="18.155233">
        <ele>59</ele>
        <time>2019-08-23T08:39:59Z</time>
      </trkpt>
      <trkpt lat="59.162479" lon="18.155181">
        <ele>60</ele>
        <time>2019-08-23T08:39:59Z</time>
      </trkpt>
      <trkpt lat="59.162467" lon="18.155122">
        <ele>60</ele>
        <time>2019-08-23T08:40:00Z</time>
      </trkpt>
      <trkpt lat="59.162458" lon="18.155062">
        <ele>60</ele>
        <time>2019-08-23T08:40:02Z</time>
      </trkpt>
      <trkpt lat="59.162452" lon="18.155">
        <ele>60</ele>
        <time>2019-08-23T08:40:02Z</time>
      </trkpt>
      <trkpt lat="59.16245" lon="18.154936">
        <ele>60</ele>
        <time>2019-08-23T08:40:03Z</time>
      </trkpt>
      <trkpt lat="59.162453" lon="18.154872">
        <ele>60</ele>
        <time>2019-08-23T08:40:04Z</time>
      </trkpt>
      <trkpt lat="59.162457" lon="18.154805">
        <ele>60</ele>
        <time>2019-08-23T08:40:05Z</time>
      </trkpt>
      <trkpt lat="59.162464" lon="18.154737">
        <ele>60</ele>
        <time>2019-08-23T08:40:07Z</time>
      </trkpt>
      <trkpt lat="59.162476" lon="18.154671">
        <ele>60</ele>
        <time>2019-08-23T08:40:08Z</time>
      </trkpt>
      <trkpt lat="59.162491" lon="18.154607">
        <ele>59</ele>
        <time>2019-08-23T08:40:08Z</time>
      </trkpt>
      <trkpt lat="59.162507" lon="18.154545">
        <ele>59</ele>
        <time>2019-08-23T08:40:09Z</time>
      </trkpt>
      <trkpt lat="59.162526" lon="18.154488">
        <ele>59</ele>
        <time>2019-08-23T08:40:10Z</time>
      </trkpt>
      <trkpt lat="59.162548" lon="18.154429">
        <ele>58</ele>
        <time>2019-08-23T08:40:11Z</time>
      </trkpt>
      <trkpt lat="59.162571" lon="18.15438">
        <ele>58</ele>
        <time>2019-08-23T08:40:12Z</time>
      </trkpt>
      <trkpt lat="59.162596" lon="18.154332">
        <ele>58</ele>
        <time>2019-08-23T08:40:13Z</time>
      </trkpt>
      <trkpt lat="59.162621" lon="18.154289">
        <ele>58</ele>
        <time>2019-08-23T08:40:14Z</time>
      </trkpt>
      <trkpt lat="59.162648" lon="18.154256">
        <ele>58</ele>
        <time>2019-08-23T08:40:16Z</time>
      </trkpt>
      <trkpt lat="59.162677" lon="18.154226">
        <ele>58</ele>
        <time>2019-08-23T08:40:16Z</time>
      </trkpt>
      <trkpt lat="59.162708" lon="18.154205">
        <ele>57</ele>
        <time>2019-08-23T08:40:17Z</time>
      </trkpt>
      <trkpt lat="59.162739" lon="18.154194">
        <ele>57</ele>
        <time>2019-08-23T08:40:18Z</time>
      </trkpt>
      <trkpt lat="59.162774" lon="18.154191">
        <ele>57</ele>
        <time>2019-08-23T08:40:19Z</time>
      </trkpt>
      <trkpt lat="59.162807" lon="18.154186">
        <ele>57</ele>
        <time>2019-08-23T08:40:21Z</time>
      </trkpt>
      <trkpt lat="59.16284" lon="18.154191">
        <ele>57</ele>
        <time>2019-08-23T08:40:21Z</time>
      </trkpt>
      <trkpt lat="59.162872" lon="18.154194">
        <ele>57</ele>
        <time>2019-08-23T08:40:22Z</time>
      </trkpt>
      <trkpt lat="59.162906" lon="18.154207">
        <ele>57</ele>
        <time>2019-08-23T08:40:23Z</time>
      </trkpt>
      <trkpt lat="59.162941" lon="18.154223">
        <ele>57</ele>
        <time>2019-08-23T08:40:24Z</time>
      </trkpt>
      <trkpt lat="59.162976" lon="18.154237">
        <ele>57</ele>
        <time>2019-08-23T08:40:25Z</time>
      </trkpt>
      <trkpt lat="59.163009" lon="18.154252">
        <ele>57</ele>
        <time>2019-08-23T08:40:26Z</time>
      </trkpt>
      <trkpt lat="59.163044" lon="18.154276">
        <ele>57</ele>
        <time>2019-08-23T08:40:27Z</time>
      </trkpt>
      <trkpt lat="59.163075" lon="18.154289">
        <ele>57</ele>
        <time>2019-08-23T08:40:28Z</time>
      </trkpt>
      <trkpt lat="59.163112" lon="18.154315">
        <ele>57</ele>
        <time>2019-08-23T08:40:30Z</time>
      </trkpt>
      <trkpt lat="59.163145" lon="18.154331">
        <ele>56</ele>
        <time>2019-08-23T08:40:30Z</time>
      </trkpt>
      <trkpt lat="59.163179" lon="18.154355">
        <ele>56</ele>
        <time>2019-08-23T08:40:31Z</time>
      </trkpt>
      <trkpt lat="59.163209" lon="18.154374">
        <ele>56</ele>
        <time>2019-08-23T08:40:33Z</time>
      </trkpt>
      <trkpt lat="59.163239" lon="18.154397">
        <ele>56</ele>
        <time>2019-08-23T08:40:33Z</time>
      </trkpt>
      <trkpt lat="59.16327" lon="18.15442">
        <ele>57</ele>
        <time>2019-08-23T08:40:35Z</time>
      </trkpt>
      <trkpt lat="59.163304" lon="18.154438">
        <ele>56</ele>
        <time>2019-08-23T08:40:36Z</time>
      </trkpt>
      <trkpt lat="59.163335" lon="18.154458">
        <ele>56</ele>
        <time>2019-08-23T08:40:36Z</time>
      </trkpt>
      <trkpt lat="59.163365" lon="18.15448">
        <ele>56</ele>
        <time>2019-08-23T08:40:37Z</time>
      </trkpt>
      <trkpt lat="59.163391" lon="18.1545">
        <ele>56</ele>
        <time>2019-08-23T08:40:38Z</time>
      </trkpt>
      <trkpt lat="59.163419" lon="18.154517">
        <ele>56</ele>
        <time>2019-08-23T08:40:39Z</time>
      </trkpt>
      <trkpt lat="59.163449" lon="18.154535">
        <ele>56</ele>
        <time>2019-08-23T08:40:40Z</time>
      </trkpt>
      <trkpt lat="59.163478" lon="18.154551">
        <ele>56</ele>
        <time>2019-08-23T08:40:41Z</time>
      </trkpt>
      <trkpt lat="59.163507" lon="18.154574">
        <ele>56</ele>
        <time>2019-08-23T08:40:42Z</time>
      </trkpt>
      <trkpt lat="59.163536" lon="18.154589">
        <ele>56</ele>
        <time>2019-08-23T08:40:44Z</time>
      </trkpt>
      <trkpt lat="59.163563" lon="18.154602">
        <ele>56</ele>
        <time>2019-08-23T08:40:44Z</time>
      </trkpt>
      <trkpt lat="59.163591" lon="18.154617">
        <ele>56</ele>
        <time>2019-08-23T08:40:45Z</time>
      </trkpt>
      <trkpt lat="59.16362" lon="18.15464">
        <ele>56</ele>
        <time>2019-08-23T08:40:46Z</time>
      </trkpt>
      <trkpt lat="59.163651" lon="18.154664">
        <ele>56</ele>
        <time>2019-08-23T08:40:47Z</time>
      </trkpt>
      <trkpt lat="59.16368" lon="18.154692">
        <ele>56</ele>
        <time>2019-08-23T08:40:48Z</time>
      </trkpt>
      <trkpt lat="59.16371" lon="18.154716">
        <ele>56</ele>
        <time>2019-08-23T08:40:49Z</time>
      </trkpt>
      <trkpt lat="59.163741" lon="18.154759">
        <ele>56</ele>
        <time>2019-08-23T08:40:50Z</time>
      </trkpt>
      <trkpt lat="59.163767" lon="18.154802">
        <ele>56</ele>
        <time>2019-08-23T08:40:52Z</time>
      </trkpt>
      <trkpt lat="59.163795" lon="18.154849">
        <ele>56</ele>
        <time>2019-08-23T08:40:52Z</time>
      </trkpt>
      <trkpt lat="59.163817" lon="18.154896">
        <ele>56</ele>
        <time>2019-08-23T08:40:54Z</time>
      </trkpt>
      <trkpt lat="59.163836" lon="18.154947">
        <ele>56</ele>
        <time>2019-08-23T08:40:54Z</time>
      </trkpt>
      <trkpt lat="59.163853" lon="18.155002">
        <ele>56</ele>
        <time>2019-08-23T08:40:56Z</time>
      </trkpt>
      <trkpt lat="59.163868" lon="18.155064">
        <ele>56</ele>
        <time>2019-08-23T08:40:56Z</time>
      </trkpt>
      <trkpt lat="59.16388" lon="18.15513">
        <ele>56</ele>
        <time>2019-08-23T08:40:57Z</time>
      </trkpt>
      <trkpt lat="59.163886" lon="18.155205">
        <ele>56</ele>
        <time>2019-08-23T08:40:58Z</time>
      </trkpt>
      <trkpt lat="59.16389" lon="18.155276">
        <ele>56</ele>
        <time>2019-08-23T08:40:59Z</time>
      </trkpt>
      <trkpt lat="59.163891" lon="18.155343">
        <ele>56</ele>
        <time>2019-08-23T08:41:00Z</time>
      </trkpt>
      <trkpt lat="59.16389" lon="18.155408">
        <ele>56</ele>
        <time>2019-08-23T08:41:01Z</time>
      </trkpt>
      <trkpt lat="59.163882" lon="18.155472">
        <ele>56</ele>
        <time>2019-08-23T08:41:02Z</time>
      </trkpt>
      <trkpt lat="59.163871" lon="18.155532">
        <ele>56</ele>
        <time>2019-08-23T08:41:04Z</time>
      </trkpt>
      <trkpt lat="59.163856" lon="18.155593">
        <ele>56</ele>
        <time>2019-08-23T08:41:05Z</time>
      </trkpt>
      <trkpt lat="59.163837" lon="18.155652">
        <ele>56</ele>
        <time>2019-08-23T08:41:05Z</time>
      </trkpt>
      <trkpt lat="59.163817" lon="18.155704">
        <ele>56</ele>
        <time>2019-08-23T08:41:06Z</time>
      </trkpt>
      <trkpt lat="59.163795" lon="18.155753">
        <ele>56</ele>
        <time>2019-08-23T08:41:07Z</time>
      </trkpt>
      <trkpt lat="59.163772" lon="18.155801">
        <ele>56</ele>
        <time>2019-08-23T08:41:08Z</time>
      </trkpt>
      <trkpt lat="59.163747" lon="18.155847">
        <ele>56</ele>
        <time>2019-08-23T08:41:09Z</time>
      </trkpt>
      <trkpt lat="59.163718" lon="18.155884">
        <ele>56</ele>
        <time>2019-08-23T08:41:10Z</time>
      </trkpt>
      <trkpt lat="59.163687" lon="18.155918">
        <ele>56</ele>
        <time>2019-08-23T08:41:11Z</time>
      </trkpt>
      <trkpt lat="59.163656" lon="18.155949">
        <ele>56</ele>
        <time>2019-08-23T08:41:13Z</time>
      </trkpt>
      <trkpt lat="59.163621" lon="18.155973">
        <ele>56</ele>
        <time>2019-08-23T08:41:13Z</time>
      </trkpt>
      <trkpt lat="59.16359" lon="18.155987">
        <ele>56</ele>
        <time>2019-08-23T08:41:14Z</time>
      </trkpt>
      <trkpt lat="59.163558" lon="18.155994">
        <ele>56</ele>
        <time>2019-08-23T08:41:16Z</time>
      </trkpt>
      <trkpt lat="59.163526" lon="18.155996">
        <ele>56</ele>
        <time>2019-08-23T08:41:16Z</time>
      </trkpt>
      <trkpt lat="59.163494" lon="18.155993">
        <ele>56</ele>
        <time>2019-08-23T08:41:17Z</time>
      </trkpt>
      <trkpt lat="59.163461" lon="18.155986">
        <ele>56</ele>
        <time>2019-08-23T08:41:18Z</time>
      </trkpt>
      <trkpt lat="59.163428" lon="18.155969">
        <ele>56</ele>
        <time>2019-08-23T08:41:19Z</time>
      </trkpt>
      <trkpt lat="59.163397" lon="18.155948">
        <ele>56</ele>
        <time>2019-08-23T08:41:21Z</time>
      </trkpt>
      <trkpt lat="59.163366" lon="18.155923">
        <ele>56</ele>
        <time>2019-08-23T08:41:21Z</time>
      </trkpt>
      <trkpt lat="59.163334" lon="18.155895">
        <ele>56</ele>
        <time>2019-08-23T08:41:22Z</time>
      </trkpt>
      <trkpt lat="59.163302" lon="18.15587">
        <ele>56</ele>
        <time>2019-08-23T08:41:23Z</time>
      </trkpt>
      <trkpt lat="59.163272" lon="18.155848">
        <ele>56</ele>
        <time>2019-08-23T08:41:24Z</time>
      </trkpt>
      <trkpt lat="59.163243" lon="18.15583">
        <ele>56</ele>
        <time>2019-08-23T08:41:25Z</time>
      </trkpt>
      <trkpt lat="59.163213" lon="18.155812">
        <ele>56</ele>
        <time>2019-08-23T08:41:26Z</time>
      </trkpt>
      <trkpt lat="59.163183" lon="18.155797">
        <ele>56</ele>
        <time>2019-08-23T08:41:27Z</time>
      </trkpt>
      <trkpt lat="59.163149" lon="18.155782">
        <ele>56</ele>
        <time>2019-08-23T08:41:29Z</time>
      </trkpt>
      <trkpt lat="59.163117" lon="18.155766">
        <ele>56</ele>
        <time>2019-08-23T08:41:29Z</time>
      </trkpt>
      <trkpt lat="59.163082" lon="18.155754">
        <ele>57</ele>
        <time>2019-08-23T08:41:30Z</time>
      </trkpt>
      <trkpt lat="59.163051" lon="18.15574">
        <ele>57</ele>
        <time>2019-08-23T08:41:32Z</time>
      </trkpt>
      <trkpt lat="59.163018" lon="18.155726">
        <ele>57</ele>
        <time>2019-08-23T08:41:32Z</time>
      </trkpt>
      <trkpt lat="59.162984" lon="18.155712">
        <ele>57</ele>
        <time>2019-08-23T08:41:33Z</time>
      </trkpt>
      <trkpt lat="59.162951" lon="18.155696">
        <ele>57</ele>
        <time>2019-08-23T08:41:34Z</time>
      </trkpt>
      <trkpt lat="59.162918" lon="18.155682">
        <ele>57</ele>
        <time>2019-08-23T08:41:36Z</time>
      </trkpt>
      <trkpt lat="59.162884" lon="18.155669">
        <ele>57</ele>
        <time>2019-08-23T08:41:36Z</time>
      </trkpt>
      <trkpt lat="59.162852" lon="18.155651">
        <ele>58</ele>
        <time>2019-08-23T08:41:37Z</time>
      </trkpt>
      <trkpt lat="59.162819" lon="18.155636">
        <ele>58</ele>
        <time>2019-08-23T08:41:38Z</time>
      </trkpt>
      <trkpt lat="59.162789" lon="18.155612">
        <ele>58</ele>
        <time>2019-08-23T08:41:39Z</time>
      </trkpt>
      <trkpt lat="59.162761" lon="18.155592">
        <ele>58</ele>
        <time>2019-08-23T08:41:40Z</time>
      </trkpt>
      <trkpt lat="59.162733" lon="18.15557">
        <ele>58</ele>
        <time>2019-08-23T08:41:41Z</time>
      </trkpt>
      <trkpt lat="59.162701" lon="18.155545">
        <ele>58</ele>
        <time>2019-08-23T08:41:42Z</time>
      </trkpt>
      <trkpt lat="59.162672" lon="18.155518">
        <ele>58</ele>
        <time>2019-08-23T08:41:44Z</time>
      </trkpt>
      <trkpt lat="59.162646" lon="18.155489">
        <ele>58</ele>
        <time>2019-08-23T08:41:44Z</time>
      </trkpt>
      <trkpt lat="59.162621" lon="18.155461">
        <ele>58</ele>
        <time>2019-08-23T08:41:45Z</time>
      </trkpt>
      <trkpt lat="59.162592" lon="18.155428">
        <ele>58</ele>
        <time>2019-08-23T08:41:47Z</time>
      </trkpt>
      <trkpt lat="59.162563" lon="18.155381">
        <ele>58</ele>
        <time>2019-08-23T08:41:47Z</time>
      </trkpt>
      <trkpt lat="59.162538" lon="18.155334">
        <ele>58</ele>
        <time>2019-08-23T08:41:48Z</time>
      </trkpt>
      <trkpt lat="59.162513" lon="18.155285">
        <ele>59</ele>
        <time>2019-08-23T08:41:49Z</time>
      </trkpt>
      <trkpt lat="59.162492" lon="18.15524">
        <ele>0</ele>
        <time>2019-08-23T08:41:50Z</time>
      </trkpt>
      <trkpt lat="59.162477" lon="18.155187">
        <ele>59</ele>
        <time>2019-08-23T08:41:51Z</time>
      </trkpt>
      <trkpt lat="59.162462" lon="18.155129">
        <ele>59</ele>
        <time>2019-08-23T08:41:53Z</time>
      </trkpt>
      <trkpt lat="59.162452" lon="18.155067">
        <ele>59</ele>
        <time>2019-08-23T08:41:53Z</time>
      </trkpt>
      <trkpt lat="59.162445" lon="18.154998">
        <ele>59</ele>
        <time>2019-08-23T08:41:54Z</time>
      </trkpt>
      <trkpt lat="59.162443" lon="18.154921">
        <ele>59</ele>
        <time>2019-08-23T08:41:56Z</time>
      </trkpt>
      <trkpt lat="59.162438" lon="18.154848">
        <ele>59</ele>
        <time>2019-08-23T08:41:56Z</time>
      </trkpt>
      <trkpt lat="59.162442" lon="18.154777">
        <ele>59</ele>
        <time>2019-08-23T08:41:57Z</time>
      </trkpt>
      <trkpt lat="59.162451" lon="18.154702">
        <ele>59</ele>
        <time>2019-08-23T08:41:58Z</time>
      </trkpt>
      <trkpt lat="59.162463" lon="18.154631">
        <ele>59</ele>
        <time>2019-08-23T08:41:59Z</time>
      </trkpt>
      <trkpt lat="59.162477" lon="18.154562">
        <ele>59</ele>
        <time>2019-08-23T08:42:00Z</time>
      </trkpt>
      <trkpt lat="59.162494" lon="18.154497">
        <ele>59</ele>
        <time>2019-08-23T08:42:01Z</time>
      </trkpt>
      <trkpt lat="59.162516" lon="18.15443">
        <ele>59</ele>
        <time>2019-08-23T08:42:02Z</time>
      </trkpt>
      <trkpt lat="59.162541" lon="18.154382">
        <ele>59</ele>
        <time>2019-08-23T08:42:04Z</time>
      </trkpt>
      <trkpt lat="59.16257" lon="18.154329">
        <ele>59</ele>
        <time>2019-08-23T08:42:04Z</time>
      </trkpt>
      <trkpt lat="59.162598" lon="18.154287">
        <ele>58</ele>
        <time>2019-08-23T08:42:05Z</time>
      </trkpt>
      <trkpt lat="59.162627" lon="18.154245">
        <ele>58</ele>
        <time>2019-08-23T08:42:06Z</time>
      </trkpt>
      <trkpt lat="59.162659" lon="18.154204">
        <ele>58</ele>
        <time>2019-08-23T08:42:07Z</time>
      </trkpt>
      <trkpt lat="59.16269" lon="18.154173">
        <ele>58</ele>
        <time>2019-08-23T08:42:08Z</time>
      </trkpt>
      <trkpt lat="59.162722" lon="18.15415">
        <ele>58</ele>
        <time>2019-08-23T08:42:10Z</time>
      </trkpt>
      <trkpt lat="59.162755" lon="18.154126">
        <ele>58</ele>
        <time>2019-08-23T08:42:10Z</time>
      </trkpt>
      <trkpt lat="59.162792" lon="18.154112">
        <ele>58</ele>
        <time>2019-08-23T08:42:12Z</time>
      </trkpt>
      <trkpt lat="59.16283" lon="18.154114">
        <ele>58</ele>
        <time>2019-08-23T08:42:12Z</time>
      </trkpt>
      <trkpt lat="59.162869" lon="18.154119">
        <ele>58</ele>
        <time>2019-08-23T08:42:13Z</time>
      </trkpt>
      <trkpt lat="59.162907" lon="18.15413">
        <ele>58</ele>
        <time>2019-08-23T08:42:14Z</time>
      </trkpt>
      <trkpt lat="59.162945" lon="18.154149">
        <ele>58</ele>
        <time>2019-08-23T08:42:15Z</time>
      </trkpt>
      <trkpt lat="59.162981" lon="18.154172">
        <ele>58</ele>
        <time>2019-08-23T08:42:17Z</time>
      </trkpt>
      <trkpt lat="59.163013" lon="18.154201">
        <ele>58</ele>
        <time>2019-08-23T08:42:17Z</time>
      </trkpt>
      <trkpt lat="59.163044" lon="18.154227">
        <ele>58</ele>
        <time>2019-08-23T08:42:18Z</time>
      </trkpt>
      <trkpt lat="59.163076" lon="18.154249">
        <ele>58</ele>
        <time>2019-08-23T08:42:19Z</time>
      </trkpt>
      <trkpt lat="59.163106" lon="18.154277">
        <ele>58</ele>
        <time>2019-08-23T08:42:20Z</time>
      </trkpt>
      <trkpt lat="59.163137" lon="18.154301">
        <ele>58</ele>
        <time>2019-08-23T08:42:21Z</time>
      </trkpt>
      <trkpt lat="59.163163" lon="18.154318">
        <ele>58</ele>
        <time>2019-08-23T08:42:22Z</time>
      </trkpt>
      <trkpt lat="59.163193" lon="18.154344">
        <ele>57</ele>
        <time>2019-08-23T08:42:23Z</time>
      </trkpt>
      <trkpt lat="59.163221" lon="18.154359">
        <ele>57</ele>
        <time>2019-08-23T08:42:25Z</time>
      </trkpt>
      <trkpt lat="59.16325" lon="18.154377">
        <ele>57</ele>
        <time>2019-08-23T08:42:25Z</time>
      </trkpt>
      <trkpt lat="59.163281" lon="18.154398">
        <ele>57</ele>
        <time>2019-08-23T08:42:26Z</time>
      </trkpt>
      <trkpt lat="59.163311" lon="18.154419">
        <ele>57</ele>
        <time>2019-08-23T08:42:27Z</time>
      </trkpt>
      <trkpt lat="59.163343" lon="18.154439">
        <ele>57</ele>
        <time>2019-08-23T08:42:29Z</time>
      </trkpt>
      <trkpt lat="59.163373" lon="18.154458">
        <ele>57</ele>
        <time>2019-08-23T08:42:29Z</time>
      </trkpt>
      <trkpt lat="59.163403" lon="18.154475">
        <ele>57</ele>
        <time>2019-08-23T08:42:31Z</time>
      </trkpt>
      <trkpt lat="59.163433" lon="18.154503">
        <ele>57</ele>
        <time>2019-08-23T08:42:31Z</time>
      </trkpt>
      <trkpt lat="59.163463" lon="18.154526">
        <ele>57</ele>
        <time>2019-08-23T08:42:32Z</time>
      </trkpt>
      <trkpt lat="59.16349" lon="18.154544">
        <ele>57</ele>
        <time>2019-08-23T08:42:34Z</time>
      </trkpt>
      <trkpt lat="59.16352" lon="18.154559">
        <ele>57</ele>
        <time>2019-08-23T08:42:34Z</time>
      </trkpt>
      <trkpt lat="59.163549" lon="18.154574">
        <ele>57</ele>
        <time>2019-08-23T08:42:35Z</time>
      </trkpt>
      <trkpt lat="59.163581" lon="18.154595">
        <ele>57</ele>
        <time>2019-08-23T08:42:37Z</time>
      </trkpt>
      <trkpt lat="59.163609" lon="18.154627">
        <ele>56</ele>
        <time>2019-08-23T08:42:37Z</time>
      </trkpt>
      <trkpt lat="59.16364" lon="18.154651">
        <ele>56</ele>
        <time>2019-08-23T08:42:38Z</time>
      </trkpt>
      <trkpt lat="59.163671" lon="18.154672">
        <ele>56</ele>
        <time>2019-08-23T08:42:40Z</time>
      </trkpt>
      <trkpt lat="59.163701" lon="18.154696">
        <ele>56</ele>
        <time>2019-08-23T08:42:40Z</time>
      </trkpt>
      <trkpt lat="59.16373" lon="18.154726">
        <ele>56</ele>
        <time>2019-08-23T08:42:41Z</time>
      </trkpt>
      <trkpt lat="59.163757" lon="18.154761">
        <ele>56</ele>
        <time>2019-08-23T08:42:42Z</time>
      </trkpt>
      <trkpt lat="59.163781" lon="18.154796">
        <ele>56</ele>
        <time>2019-08-23T08:42:43Z</time>
      </trkpt>
      <trkpt lat="59.163805" lon="18.15484">
        <ele>56</ele>
        <time>2019-08-23T08:42:44Z</time>
      </trkpt>
      <trkpt lat="59.163824" lon="18.154887">
        <ele>56</ele>
        <time>2019-08-23T08:42:45Z</time>
      </trkpt>
      <trkpt lat="59.163838" lon="18.154937">
        <ele>56</ele>
        <time>2019-08-23T08:42:46Z</time>
      </trkpt>
      <trkpt lat="59.163856" lon="18.154995">
        <ele>56</ele>
        <time>2019-08-23T08:42:48Z</time>
      </trkpt>
      <trkpt lat="59.163867" lon="18.155065">
        <ele>56</ele>
        <time>2019-08-23T08:42:49Z</time>
      </trkpt>
      <trkpt lat="59.163881" lon="18.155129">
        <ele>56</ele>
        <time>2019-08-23T08:42:49Z</time>
      </trkpt>
      <trkpt lat="59.16389" lon="18.155201">
        <ele>56</ele>
        <time>2019-08-23T08:42:50Z</time>
      </trkpt>
      <trkpt lat="59.163893" lon="18.155264">
        <ele>56</ele>
        <time>2019-08-23T08:42:51Z</time>
      </trkpt>
      <trkpt lat="59.16389" lon="18.155334">
        <ele>56</ele>
        <time>2019-08-23T08:42:52Z</time>
      </trkpt>
      <trkpt lat="59.163888" lon="18.155402">
        <ele>56</ele>
        <time>2019-08-23T08:42:54Z</time>
      </trkpt>
      <trkpt lat="59.163883" lon="18.155466">
        <ele>57</ele>
        <time>2019-08-23T08:42:54Z</time>
      </trkpt>
      <trkpt lat="59.163873" lon="18.155533">
        <ele>57</ele>
        <time>2019-08-23T08:42:55Z</time>
      </trkpt>
      <trkpt lat="59.163858" lon="18.155597">
        <ele>57</ele>
        <time>2019-08-23T08:42:57Z</time>
      </trkpt>
      <trkpt lat="59.163842" lon="18.155656">
        <ele>57</ele>
        <time>2019-08-23T08:42:57Z</time>
      </trkpt>
      <trkpt lat="59.163823" lon="18.155711">
        <ele>57</ele>
        <time>2019-08-23T08:42:58Z</time>
      </trkpt>
      <trkpt lat="59.1638" lon="18.155765">
        <ele>57</ele>
        <time>2019-08-23T08:42:59Z</time>
      </trkpt>
      <trkpt lat="59.163776" lon="18.155813">
        <ele>57</ele>
        <time>2019-08-23T08:43:00Z</time>
      </trkpt>
      <trkpt lat="59.163753" lon="18.155855">
        <ele>57</ele>
        <time>2019-08-23T08:43:01Z</time>
      </trkpt>
      <trkpt lat="59.163728" lon="18.155891">
        <ele>57</ele>
        <time>2019-08-23T08:43:02Z</time>
      </trkpt>
      <trkpt lat="59.1637" lon="18.155923">
        <ele>57</ele>
        <time>2019-08-23T08:43:04Z</time>
      </trkpt>
      <trkpt lat="59.16367" lon="18.155952">
        <ele>57</ele>
        <time>2019-08-23T08:43:04Z</time>
      </trkpt>
      <trkpt lat="59.163639" lon="18.155977">
        <ele>57</ele>
        <time>2019-08-23T08:43:05Z</time>
      </trkpt>
      <trkpt lat="59.163608" lon="18.155998">
        <ele>57</ele>
        <time>2019-08-23T08:43:07Z</time>
      </trkpt>
      <trkpt lat="59.163572" lon="18.156016">
        <ele>57</ele>
        <time>2019-08-23T08:43:07Z</time>
      </trkpt>
      <trkpt lat="59.163533" lon="18.156027">
        <ele>57</ele>
        <time>2019-08-23T08:43:09Z</time>
      </trkpt>
      <trkpt lat="59.163501" lon="18.156026">
        <ele>57</ele>
        <time>2019-08-23T08:43:09Z</time>
      </trkpt>
      <trkpt lat="59.163466" lon="18.156019">
        <ele>57</ele>
        <time>2019-08-23T08:43:10Z</time>
      </trkpt>
      <trkpt lat="59.163432" lon="18.156008">
        <ele>57</ele>
        <time>2019-08-23T08:43:12Z</time>
      </trkpt>
      <trkpt lat="59.163397" lon="18.155994">
        <ele>57</ele>
        <time>2019-08-23T08:43:12Z</time>
      </trkpt>
      <trkpt lat="59.163366" lon="18.155973">
        <ele>57</ele>
        <time>2019-08-23T08:43:13Z</time>
      </trkpt>
      <trkpt lat="59.163332" lon="18.155946">
        <ele>57</ele>
        <time>2019-08-23T08:43:14Z</time>
      </trkpt>
      <trkpt lat="59.163302" lon="18.155921">
        <ele>57</ele>
        <time>2019-08-23T08:43:15Z</time>
      </trkpt>
      <trkpt lat="59.163274" lon="18.155903">
        <ele>57</ele>
        <time>2019-08-23T08:43:16Z</time>
      </trkpt>
      <trkpt lat="59.163242" lon="18.155881">
        <ele>57</ele>
        <time>2019-08-23T08:43:17Z</time>
      </trkpt>
      <trkpt lat="59.163213" lon="18.155863">
        <ele>57</ele>
        <time>2019-08-23T08:43:19Z</time>
      </trkpt>
      <trkpt lat="59.163183" lon="18.155844">
        <ele>57</ele>
        <time>2019-08-23T08:43:19Z</time>
      </trkpt>
      <trkpt lat="59.163151" lon="18.15583">
        <ele>57</ele>
        <time>2019-08-23T08:43:20Z</time>
      </trkpt>
      <trkpt lat="59.163119" lon="18.155818">
        <ele>57</ele>
        <time>2019-08-23T08:43:21Z</time>
      </trkpt>
      <trkpt lat="59.163087" lon="18.155795">
        <ele>57</ele>
        <time>2019-08-23T08:43:22Z</time>
      </trkpt>
      <trkpt lat="59.163057" lon="18.155774">
        <ele>57</ele>
        <time>2019-08-23T08:43:23Z</time>
      </trkpt>
      <trkpt lat="59.163026" lon="18.15576">
        <ele>57</ele>
        <time>2019-08-23T08:43:24Z</time>
      </trkpt>
      <trkpt lat="59.162995" lon="18.155738">
        <ele>57</ele>
        <time>2019-08-23T08:43:26Z</time>
      </trkpt>
      <trkpt lat="59.162964" lon="18.155716">
        <ele>0</ele>
        <time>2019-08-23T08:43:26Z</time>
      </trkpt>
      <trkpt lat="59.16293" lon="18.155702">
        <ele>57</ele>
        <time>2019-08-23T08:43:27Z</time>
      </trkpt>
      <trkpt lat="59.1629" lon="18.155684">
        <ele>57</ele>
        <time>2019-08-23T08:43:28Z</time>
      </trkpt>
      <trkpt lat="59.162869" lon="18.155663">
        <ele>57</ele>
        <time>2019-08-23T08:43:29Z</time>
      </trkpt>
      <trkpt lat="59.162836" lon="18.155641">
        <ele>58</ele>
        <time>2019-08-23T08:43:30Z</time>
      </trkpt>
      <trkpt lat="59.162806" lon="18.155612">
        <ele>58</ele>
        <time>2019-08-23T08:43:32Z</time>
      </trkpt>
      <trkpt lat="59.162777" lon="18.155589">
        <ele>58</ele>
        <time>2019-08-23T08:43:33Z</time>
      </trkpt>
      <trkpt lat="59.162748" lon="18.155562">
        <ele>58</ele>
        <time>2019-08-23T08:43:33Z</time>
      </trkpt>
      <trkpt lat="59.162716" lon="18.155534">
        <ele>58</ele>
        <time>2019-08-23T08:43:34Z</time>
      </trkpt>
      <trkpt lat="59.162685" lon="18.155507">
        <ele>58</ele>
        <time>2019-08-23T08:43:35Z</time>
      </trkpt>
      <trkpt lat="59.162659" lon="18.15548">
        <ele>58</ele>
        <time>2019-08-23T08:43:36Z</time>
      </trkpt>
      <trkpt lat="59.162629" lon="18.155454">
        <ele>58</ele>
        <time>2019-08-23T08:43:37Z</time>
      </trkpt>
      <trkpt lat="59.1626" lon="18.155422">
        <ele>58</ele>
        <time>2019-08-23T08:43:38Z</time>
      </trkpt>
      <trkpt lat="59.162556" lon="18.155323">
        <ele>58</ele>
        <time>2019-08-23T08:43:40Z</time>
      </trkpt>
      <trkpt lat="59.162545" lon="18.155283">
        <ele>57</ele>
        <time>2019-08-23T08:43:42Z</time>
      </trkpt>
      <trkpt lat="59.162546" lon="18.155238">
        <ele>57</ele>
        <time>2019-08-23T08:43:43Z</time>
      </trkpt>
      <trkpt lat="59.162563" lon="18.155203">
        <ele>56</ele>
        <time>2019-08-23T08:43:50Z</time>
      </trkpt>
      <trkpt lat="59.162578" lon="18.155152">
        <ele>56</ele>
        <time>2019-08-23T08:43:51Z</time>
      </trkpt>
      <trkpt lat="59.162592" lon="18.155099">
        <ele>56</ele>
        <time>2019-08-23T08:43:53Z</time>
      </trkpt>
      <trkpt lat="59.162601" lon="18.15506">
        <ele>56</ele>
        <time>2019-08-23T08:43:55Z</time>
      </trkpt>
      <trkpt lat="59.162608" lon="18.155015">
        <ele>56</ele>
        <time>2019-08-23T08:43:57Z</time>
      </trkpt>
      <trkpt lat="59.162616" lon="18.154973">
        <ele>57</ele>
        <time>2019-08-23T08:43:59Z</time>
      </trkpt>
      <trkpt lat="59.162624" lon="18.154931">
        <ele>57</ele>
        <time>2019-08-23T08:44:01Z</time>
      </trkpt>
      <trkpt lat="59.162631" lon="18.154887">
        <ele>57</ele>
        <time>2019-08-23T08:44:04Z</time>
      </trkpt>
      <trkpt lat="59.162639" lon="18.154839">
        <ele>57</ele>
        <time>2019-08-23T08:44:06Z</time>
      </trkpt>
      <trkpt lat="59.162651" lon="18.154786">
        <ele>57</ele>
        <time>2019-08-23T08:44:07Z</time>
      </trkpt>
      <trkpt lat="59.162661" lon="18.154741">
        <ele>57</ele>
        <time>2019-08-23T08:44:09Z</time>
      </trkpt>
      <trkpt lat="59.162671" lon="18.154692">
        <ele>56</ele>
        <time>2019-08-23T08:44:11Z</time>
      </trkpt>
      <trkpt lat="59.162681" lon="18.154643">
        <ele>56</ele>
        <time>2019-08-23T08:44:14Z</time>
      </trkpt>
      <trkpt lat="59.162691" lon="18.154601">
        <ele>56</ele>
        <time>2019-08-23T08:44:15Z</time>
      </trkpt>
      <trkpt lat="59.162702" lon="18.154556">
        <ele>56</ele>
        <time>2019-08-23T08:44:17Z</time>
      </trkpt>
      <trkpt lat="59.162715" lon="18.154513">
        <ele>56</ele>
        <time>2019-08-23T08:44:19Z</time>
      </trkpt>
      <trkpt lat="59.16273" lon="18.154469">
        <ele>56</ele>
        <time>2019-08-23T08:44:21Z</time>
      </trkpt>
      <trkpt lat="59.162745" lon="18.154426">
        <ele>56</ele>
        <time>2019-08-23T08:44:23Z</time>
      </trkpt>
      <trkpt lat="59.16276" lon="18.154385">
        <ele>56</ele>
        <time>2019-08-23T08:44:25Z</time>
      </trkpt>
      <trkpt lat="59.162769" lon="18.15434">
        <ele>55</ele>
        <time>2019-08-23T08:44:27Z</time>
      </trkpt>
      <trkpt lat="59.16278" lon="18.154298">
        <ele>55</ele>
        <time>2019-08-23T08:44:29Z</time>
      </trkpt>
      <trkpt lat="59.162788" lon="18.154253">
        <ele>55</ele>
        <time>2019-08-23T08:44:31Z</time>
      </trkpt>
      <trkpt lat="59.1628" lon="18.154207">
        <ele>55</ele>
        <time>2019-08-23T08:44:33Z</time>
      </trkpt>
      <trkpt lat="59.162812" lon="18.154155">
        <ele>55</ele>
        <time>2019-08-23T08:44:36Z</time>
      </trkpt>
      <trkpt lat="59.162831" lon="18.154115">
        <ele>56</ele>
        <time>2019-08-23T08:44:37Z</time>
      </trkpt>
      <trkpt lat="59.162858" lon="18.154108">
        <ele>55</ele>
        <time>2019-08-23T08:44:39Z</time>
      </trkpt>
      <trkpt lat="59.162885" lon="18.154107">
        <ele>55</ele>
        <time>2019-08-23T08:44:42Z</time>
      </trkpt>
      <trkpt lat="59.16291" lon="18.15411">
        <ele>55</ele>
        <time>2019-08-23T08:44:43Z</time>
      </trkpt>
      <trkpt lat="59.162935" lon="18.154105">
        <ele>55</ele>
        <time>2019-08-23T08:44:45Z</time>
      </trkpt>
      <trkpt lat="59.16296" lon="18.154113">
        <ele>55</ele>
        <time>2019-08-23T08:44:47Z</time>
      </trkpt>
      <trkpt lat="59.162986" lon="18.154133">
        <ele>55</ele>
        <time>2019-08-23T08:44:49Z</time>
      </trkpt>
      <trkpt lat="59.163011" lon="18.154147">
        <ele>55</ele>
        <time>2019-08-23T08:44:51Z</time>
      </trkpt>
      <trkpt lat="59.163034" lon="18.154163">
        <ele>55</ele>
        <time>2019-08-23T08:44:53Z</time>
      </trkpt>
      <trkpt lat="59.163057" lon="18.154188">
        <ele>55</ele>
        <time>2019-08-23T08:44:56Z</time>
      </trkpt>
      <trkpt lat="59.163082" lon="18.154214">
        <ele>55</ele>
        <time>2019-08-23T08:44:57Z</time>
      </trkpt>
      <trkpt lat="59.163109" lon="18.15423">
        <ele>55</ele>
        <time>2019-08-23T08:44:59Z</time>
      </trkpt>
      <trkpt lat="59.163136" lon="18.154249">
        <ele>55</ele>
        <time>2019-08-23T08:45:01Z</time>
      </trkpt>
      <trkpt lat="59.163161" lon="18.154269">
        <ele>55</ele>
        <time>2019-08-23T08:45:03Z</time>
      </trkpt>
      <trkpt lat="59.163187" lon="18.154287">
        <ele>55</ele>
        <time>2019-08-23T08:45:06Z</time>
      </trkpt>
      <trkpt lat="59.163214" lon="18.154303">
        <ele>55</ele>
        <time>2019-08-23T08:45:07Z</time>
      </trkpt>
      <trkpt lat="59.163239" lon="18.154321">
        <ele>55</ele>
        <time>2019-08-23T08:45:09Z</time>
      </trkpt>
      <trkpt lat="59.163265" lon="18.154336">
        <ele>55</ele>
        <time>2019-08-23T08:45:12Z</time>
      </trkpt>
      <trkpt lat="59.163291" lon="18.154359">
        <ele>55</ele>
        <time>2019-08-23T08:45:13Z</time>
      </trkpt>
      <trkpt lat="59.163316" lon="18.154374">
        <ele>55</ele>
        <time>2019-08-23T08:45:15Z</time>
      </trkpt>
      <trkpt lat="59.163345" lon="18.15439">
        <ele>55</ele>
        <time>2019-08-23T08:45:17Z</time>
      </trkpt>
      <trkpt lat="59.163371" lon="18.154407">
        <ele>55</ele>
        <time>2019-08-23T08:45:20Z</time>
      </trkpt>
      <trkpt lat="59.163399" lon="18.154421">
        <ele>55</ele>
        <time>2019-08-23T08:45:21Z</time>
      </trkpt>
      <trkpt lat="59.163425" lon="18.154434">
        <ele>55</ele>
        <time>2019-08-23T08:45:23Z</time>
      </trkpt>
      <trkpt lat="59.163452" lon="18.154453">
        <ele>55</ele>
        <time>2019-08-23T08:45:25Z</time>
      </trkpt>
      <trkpt lat="59.163477" lon="18.154473">
        <ele>55</ele>
        <time>2019-08-23T08:45:27Z</time>
      </trkpt>
      <trkpt lat="59.163501" lon="18.1545">
        <ele>55</ele>
        <time>2019-08-23T08:45:29Z</time>
      </trkpt>
      <trkpt lat="59.163526" lon="18.154525">
        <ele>55</ele>
        <time>2019-08-23T08:45:32Z</time>
      </trkpt>
      <trkpt lat="59.163551" lon="18.154547">
        <ele>55</ele>
        <time>2019-08-23T08:45:33Z</time>
      </trkpt>
      <trkpt lat="59.163578" lon="18.154569">
        <ele>55</ele>
        <time>2019-08-23T08:45:35Z</time>
      </trkpt>
      <trkpt lat="59.163603" lon="18.154591">
        <ele>55</ele>
        <time>2019-08-23T08:45:37Z</time>
      </trkpt>
      <trkpt lat="59.163629" lon="18.154612">
        <ele>55</ele>
        <time>2019-08-23T08:45:39Z</time>
      </trkpt>
      <trkpt lat="59.163654" lon="18.154638">
        <ele>55</ele>
        <time>2019-08-23T08:45:41Z</time>
      </trkpt>
      <trkpt lat="59.163671" lon="18.15469">
        <ele>55</ele>
        <time>2019-08-23T08:45:43Z</time>
      </trkpt>
      <trkpt lat="59.163689" lon="18.154731">
        <ele>55</ele>
        <time>2019-08-23T08:45:45Z</time>
      </trkpt>
      <trkpt lat="59.163709" lon="18.154767">
        <ele>55</ele>
        <time>2019-08-23T08:45:47Z</time>
      </trkpt>
      <trkpt lat="59.16373" lon="18.154794">
        <ele>55</ele>
        <time>2019-08-23T08:45:49Z</time>
      </trkpt>
      <trkpt lat="59.163748" lon="18.154828">
        <ele>55</ele>
        <time>2019-08-23T08:45:52Z</time>
      </trkpt>
      <trkpt lat="59.16375" lon="18.154882">
        <ele>55</ele>
        <time>2019-08-23T08:45:53Z</time>
      </trkpt>
      <trkpt lat="59.163744" lon="18.154935">
        <ele>55</ele>
        <time>2019-08-23T08:45:56Z</time>
      </trkpt>
      <trkpt lat="59.163735" lon="18.154987">
        <ele>55</ele>
        <time>2019-08-23T08:45:58Z</time>
      </trkpt>
      <trkpt lat="59.163728" lon="18.155035">
        <ele>55</ele>
        <time>2019-08-23T08:46:00Z</time>
      </trkpt>
      <trkpt lat="59.163721" lon="18.155077">
        <ele>55</ele>
        <time>2019-08-23T08:46:01Z</time>
      </trkpt>
      <trkpt lat="59.163725" lon="18.155112">
        <ele>55</ele>
        <time>2019-08-23T08:46:08Z</time>
      </trkpt>
      <trkpt lat="59.163738" lon="18.155147">
        <ele>55</ele>
        <time>2019-08-23T08:46:17Z</time>
      </trkpt>
      <trkpt lat="59.163755" lon="18.155164">
        <ele>55</ele>
        <time>2019-08-23T08:46:19Z</time>
      </trkpt>
      <trkpt lat="59.163774" lon="18.15519">
        <ele>55</ele>
        <time>2019-08-23T08:46:22Z</time>
      </trkpt>
      <trkpt lat="59.163787" lon="18.155221">
        <ele>55</ele>
        <time>2019-08-23T08:46:24Z</time>
      </trkpt>
      <trkpt lat="59.163802" lon="18.155248">
        <ele>55</ele>
        <time>2019-08-23T08:46:27Z</time>
      </trkpt>
      <trkpt lat="59.163823" lon="18.155273">
        <ele>55</ele>
        <time>2019-08-23T08:46:28Z</time>
      </trkpt>
      <trkpt lat="59.163847" lon="18.155308">
        <ele>55</ele>
        <time>2019-08-23T08:46:30Z</time>
      </trkpt>
      <trkpt lat="59.163861" lon="18.155343">
        <ele>55</ele>
        <time>2019-08-23T08:46:31Z</time>
      </trkpt>
      <trkpt lat="59.163874" lon="18.155381">
        <ele>55</ele>
        <time>2019-08-23T08:46:32Z</time>
      </trkpt>
      <trkpt lat="59.163887" lon="18.155419">
        <ele>55</ele>
        <time>2019-08-23T08:46:33Z</time>
      </trkpt>
      <trkpt lat="59.163898" lon="18.155463">
        <ele>55</ele>
        <time>2019-08-23T08:46:35Z</time>
      </trkpt>
      <trkpt lat="59.163909" lon="18.155507">
        <ele>55</ele>
        <time>2019-08-23T08:46:36Z</time>
      </trkpt>
      <trkpt lat="59.163919" lon="18.155548">
        <ele>55</ele>
        <time>2019-08-23T08:46:36Z</time>
      </trkpt>
      <trkpt lat="59.163933" lon="18.15558">
        <ele>55</ele>
        <time>2019-08-23T08:46:38Z</time>
      </trkpt>
      <trkpt lat="59.163955" lon="18.155605">
        <ele>56</ele>
        <time>2019-08-23T08:46:38Z</time>
      </trkpt>
      <trkpt lat="59.163976" lon="18.155624">
        <ele>56</ele>
        <time>2019-08-23T08:46:39Z</time>
      </trkpt>
      <trkpt lat="59.163995" lon="18.155639">
        <ele>56</ele>
        <time>2019-08-23T08:46:40Z</time>
      </trkpt>
      <trkpt lat="59.164015" lon="18.15565">
        <ele>56</ele>
        <time>2019-08-23T08:46:42Z</time>
      </trkpt>
      <trkpt lat="59.164035" lon="18.155665">
        <ele>56</ele>
        <time>2019-08-23T08:46:42Z</time>
      </trkpt>
      <trkpt lat="59.164059" lon="18.155681">
        <ele>56</ele>
        <time>2019-08-23T08:46:43Z</time>
      </trkpt>
      <trkpt lat="59.164081" lon="18.155701">
        <ele>56</ele>
        <time>2019-08-23T08:46:44Z</time>
      </trkpt>
      <trkpt lat="59.164103" lon="18.155711">
        <ele>56</ele>
        <time>2019-08-23T08:46:45Z</time>
      </trkpt>
      <trkpt lat="59.164125" lon="18.15572">
        <ele>56</ele>
        <time>2019-08-23T08:46:46Z</time>
      </trkpt>
      <trkpt lat="59.164147" lon="18.155731">
        <ele>56</ele>
        <time>2019-08-23T08:46:47Z</time>
      </trkpt>
      <trkpt lat="59.164169" lon="18.155742">
        <ele>56</ele>
        <time>2019-08-23T08:46:48Z</time>
      </trkpt>
      <trkpt lat="59.164195" lon="18.155757">
        <ele>56</ele>
        <time>2019-08-23T08:46:50Z</time>
      </trkpt>
      <trkpt lat="59.164218" lon="18.155767">
        <ele>56</ele>
        <time>2019-08-23T08:46:50Z</time>
      </trkpt>
      <trkpt lat="59.164236" lon="18.155775">
        <ele>56</ele>
        <time>2019-08-23T08:46:51Z</time>
      </trkpt>
      <trkpt lat="59.164255" lon="18.155788">
        <ele>56</ele>
        <time>2019-08-23T08:46:53Z</time>
      </trkpt>
      <trkpt lat="59.164278" lon="18.155797">
        <ele>57</ele>
        <time>2019-08-23T08:46:53Z</time>
      </trkpt>
      <trkpt lat="59.164298" lon="18.155804">
        <ele>57</ele>
        <time>2019-08-23T08:46:55Z</time>
      </trkpt>
      <trkpt lat="59.164318" lon="18.155816">
        <ele>57</ele>
        <time>2019-08-23T08:46:55Z</time>
      </trkpt>
      <trkpt lat="59.164336" lon="18.155831">
        <ele>57</ele>
        <time>2019-08-23T08:46:57Z</time>
      </trkpt>
      <trkpt lat="59.164351" lon="18.155854">
        <ele>57</ele>
        <time>2019-08-23T08:46:57Z</time>
      </trkpt>
      <trkpt lat="59.164367" lon="18.155873">
        <ele>58</ele>
        <time>2019-08-23T08:46:58Z</time>
      </trkpt>
      <trkpt lat="59.164383" lon="18.155901">
        <ele>58</ele>
        <time>2019-08-23T08:46:59Z</time>
      </trkpt>
      <trkpt lat="59.164398" lon="18.155927">
        <ele>58</ele>
        <time>2019-08-23T08:47:00Z</time>
      </trkpt>
      <trkpt lat="59.164415" lon="18.155953">
        <ele>59</ele>
        <time>2019-08-23T08:47:01Z</time>
      </trkpt>
      <trkpt lat="59.164433" lon="18.155966">
        <ele>59</ele>
        <time>2019-08-23T08:47:02Z</time>
      </trkpt>
      <trkpt lat="59.164454" lon="18.155978">
        <ele>59</ele>
        <time>2019-08-23T08:47:04Z</time>
      </trkpt>
      <trkpt lat="59.164471" lon="18.15599">
        <ele>59</ele>
        <time>2019-08-23T08:47:04Z</time>
      </trkpt>
      <trkpt lat="59.164496" lon="18.156">
        <ele>59</ele>
        <time>2019-08-23T08:47:05Z</time>
      </trkpt>
      <trkpt lat="59.164518" lon="18.156018">
        <ele>59</ele>
        <time>2019-08-23T08:47:06Z</time>
      </trkpt>
      <trkpt lat="59.164542" lon="18.156031">
        <ele>59</ele>
        <time>2019-08-23T08:47:07Z</time>
      </trkpt>
      <trkpt lat="59.164568" lon="18.156042">
        <ele>60</ele>
        <time>2019-08-23T08:47:09Z</time>
      </trkpt>
      <trkpt lat="59.164592" lon="18.156051">
        <ele>60</ele>
        <time>2019-08-23T08:47:09Z</time>
      </trkpt>
      <trkpt lat="59.164614" lon="18.156079">
        <ele>60</ele>
        <time>2019-08-23T08:47:10Z</time>
      </trkpt>
      <trkpt lat="59.164637" lon="18.156106">
        <ele>60</ele>
        <time>2019-08-23T08:47:12Z</time>
      </trkpt>
      <trkpt lat="59.164658" lon="18.156128">
        <ele>60</ele>
        <time>2019-08-23T08:47:12Z</time>
      </trkpt>
      <trkpt lat="59.164689" lon="18.156139">
        <ele>60</ele>
        <time>2019-08-23T08:47:14Z</time>
      </trkpt>
      <trkpt lat="59.164722" lon="18.15614">
        <ele>60</ele>
        <time>2019-08-23T08:47:14Z</time>
      </trkpt>
      <trkpt lat="59.164754" lon="18.156146">
        <ele>60</ele>
        <time>2019-08-23T08:47:16Z</time>
      </trkpt>
      <trkpt lat="59.164782" lon="18.156167">
        <ele>60</ele>
        <time>2019-08-23T08:47:16Z</time>
      </trkpt>
      <trkpt lat="59.164804" lon="18.156189">
        <ele>60</ele>
        <time>2019-08-23T08:47:17Z</time>
      </trkpt>
      <trkpt lat="59.164828" lon="18.156212">
        <ele>60</ele>
        <time>2019-08-23T08:47:18Z</time>
      </trkpt>
      <trkpt lat="59.164852" lon="18.156233">
        <ele>60</ele>
        <time>2019-08-23T08:47:19Z</time>
      </trkpt>
      <trkpt lat="59.164874" lon="18.156246">
        <ele>60</ele>
        <time>2019-08-23T08:47:20Z</time>
      </trkpt>
      <trkpt lat="59.164899" lon="18.156264">
        <ele>60</ele>
        <time>2019-08-23T08:47:21Z</time>
      </trkpt>
      <trkpt lat="59.164922" lon="18.15628">
        <ele>60</ele>
        <time>2019-08-23T08:47:22Z</time>
      </trkpt>
      <trkpt lat="59.164944" lon="18.156296">
        <ele>60</ele>
        <time>2019-08-23T08:47:24Z</time>
      </trkpt>
      <trkpt lat="59.164967" lon="18.156312">
        <ele>60</ele>
        <time>2019-08-23T08:47:24Z</time>
      </trkpt>
      <trkpt lat="59.164986" lon="18.156326">
        <ele>60</ele>
        <time>2019-08-23T08:47:25Z</time>
      </trkpt>
      <trkpt lat="59.165008" lon="18.156342">
        <ele>60</ele>
        <time>2019-08-23T08:47:26Z</time>
      </trkpt>
      <trkpt lat="59.16503" lon="18.156354">
        <ele>60</ele>
        <time>2019-08-23T08:47:27Z</time>
      </trkpt>
      <trkpt lat="59.165052" lon="18.156372">
        <ele>60</ele>
        <time>2019-08-23T08:47:28Z</time>
      </trkpt>
      <trkpt lat="59.165074" lon="18.15639">
        <ele>60</ele>
        <time>2019-08-23T08:47:30Z</time>
      </trkpt>
      <trkpt lat="59.165096" lon="18.156408">
        <ele>60</ele>
        <time>2019-08-23T08:47:30Z</time>
      </trkpt>
      <trkpt lat="59.165116" lon="18.156427">
        <ele>60</ele>
        <time>2019-08-23T08:47:31Z</time>
      </trkpt>
      <trkpt lat="59.165136" lon="18.156447">
        <ele>60</ele>
        <time>2019-08-23T08:47:33Z</time>
      </trkpt>
      <trkpt lat="59.165156" lon="18.156472">
        <ele>60</ele>
        <time>2019-08-23T08:47:33Z</time>
      </trkpt>
      <trkpt lat="59.165188" lon="18.15649">
        <ele>60</ele>
        <time>2019-08-23T08:47:35Z</time>
      </trkpt>
      <trkpt lat="59.165206" lon="18.156472">
        <ele>60</ele>
        <time>2019-08-23T08:47:36Z</time>
      </trkpt>
      <trkpt lat="59.165231" lon="18.156454">
        <ele>60</ele>
        <time>2019-08-23T08:47:38Z</time>
      </trkpt>
      <trkpt lat="59.165258" lon="18.156445">
        <ele>60</ele>
        <time>2019-08-23T08:47:38Z</time>
      </trkpt>
      <trkpt lat="59.16528" lon="18.156435">
        <ele>60</ele>
        <time>2019-08-23T08:47:39Z</time>
      </trkpt>
      <trkpt lat="59.165302" lon="18.156423">
        <ele>60</ele>
        <time>2019-08-23T08:47:41Z</time>
      </trkpt>
      <trkpt lat="59.165325" lon="18.156421">
        <ele>60</ele>
        <time>2019-08-23T08:47:41Z</time>
      </trkpt>
      <trkpt lat="59.165348" lon="18.156424">
        <ele>60</ele>
        <time>2019-08-23T08:47:42Z</time>
      </trkpt>
      <trkpt lat="59.165371" lon="18.156428">
        <ele>60</ele>
        <time>2019-08-23T08:47:43Z</time>
      </trkpt>
      <trkpt lat="59.165393" lon="18.156434">
        <ele>60</ele>
        <time>2019-08-23T08:47:45Z</time>
      </trkpt>
      <trkpt lat="59.165416" lon="18.156444">
        <ele>59</ele>
        <time>2019-08-23T08:47:45Z</time>
      </trkpt>
      <trkpt lat="59.165442" lon="18.156462">
        <ele>60</ele>
        <time>2019-08-23T08:47:46Z</time>
      </trkpt>
      <trkpt lat="59.165465" lon="18.156469">
        <ele>60</ele>
        <time>2019-08-23T08:47:48Z</time>
      </trkpt>
      <trkpt lat="59.165488" lon="18.15648">
        <ele>60</ele>
        <time>2019-08-23T08:47:48Z</time>
      </trkpt>
      <trkpt lat="59.16551" lon="18.156489">
        <ele>60</ele>
        <time>2019-08-23T08:47:49Z</time>
      </trkpt>
      <trkpt lat="59.165534" lon="18.156501">
        <ele>60</ele>
        <time>2019-08-23T08:47:50Z</time>
      </trkpt>
      <trkpt lat="59.165558" lon="18.15651">
        <ele>60</ele>
        <time>2019-08-23T08:47:52Z</time>
      </trkpt>
      <trkpt lat="59.165582" lon="18.156523">
        <ele>60</ele>
        <time>2019-08-23T08:47:52Z</time>
      </trkpt>
      <trkpt lat="59.165606" lon="18.156539">
        <ele>60</ele>
        <time>2019-08-23T08:47:53Z</time>
      </trkpt>
      <trkpt lat="59.165632" lon="18.156549">
        <ele>60</ele>
        <time>2019-08-23T08:47:54Z</time>
      </trkpt>
      <trkpt lat="59.165659" lon="18.156558">
        <ele>60</ele>
        <time>2019-08-23T08:47:55Z</time>
      </trkpt>
      <trkpt lat="59.165684" lon="18.156566">
        <ele>60</ele>
        <time>2019-08-23T08:47:56Z</time>
      </trkpt>
      <trkpt lat="59.16571" lon="18.156578">
        <ele>60</ele>
        <time>2019-08-23T08:47:57Z</time>
      </trkpt>
      <trkpt lat="59.165736" lon="18.156592">
        <ele>60</ele>
        <time>2019-08-23T08:47:58Z</time>
      </trkpt>
      <trkpt lat="59.165758" lon="18.156603">
        <ele>60</ele>
        <time>2019-08-23T08:48:00Z</time>
      </trkpt>
      <trkpt lat="59.16578" lon="18.156615">
        <ele>60</ele>
        <time>2019-08-23T08:48:00Z</time>
      </trkpt>
      <trkpt lat="59.165804" lon="18.156625">
        <ele>60</ele>
        <time>2019-08-23T08:48:01Z</time>
      </trkpt>
      <trkpt lat="59.165827" lon="18.156637">
        <ele>60</ele>
        <time>2019-08-23T08:48:03Z</time>
      </trkpt>
      <trkpt lat="59.16585" lon="18.156646">
        <ele>60</ele>
        <time>2019-08-23T08:48:03Z</time>
      </trkpt>
      <trkpt lat="59.165872" lon="18.156657">
        <ele>60</ele>
        <time>2019-08-23T08:48:04Z</time>
      </trkpt>
      <trkpt lat="59.165892" lon="18.156668">
        <ele>60</ele>
        <time>2019-08-23T08:48:05Z</time>
      </trkpt>
      <trkpt lat="59.165911" lon="18.15668">
        <ele>60</ele>
        <time>2019-08-23T08:48:07Z</time>
      </trkpt>
      <trkpt lat="59.165932" lon="18.156685">
        <ele>60</ele>
        <time>2019-08-23T08:48:07Z</time>
      </trkpt>
      <trkpt lat="59.165952" lon="18.156687">
        <ele>60</ele>
        <time>2019-08-23T08:48:08Z</time>
      </trkpt>
      <trkpt lat="59.165971" lon="18.156694">
        <ele>61</ele>
        <time>2019-08-23T08:48:09Z</time>
      </trkpt>
      <trkpt lat="59.165989" lon="18.156702">
        <ele>61</ele>
        <time>2019-08-23T08:48:11Z</time>
      </trkpt>
      <trkpt lat="59.166007" lon="18.156715">
        <ele>61</ele>
        <time>2019-08-23T08:48:11Z</time>
      </trkpt>
      <trkpt lat="59.166026" lon="18.156725">
        <ele>61</ele>
        <time>2019-08-23T08:48:12Z</time>
      </trkpt>
      <trkpt lat="59.166045" lon="18.15674">
        <ele>61</ele>
        <time>2019-08-23T08:48:13Z</time>
      </trkpt>
      <trkpt lat="59.166062" lon="18.156751">
        <ele>62</ele>
        <time>2019-08-23T08:48:14Z</time>
      </trkpt>
      <trkpt lat="59.166081" lon="18.15676">
        <ele>62</ele>
        <time>2019-08-23T08:48:16Z</time>
      </trkpt>
      <trkpt lat="59.166103" lon="18.156768">
        <ele>62</ele>
        <time>2019-08-23T08:48:16Z</time>
      </trkpt>
      <trkpt lat="59.166124" lon="18.156781">
        <ele>62</ele>
        <time>2019-08-23T08:48:17Z</time>
      </trkpt>
      <trkpt lat="59.166147" lon="18.156801">
        <ele>62</ele>
        <time>2019-08-23T08:48:19Z</time>
      </trkpt>
      <trkpt lat="59.166169" lon="18.156817">
        <ele>62</ele>
        <time>2019-08-23T08:48:19Z</time>
      </trkpt>
      <trkpt lat="59.166189" lon="18.15682">
        <ele>62</ele>
        <time>2019-08-23T08:48:20Z</time>
      </trkpt>
      <trkpt lat="59.166209" lon="18.156811">
        <ele>62</ele>
        <time>2019-08-23T08:48:22Z</time>
      </trkpt>
      <trkpt lat="59.166225" lon="18.156793">
        <ele>62</ele>
        <time>2019-08-23T08:48:22Z</time>
      </trkpt>
      <trkpt lat="59.166244" lon="18.15674">
        <ele>62</ele>
        <time>2019-08-23T08:48:24Z</time>
      </trkpt>
      <trkpt lat="59.166251" lon="18.156706">
        <ele>62</ele>
        <time>2019-08-23T08:48:25Z</time>
      </trkpt>
      <trkpt lat="59.166259" lon="18.156672">
        <ele>62</ele>
        <time>2019-08-23T08:48:27Z</time>
      </trkpt>
      <trkpt lat="59.166268" lon="18.15664">
        <ele>62</ele>
        <time>2019-08-23T08:48:27Z</time>
      </trkpt>
      <trkpt lat="59.166276" lon="18.156608">
        <ele>62</ele>
        <time>2019-08-23T08:48:28Z</time>
      </trkpt>
      <trkpt lat="59.166292" lon="18.156544">
        <ele>63</ele>
        <time>2019-08-23T08:48:31Z</time>
      </trkpt>
      <trkpt lat="59.166302" lon="18.156469">
        <ele>63</ele>
        <time>2019-08-23T08:48:32Z</time>
      </trkpt>
      <trkpt lat="59.166313" lon="18.156429">
        <ele>63</ele>
        <time>2019-08-23T08:48:33Z</time>
      </trkpt>
      <trkpt lat="59.166324" lon="18.156396">
        <ele>63</ele>
        <time>2019-08-23T08:48:34Z</time>
      </trkpt>
      <trkpt lat="59.166333" lon="18.156364">
        <ele>63</ele>
        <time>2019-08-23T08:48:35Z</time>
      </trkpt>
      <trkpt lat="59.166345" lon="18.156334">
        <ele>63</ele>
        <time>2019-08-23T08:48:36Z</time>
      </trkpt>
      <trkpt lat="59.166355" lon="18.156291">
        <ele>63</ele>
        <time>2019-08-23T08:48:37Z</time>
      </trkpt>
      <trkpt lat="59.166365" lon="18.156251">
        <ele>63</ele>
        <time>2019-08-23T08:48:39Z</time>
      </trkpt>
      <trkpt lat="59.166378" lon="18.156217">
        <ele>63</ele>
        <time>2019-08-23T08:48:39Z</time>
      </trkpt>
      <trkpt lat="59.166388" lon="18.156182">
        <ele>63</ele>
        <time>2019-08-23T08:48:40Z</time>
      </trkpt>
      <trkpt lat="59.166396" lon="18.156143">
        <ele>64</ele>
        <time>2019-08-23T08:48:42Z</time>
      </trkpt>
      <trkpt lat="59.166407" lon="18.156102">
        <ele>64</ele>
        <time>2019-08-23T08:48:42Z</time>
      </trkpt>
      <trkpt lat="59.166415" lon="18.156053">
        <ele>64</ele>
        <time>2019-08-23T08:48:43Z</time>
      </trkpt>
      <trkpt lat="59.166421" lon="18.156013">
        <ele>64</ele>
        <time>2019-08-23T08:48:44Z</time>
      </trkpt>
      <trkpt lat="59.166427" lon="18.155973">
        <ele>64</ele>
        <time>2019-08-23T08:48:45Z</time>
      </trkpt>
      <trkpt lat="59.166433" lon="18.155934">
        <ele>64</ele>
        <time>2019-08-23T08:48:46Z</time>
      </trkpt>
      <trkpt lat="59.166442" lon="18.155894">
        <ele>64</ele>
        <time>2019-08-23T08:48:47Z</time>
      </trkpt>
      <trkpt lat="59.166453" lon="18.155863">
        <ele>64</ele>
        <time>2019-08-23T08:48:49Z</time>
      </trkpt>
      <trkpt lat="59.166464" lon="18.155824">
        <ele>64</ele>
        <time>2019-08-23T08:48:49Z</time>
      </trkpt>
      <trkpt lat="59.166474" lon="18.155788">
        <ele>65</ele>
        <time>2019-08-23T08:48:50Z</time>
      </trkpt>
      <trkpt lat="59.166484" lon="18.155752">
        <ele>65</ele>
        <time>2019-08-23T08:48:51Z</time>
      </trkpt>
      <trkpt lat="59.166493" lon="18.15572">
        <ele>65</ele>
        <time>2019-08-23T08:48:52Z</time>
      </trkpt>
      <trkpt lat="59.166501" lon="18.155687">
        <ele>65</ele>
        <time>2019-08-23T08:48:53Z</time>
      </trkpt>
      <trkpt lat="59.16651" lon="18.155647">
        <ele>65</ele>
        <time>2019-08-23T08:48:55Z</time>
      </trkpt>
      <trkpt lat="59.166519" lon="18.155607">
        <ele>65</ele>
        <time>2019-08-23T08:48:55Z</time>
      </trkpt>
      <trkpt lat="59.166526" lon="18.155561">
        <ele>65</ele>
        <time>2019-08-23T08:48:56Z</time>
      </trkpt>
      <trkpt lat="59.166536" lon="18.155514">
        <ele>65</ele>
        <time>2019-08-23T08:48:57Z</time>
      </trkpt>
      <trkpt lat="59.166547" lon="18.155475">
        <ele>65</ele>
        <time>2019-08-23T08:48:58Z</time>
      </trkpt>
      <trkpt lat="59.166567" lon="18.155447">
        <ele>65</ele>
        <time>2019-08-23T08:48:59Z</time>
      </trkpt>
      <trkpt lat="59.166588" lon="18.155428">
        <ele>65</ele>
        <time>2019-08-23T08:49:00Z</time>
      </trkpt>
      <trkpt lat="59.166612" lon="18.155412">
        <ele>65</ele>
        <time>2019-08-23T08:49:01Z</time>
      </trkpt>
      <trkpt lat="59.166634" lon="18.155397">
        <ele>65</ele>
        <time>2019-08-23T08:49:03Z</time>
      </trkpt>
      <trkpt lat="59.166657" lon="18.15538">
        <ele>65</ele>
        <time>2019-08-23T08:49:03Z</time>
      </trkpt>
      <trkpt lat="59.166679" lon="18.155367">
        <ele>66</ele>
        <time>2019-08-23T08:49:04Z</time>
      </trkpt>
      <trkpt lat="59.1667" lon="18.155355">
        <ele>66</ele>
        <time>2019-08-23T08:49:06Z</time>
      </trkpt>
      <trkpt lat="59.166724" lon="18.155346">
        <ele>66</ele>
        <time>2019-08-23T08:49:06Z</time>
      </trkpt>
      <trkpt lat="59.166745" lon="18.155339">
        <ele>66</ele>
        <time>2019-08-23T08:49:08Z</time>
      </trkpt>
      <trkpt lat="59.166767" lon="18.155334">
        <ele>65</ele>
        <time>2019-08-23T08:49:08Z</time>
      </trkpt>
      <trkpt lat="59.166789" lon="18.15533">
        <ele>65</ele>
        <time>2019-08-23T08:49:10Z</time>
      </trkpt>
      <trkpt lat="59.166812" lon="18.155322">
        <ele>65</ele>
        <time>2019-08-23T08:49:10Z</time>
      </trkpt>
      <trkpt lat="59.166834" lon="18.155308">
        <ele>65</ele>
        <time>2019-08-23T08:49:11Z</time>
      </trkpt>
      <trkpt lat="59.166854" lon="18.155284">
        <ele>65</ele>
        <time>2019-08-23T08:49:12Z</time>
      </trkpt>
      <trkpt lat="59.166869" lon="18.155252">
        <ele>65</ele>
        <time>2019-08-23T08:49:13Z</time>
      </trkpt>
      <trkpt lat="59.166879" lon="18.155215">
        <ele>65</ele>
        <time>2019-08-23T08:49:14Z</time>
      </trkpt>
      <trkpt lat="59.16689" lon="18.155175">
        <ele>65</ele>
        <time>2019-08-23T08:49:15Z</time>
      </trkpt>
      <trkpt lat="59.166897" lon="18.155142">
        <ele>65</ele>
        <time>2019-08-23T08:49:17Z</time>
      </trkpt>
      <trkpt lat="59.166903" lon="18.155102">
        <ele>65</ele>
        <time>2019-08-23T08:49:17Z</time>
      </trkpt>
      <trkpt lat="59.166911" lon="18.155064">
        <ele>65</ele>
        <time>2019-08-23T08:49:19Z</time>
      </trkpt>
      <trkpt lat="59.166918" lon="18.155025">
        <ele>66</ele>
        <time>2019-08-23T08:49:19Z</time>
      </trkpt>
      <trkpt lat="59.166923" lon="18.154989">
        <ele>66</ele>
        <time>2019-08-23T08:49:20Z</time>
      </trkpt>
      <trkpt lat="59.166928" lon="18.154955">
        <ele>66</ele>
        <time>2019-08-23T08:49:21Z</time>
      </trkpt>
      <trkpt lat="59.166934" lon="18.154914">
        <ele>66</ele>
        <time>2019-08-23T08:49:22Z</time>
      </trkpt>
      <trkpt lat="59.166941" lon="18.15487">
        <ele>66</ele>
        <time>2019-08-23T08:49:23Z</time>
      </trkpt>
      <trkpt lat="59.166948" lon="18.154829">
        <ele>66</ele>
        <time>2019-08-23T08:49:24Z</time>
      </trkpt>
      <trkpt lat="59.166958" lon="18.154788">
        <ele>66</ele>
        <time>2019-08-23T08:49:25Z</time>
      </trkpt>
      <trkpt lat="59.166967" lon="18.154746">
        <ele>66</ele>
        <time>2019-08-23T08:49:27Z</time>
      </trkpt>
      <trkpt lat="59.166974" lon="18.154707">
        <ele>66</ele>
        <time>2019-08-23T08:49:27Z</time>
      </trkpt>
      <trkpt lat="59.166984" lon="18.154665">
        <ele>66</ele>
        <time>2019-08-23T08:49:28Z</time>
      </trkpt>
      <trkpt lat="59.166991" lon="18.15462">
        <ele>66</ele>
        <time>2019-08-23T08:49:29Z</time>
      </trkpt>
      <trkpt lat="59.166999" lon="18.154577">
        <ele>66</ele>
        <time>2019-08-23T08:49:30Z</time>
      </trkpt>
      <trkpt lat="59.167008" lon="18.154536">
        <ele>66</ele>
        <time>2019-08-23T08:49:31Z</time>
      </trkpt>
      <trkpt lat="59.167016" lon="18.154496">
        <ele>66</ele>
        <time>2019-08-23T08:49:32Z</time>
      </trkpt>
      <trkpt lat="59.167021" lon="18.154444">
        <ele>67</ele>
        <time>2019-08-23T08:49:33Z</time>
      </trkpt>
      <trkpt lat="59.167028" lon="18.154397">
        <ele>67</ele>
        <time>2019-08-23T08:49:35Z</time>
      </trkpt>
      <trkpt lat="59.167033" lon="18.154352">
        <ele>67</ele>
        <time>2019-08-23T08:49:35Z</time>
      </trkpt>
      <trkpt lat="59.167041" lon="18.154311">
        <ele>67</ele>
        <time>2019-08-23T08:49:36Z</time>
      </trkpt>
      <trkpt lat="59.167047" lon="18.154272">
        <ele>67</ele>
        <time>2019-08-23T08:49:38Z</time>
      </trkpt>
      <trkpt lat="59.167052" lon="18.154224">
        <ele>67</ele>
        <time>2019-08-23T08:49:39Z</time>
      </trkpt>
      <trkpt lat="59.167057" lon="18.154175">
        <ele>67</ele>
        <time>2019-08-23T08:49:39Z</time>
      </trkpt>
      <trkpt lat="59.167063" lon="18.15413">
        <ele>67</ele>
        <time>2019-08-23T08:49:40Z</time>
      </trkpt>
      <trkpt lat="59.167071" lon="18.154085">
        <ele>67</ele>
        <time>2019-08-23T08:49:41Z</time>
      </trkpt>
      <trkpt lat="59.167078" lon="18.15404">
        <ele>68</ele>
        <time>2019-08-23T08:49:42Z</time>
      </trkpt>
      <trkpt lat="59.16708" lon="18.153991">
        <ele>68</ele>
        <time>2019-08-23T08:49:43Z</time>
      </trkpt>
      <trkpt lat="59.167087" lon="18.153946">
        <ele>68</ele>
        <time>2019-08-23T08:49:44Z</time>
      </trkpt>
      <trkpt lat="59.167092" lon="18.153904">
        <ele>68</ele>
        <time>2019-08-23T08:49:46Z</time>
      </trkpt>
      <trkpt lat="59.1671" lon="18.153863">
        <ele>68</ele>
        <time>2019-08-23T08:49:46Z</time>
      </trkpt>
      <trkpt lat="59.167108" lon="18.153822">
        <ele>68</ele>
        <time>2019-08-23T08:49:48Z</time>
      </trkpt>
      <trkpt lat="59.167113" lon="18.153777">
        <ele>68</ele>
        <time>2019-08-23T08:49:48Z</time>
      </trkpt>
      <trkpt lat="59.167118" lon="18.153732">
        <ele>69</ele>
        <time>2019-08-23T08:49:49Z</time>
      </trkpt>
      <trkpt lat="59.167123" lon="18.153687">
        <ele>69</ele>
        <time>2019-08-23T08:49:50Z</time>
      </trkpt>
      <trkpt lat="59.167129" lon="18.153648">
        <ele>69</ele>
        <time>2019-08-23T08:49:51Z</time>
      </trkpt>
      <trkpt lat="59.167135" lon="18.153608">
        <ele>69</ele>
        <time>2019-08-23T08:49:52Z</time>
      </trkpt>
      <trkpt lat="59.167145" lon="18.153569">
        <ele>69</ele>
        <time>2019-08-23T08:49:53Z</time>
      </trkpt>
      <trkpt lat="59.167156" lon="18.153525">
        <ele>69</ele>
        <time>2019-08-23T08:49:54Z</time>
      </trkpt>
      <trkpt lat="59.167165" lon="18.153481">
        <ele>69</ele>
        <time>2019-08-23T08:49:56Z</time>
      </trkpt>
      <trkpt lat="59.167176" lon="18.153439">
        <ele>70</ele>
        <time>2019-08-23T08:49:56Z</time>
      </trkpt>
      <trkpt lat="59.167187" lon="18.153394">
        <ele>70</ele>
        <time>2019-08-23T08:49:57Z</time>
      </trkpt>
      <trkpt lat="59.167198" lon="18.153354">
        <ele>70</ele>
        <time>2019-08-23T08:49:59Z</time>
      </trkpt>
      <trkpt lat="59.167211" lon="18.153315">
        <ele>69</ele>
        <time>2019-08-23T08:49:59Z</time>
      </trkpt>
      <trkpt lat="59.167224" lon="18.153279">
        <ele>69</ele>
        <time>2019-08-23T08:50:01Z</time>
      </trkpt>
      <trkpt lat="59.167237" lon="18.153238">
        <ele>69</ele>
        <time>2019-08-23T08:50:01Z</time>
      </trkpt>
      <trkpt lat="59.167251" lon="18.153202">
        <ele>69</ele>
        <time>2019-08-23T08:50:02Z</time>
      </trkpt>
      <trkpt lat="59.167263" lon="18.153166">
        <ele>69</ele>
        <time>2019-08-23T08:50:03Z</time>
      </trkpt>
      <trkpt lat="59.167272" lon="18.15313">
        <ele>69</ele>
        <time>2019-08-23T08:50:05Z</time>
      </trkpt>
      <trkpt lat="59.16728" lon="18.153095">
        <ele>69</ele>
        <time>2019-08-23T08:50:05Z</time>
      </trkpt>
      <trkpt lat="59.167287" lon="18.153054">
        <ele>69</ele>
        <time>2019-08-23T08:50:07Z</time>
      </trkpt>
      <trkpt lat="59.167294" lon="18.153017">
        <ele>69</ele>
        <time>2019-08-23T08:50:07Z</time>
      </trkpt>
      <trkpt lat="59.1673" lon="18.152978">
        <ele>69</ele>
        <time>2019-08-23T08:50:08Z</time>
      </trkpt>
      <trkpt lat="59.167304" lon="18.15294">
        <ele>69</ele>
        <time>2019-08-23T08:50:09Z</time>
      </trkpt>
      <trkpt lat="59.167313" lon="18.152865">
        <ele>70</ele>
        <time>2019-08-23T08:50:11Z</time>
      </trkpt>
      <trkpt lat="59.167318" lon="18.152823">
        <ele>70</ele>
        <time>2019-08-23T08:50:12Z</time>
      </trkpt>
      <trkpt lat="59.167321" lon="18.152783">
        <ele>70</ele>
        <time>2019-08-23T08:50:13Z</time>
      </trkpt>
      <trkpt lat="59.167325" lon="18.152742">
        <ele>71</ele>
        <time>2019-08-23T08:50:15Z</time>
      </trkpt>
      <trkpt lat="59.167328" lon="18.152698">
        <ele>71</ele>
        <time>2019-08-23T08:50:15Z</time>
      </trkpt>
      <trkpt lat="59.16733" lon="18.152653">
        <ele>71</ele>
        <time>2019-08-23T08:50:16Z</time>
      </trkpt>
      <trkpt lat="59.167333" lon="18.152609">
        <ele>71</ele>
        <time>2019-08-23T08:50:18Z</time>
      </trkpt>
      <trkpt lat="59.167334" lon="18.152564">
        <ele>71</ele>
        <time>2019-08-23T08:50:18Z</time>
      </trkpt>
      <trkpt lat="59.167335" lon="18.152523">
        <ele>72</ele>
        <time>2019-08-23T08:50:19Z</time>
      </trkpt>
      <trkpt lat="59.167336" lon="18.152481">
        <ele>72</ele>
        <time>2019-08-23T08:50:21Z</time>
      </trkpt>
      <trkpt lat="59.167338" lon="18.152438">
        <ele>72</ele>
        <time>2019-08-23T08:50:22Z</time>
      </trkpt>
      <trkpt lat="59.167343" lon="18.152394">
        <ele>72</ele>
        <time>2019-08-23T08:50:22Z</time>
      </trkpt>
      <trkpt lat="59.167346" lon="18.152346">
        <ele>72</ele>
        <time>2019-08-23T08:50:24Z</time>
      </trkpt>
      <trkpt lat="59.167349" lon="18.1523">
        <ele>72</ele>
        <time>2019-08-23T08:50:24Z</time>
      </trkpt>
      <trkpt lat="59.167353" lon="18.152256">
        <ele>72</ele>
        <time>2019-08-23T08:50:26Z</time>
      </trkpt>
      <trkpt lat="59.167359" lon="18.152214">
        <ele>72</ele>
        <time>2019-08-23T08:50:26Z</time>
      </trkpt>
      <trkpt lat="59.167366" lon="18.152171">
        <ele>72</ele>
        <time>2019-08-23T08:50:27Z</time>
      </trkpt>
      <trkpt lat="59.167377" lon="18.152129">
        <ele>72</ele>
        <time>2019-08-23T08:50:28Z</time>
      </trkpt>
      <trkpt lat="59.167385" lon="18.152084">
        <ele>73</ele>
        <time>2019-08-23T08:50:29Z</time>
      </trkpt>
      <trkpt lat="59.167393" lon="18.152039">
        <ele>73</ele>
        <time>2019-08-23T08:50:31Z</time>
      </trkpt>
      <trkpt lat="59.1674" lon="18.151998">
        <ele>73</ele>
        <time>2019-08-23T08:50:31Z</time>
      </trkpt>
      <trkpt lat="59.167407" lon="18.151956">
        <ele>73</ele>
        <time>2019-08-23T08:50:32Z</time>
      </trkpt>
      <trkpt lat="59.167413" lon="18.151913">
        <ele>73</ele>
        <time>2019-08-23T08:50:34Z</time>
      </trkpt>
      <trkpt lat="59.167419" lon="18.151871">
        <ele>73</ele>
        <time>2019-08-23T08:50:34Z</time>
      </trkpt>
      <trkpt lat="59.16743" lon="18.151824">
        <ele>73</ele>
        <time>2019-08-23T08:50:35Z</time>
      </trkpt>
      <trkpt lat="59.167438" lon="18.151783">
        <ele>73</ele>
        <time>2019-08-23T08:50:37Z</time>
      </trkpt>
      <trkpt lat="59.167446" lon="18.15174">
        <ele>73</ele>
        <time>2019-08-23T08:50:37Z</time>
      </trkpt>
      <trkpt lat="59.167453" lon="18.151695">
        <ele>73</ele>
        <time>2019-08-23T08:50:38Z</time>
      </trkpt>
      <trkpt lat="59.16746" lon="18.151649">
        <ele>73</ele>
        <time>2019-08-23T08:50:39Z</time>
      </trkpt>
      <trkpt lat="59.167469" lon="18.151604">
        <ele>74</ele>
        <time>2019-08-23T08:50:40Z</time>
      </trkpt>
      <trkpt lat="59.167478" lon="18.151564">
        <ele>74</ele>
        <time>2019-08-23T08:50:42Z</time>
      </trkpt>
      <trkpt lat="59.167485" lon="18.15152">
        <ele>74</ele>
        <time>2019-08-23T08:50:43Z</time>
      </trkpt>
      <trkpt lat="59.167496" lon="18.151479">
        <ele>74</ele>
        <time>2019-08-23T08:50:44Z</time>
      </trkpt>
      <trkpt lat="59.167505" lon="18.151439">
        <ele>74</ele>
        <time>2019-08-23T08:50:44Z</time>
      </trkpt>
      <trkpt lat="59.167514" lon="18.151395">
        <ele>74</ele>
        <time>2019-08-23T08:50:45Z</time>
      </trkpt>
      <trkpt lat="59.167522" lon="18.151352">
        <ele>74</ele>
        <time>2019-08-23T08:50:46Z</time>
      </trkpt>
      <trkpt lat="59.16753" lon="18.151309">
        <ele>74</ele>
        <time>2019-08-23T08:50:47Z</time>
      </trkpt>
      <trkpt lat="59.167538" lon="18.151266">
        <ele>74</ele>
        <time>2019-08-23T08:50:48Z</time>
      </trkpt>
      <trkpt lat="59.167545" lon="18.151224">
        <ele>74</ele>
        <time>2019-08-23T08:50:49Z</time>
      </trkpt>
      <trkpt lat="59.167555" lon="18.151178">
        <ele>74</ele>
        <time>2019-08-23T08:50:50Z</time>
      </trkpt>
      <trkpt lat="59.167566" lon="18.151135">
        <ele>74</ele>
        <time>2019-08-23T08:50:52Z</time>
      </trkpt>
      <trkpt lat="59.167578" lon="18.151096">
        <ele>74</ele>
        <time>2019-08-23T08:50:52Z</time>
      </trkpt>
      <trkpt lat="59.167593" lon="18.151058">
        <ele>74</ele>
        <time>2019-08-23T08:50:53Z</time>
      </trkpt>
      <trkpt lat="59.167616" lon="18.151031">
        <ele>74</ele>
        <time>2019-08-23T08:50:55Z</time>
      </trkpt>
      <trkpt lat="59.167643" lon="18.151008">
        <ele>73</ele>
        <time>2019-08-23T08:50:55Z</time>
      </trkpt>
      <trkpt lat="59.167668" lon="18.15099">
        <ele>73</ele>
        <time>2019-08-23T08:50:56Z</time>
      </trkpt>
      <trkpt lat="59.167695" lon="18.150972">
        <ele>73</ele>
        <time>2019-08-23T08:50:57Z</time>
      </trkpt>
      <trkpt lat="59.167723" lon="18.150963">
        <ele>72</ele>
        <time>2019-08-23T08:50:58Z</time>
      </trkpt>
      <trkpt lat="59.167753" lon="18.150972">
        <ele>72</ele>
        <time>2019-08-23T08:50:59Z</time>
      </trkpt>
      <trkpt lat="59.16778" lon="18.150973">
        <ele>72</ele>
        <time>2019-08-23T08:51:00Z</time>
      </trkpt>
      <trkpt lat="59.167802" lon="18.150956">
        <ele>72</ele>
        <time>2019-08-23T08:51:02Z</time>
      </trkpt>
      <trkpt lat="59.167823" lon="18.15093">
        <ele>71</ele>
        <time>2019-08-23T08:51:02Z</time>
      </trkpt>
      <trkpt lat="59.167841" lon="18.150899">
        <ele>71</ele>
        <time>2019-08-23T08:51:04Z</time>
      </trkpt>
      <trkpt lat="59.167855" lon="18.150865">
        <ele>71</ele>
        <time>2019-08-23T08:51:05Z</time>
      </trkpt>
      <trkpt lat="59.167867" lon="18.150823">
        <ele>71</ele>
        <time>2019-08-23T08:51:05Z</time>
      </trkpt>
      <trkpt lat="59.167876" lon="18.150782">
        <ele>71</ele>
        <time>2019-08-23T08:51:06Z</time>
      </trkpt>
      <trkpt lat="59.167887" lon="18.150743">
        <ele>71</ele>
        <time>2019-08-23T08:51:07Z</time>
      </trkpt>
      <trkpt lat="59.167904" lon="18.150709">
        <ele>70</ele>
        <time>2019-08-23T08:51:08Z</time>
      </trkpt>
      <trkpt lat="59.167924" lon="18.150678">
        <ele>70</ele>
        <time>2019-08-23T08:51:09Z</time>
      </trkpt>
      <trkpt lat="59.167947" lon="18.150645">
        <ele>70</ele>
        <time>2019-08-23T08:51:10Z</time>
      </trkpt>
      <trkpt lat="59.167969" lon="18.15061">
        <ele>69</ele>
        <time>2019-08-23T08:51:11Z</time>
      </trkpt>
      <trkpt lat="59.16799" lon="18.150577">
        <ele>69</ele>
        <time>2019-08-23T08:51:13Z</time>
      </trkpt>
      <trkpt lat="59.168011" lon="18.150542">
        <ele>69</ele>
        <time>2019-08-23T08:51:13Z</time>
      </trkpt>
      <trkpt lat="59.168028" lon="18.150499">
        <ele>69</ele>
        <time>2019-08-23T08:51:14Z</time>
      </trkpt>
      <trkpt lat="59.168046" lon="18.15046">
        <ele>69</ele>
        <time>2019-08-23T08:51:16Z</time>
      </trkpt>
      <trkpt lat="59.168064" lon="18.150422">
        <ele>69</ele>
        <time>2019-08-23T08:51:16Z</time>
      </trkpt>
      <trkpt lat="59.168078" lon="18.150385">
        <ele>69</ele>
        <time>2019-08-23T08:51:17Z</time>
      </trkpt>
      <trkpt lat="59.168094" lon="18.150342">
        <ele>69</ele>
        <time>2019-08-23T08:51:18Z</time>
      </trkpt>
      <trkpt lat="59.16811" lon="18.150298">
        <ele>69</ele>
        <time>2019-08-23T08:51:19Z</time>
      </trkpt>
      <trkpt lat="59.168127" lon="18.150254">
        <ele>68</ele>
        <time>2019-08-23T08:51:21Z</time>
      </trkpt>
      <trkpt lat="59.168144" lon="18.150211">
        <ele>68</ele>
        <time>2019-08-23T08:51:21Z</time>
      </trkpt>
      <trkpt lat="59.168158" lon="18.150165">
        <ele>68</ele>
        <time>2019-08-23T08:51:23Z</time>
      </trkpt>
      <trkpt lat="59.168173" lon="18.150125">
        <ele>68</ele>
        <time>2019-08-23T08:51:23Z</time>
      </trkpt>
      <trkpt lat="59.168187" lon="18.150085">
        <ele>68</ele>
        <time>2019-08-23T08:51:24Z</time>
      </trkpt>
      <trkpt lat="59.168201" lon="18.15005">
        <ele>68</ele>
        <time>2019-08-23T08:51:26Z</time>
      </trkpt>
      <trkpt lat="59.168217" lon="18.150012">
        <ele>68</ele>
        <time>2019-08-23T08:51:26Z</time>
      </trkpt>
      <trkpt lat="59.16823" lon="18.149973">
        <ele>68</ele>
        <time>2019-08-23T08:51:27Z</time>
      </trkpt>
      <trkpt lat="59.168243" lon="18.149933">
        <ele>68</ele>
        <time>2019-08-23T08:51:29Z</time>
      </trkpt>
      <trkpt lat="59.168257" lon="18.149892">
        <ele>68</ele>
        <time>2019-08-23T08:51:29Z</time>
      </trkpt>
      <trkpt lat="59.16827" lon="18.14985">
        <ele>68</ele>
        <time>2019-08-23T08:51:30Z</time>
      </trkpt>
      <trkpt lat="59.168286" lon="18.149812">
        <ele>68</ele>
        <time>2019-08-23T08:51:31Z</time>
      </trkpt>
      <trkpt lat="59.168301" lon="18.149773">
        <ele>68</ele>
        <time>2019-08-23T08:51:32Z</time>
      </trkpt>
      <trkpt lat="59.168318" lon="18.149735">
        <ele>68</ele>
        <time>2019-08-23T08:51:34Z</time>
      </trkpt>
      <trkpt lat="59.168335" lon="18.149698">
        <ele>68</ele>
        <time>2019-08-23T08:51:34Z</time>
      </trkpt>
      <trkpt lat="59.168352" lon="18.149662">
        <ele>68</ele>
        <time>2019-08-23T08:51:36Z</time>
      </trkpt>
      <trkpt lat="59.168371" lon="18.149626">
        <ele>68</ele>
        <time>2019-08-23T08:51:37Z</time>
      </trkpt>
      <trkpt lat="59.168388" lon="18.149592">
        <ele>68</ele>
        <time>2019-08-23T08:51:37Z</time>
      </trkpt>
      <trkpt lat="59.168405" lon="18.149557">
        <ele>68</ele>
        <time>2019-08-23T08:51:39Z</time>
      </trkpt>
      <trkpt lat="59.16842" lon="18.149517">
        <ele>68</ele>
        <time>2019-08-23T08:51:40Z</time>
      </trkpt>
      <trkpt lat="59.168439" lon="18.149486">
        <ele>68</ele>
        <time>2019-08-23T08:51:40Z</time>
      </trkpt>
      <trkpt lat="59.168456" lon="18.149454">
        <ele>68</ele>
        <time>2019-08-23T08:51:42Z</time>
      </trkpt>
      <trkpt lat="59.168474" lon="18.149423">
        <ele>67</ele>
        <time>2019-08-23T08:51:42Z</time>
      </trkpt>
      <trkpt lat="59.168492" lon="18.14939">
        <ele>67</ele>
        <time>2019-08-23T08:51:44Z</time>
      </trkpt>
      <trkpt lat="59.16851" lon="18.149361">
        <ele>67</ele>
        <time>2019-08-23T08:51:44Z</time>
      </trkpt>
      <trkpt lat="59.168532" lon="18.149334">
        <ele>67</ele>
        <time>2019-08-23T08:51:45Z</time>
      </trkpt>
      <trkpt lat="59.168555" lon="18.149312">
        <ele>67</ele>
        <time>2019-08-23T08:51:46Z</time>
      </trkpt>
      <trkpt lat="59.168577" lon="18.149294">
        <ele>66</ele>
        <time>2019-08-23T08:51:47Z</time>
      </trkpt>
      <trkpt lat="59.168601" lon="18.149276">
        <ele>66</ele>
        <time>2019-08-23T08:51:48Z</time>
      </trkpt>
      <trkpt lat="59.168623" lon="18.14926">
        <ele>66</ele>
        <time>2019-08-23T08:51:49Z</time>
      </trkpt>
      <trkpt lat="59.168647" lon="18.149242">
        <ele>66</ele>
        <time>2019-08-23T08:51:50Z</time>
      </trkpt>
      <trkpt lat="59.168669" lon="18.149224">
        <ele>66</ele>
        <time>2019-08-23T08:51:52Z</time>
      </trkpt>
      <trkpt lat="59.168692" lon="18.149209">
        <ele>66</ele>
        <time>2019-08-23T08:51:52Z</time>
      </trkpt>
      <trkpt lat="59.168714" lon="18.149195">
        <ele>66</ele>
        <time>2019-08-23T08:51:53Z</time>
      </trkpt>
      <trkpt lat="59.168737" lon="18.149178">
        <ele>66</ele>
        <time>2019-08-23T08:51:55Z</time>
      </trkpt>
      <trkpt lat="59.168759" lon="18.149159">
        <ele>66</ele>
        <time>2019-08-23T08:51:55Z</time>
      </trkpt>
      <trkpt lat="59.16878" lon="18.14914">
        <ele>66</ele>
        <time>2019-08-23T08:51:56Z</time>
      </trkpt>
      <trkpt lat="59.168802" lon="18.14912">
        <ele>66</ele>
        <time>2019-08-23T08:51:57Z</time>
      </trkpt>
      <trkpt lat="59.168824" lon="18.149098">
        <ele>66</ele>
        <time>2019-08-23T08:51:59Z</time>
      </trkpt>
      <trkpt lat="59.168847" lon="18.149074">
        <ele>66</ele>
        <time>2019-08-23T08:51:59Z</time>
      </trkpt>
      <trkpt lat="59.168868" lon="18.149051">
        <ele>66</ele>
        <time>2019-08-23T08:52:01Z</time>
      </trkpt>
      <trkpt lat="59.168889" lon="18.149029">
        <ele>66</ele>
        <time>2019-08-23T08:52:01Z</time>
      </trkpt>
      <trkpt lat="59.16891" lon="18.149005">
        <ele>65</ele>
        <time>2019-08-23T08:52:03Z</time>
      </trkpt>
      <trkpt lat="59.168932" lon="18.148989">
        <ele>65</ele>
        <time>2019-08-23T08:52:03Z</time>
      </trkpt>
      <trkpt lat="59.168953" lon="18.148972">
        <ele>65</ele>
        <time>2019-08-23T08:52:04Z</time>
      </trkpt>
      <trkpt lat="59.168975" lon="18.148956">
        <ele>65</ele>
        <time>2019-08-23T08:52:05Z</time>
      </trkpt>
      <trkpt lat="59.168997" lon="18.148939">
        <ele>65</ele>
        <time>2019-08-23T08:52:06Z</time>
      </trkpt>
      <trkpt lat="59.169019" lon="18.148923">
        <ele>65</ele>
        <time>2019-08-23T08:52:08Z</time>
      </trkpt>
      <trkpt lat="59.169042" lon="18.148912">
        <ele>65</ele>
        <time>2019-08-23T08:52:08Z</time>
      </trkpt>
      <trkpt lat="59.169066" lon="18.148901">
        <ele>65</ele>
        <time>2019-08-23T08:52:09Z</time>
      </trkpt>
      <trkpt lat="59.169092" lon="18.148892">
        <ele>65</ele>
        <time>2019-08-23T08:52:11Z</time>
      </trkpt>
      <trkpt lat="59.169114" lon="18.148877">
        <ele>65</ele>
        <time>2019-08-23T08:52:11Z</time>
      </trkpt>
      <trkpt lat="59.169139" lon="18.14887">
        <ele>65</ele>
        <time>2019-08-23T08:52:12Z</time>
      </trkpt>
      <trkpt lat="59.169162" lon="18.148859">
        <ele>64</ele>
        <time>2019-08-23T08:52:14Z</time>
      </trkpt>
      <trkpt lat="59.169186" lon="18.148851">
        <ele>64</ele>
        <time>2019-08-23T08:52:14Z</time>
      </trkpt>
      <trkpt lat="59.16921" lon="18.148834">
        <ele>64</ele>
        <time>2019-08-23T08:52:15Z</time>
      </trkpt>
      <trkpt lat="59.169233" lon="18.148816">
        <ele>64</ele>
        <time>2019-08-23T08:52:16Z</time>
      </trkpt>
      <trkpt lat="59.169257" lon="18.148807">
        <ele>65</ele>
        <time>2019-08-23T08:52:18Z</time>
      </trkpt>
      <trkpt lat="59.169279" lon="18.14879">
        <ele>65</ele>
        <time>2019-08-23T08:52:18Z</time>
      </trkpt>
      <trkpt lat="59.169301" lon="18.148776">
        <ele>65</ele>
        <time>2019-08-23T08:52:20Z</time>
      </trkpt>
      <trkpt lat="59.169322" lon="18.148764">
        <ele>65</ele>
        <time>2019-08-23T08:52:20Z</time>
      </trkpt>
      <trkpt lat="59.169339" lon="18.148744">
        <ele>66</ele>
        <time>2019-08-23T08:52:21Z</time>
      </trkpt>
      <trkpt lat="59.169356" lon="18.148726">
        <ele>66</ele>
        <time>2019-08-23T08:52:22Z</time>
      </trkpt>
      <trkpt lat="59.16937" lon="18.148699">
        <ele>65</ele>
        <time>2019-08-23T08:52:24Z</time>
      </trkpt>
      <trkpt lat="59.169388" lon="18.148662">
        <ele>65</ele>
        <time>2019-08-23T08:52:24Z</time>
      </trkpt>
      <trkpt lat="59.169406" lon="18.148622">
        <ele>65</ele>
        <time>2019-08-23T08:52:25Z</time>
      </trkpt>
      <trkpt lat="59.169423" lon="18.148586">
        <ele>65</ele>
        <time>2019-08-23T08:52:26Z</time>
      </trkpt>
      <trkpt lat="59.169443" lon="18.148553">
        <ele>65</ele>
        <time>2019-08-23T08:52:27Z</time>
      </trkpt>
      <trkpt lat="59.169468" lon="18.148532">
        <ele>65</ele>
        <time>2019-08-23T08:52:28Z</time>
      </trkpt>
      <trkpt lat="59.169492" lon="18.148517">
        <ele>65</ele>
        <time>2019-08-23T08:52:29Z</time>
      </trkpt>
      <trkpt lat="59.169516" lon="18.148503">
        <ele>65</ele>
        <time>2019-08-23T08:52:30Z</time>
      </trkpt>
      <trkpt lat="59.16954" lon="18.148483">
        <ele>65</ele>
        <time>2019-08-23T08:52:32Z</time>
      </trkpt>
      <trkpt lat="59.169568" lon="18.148473">
        <ele>65</ele>
        <time>2019-08-23T08:52:32Z</time>
      </trkpt>
      <trkpt lat="59.169592" lon="18.148463">
        <ele>65</ele>
        <time>2019-08-23T08:52:33Z</time>
      </trkpt>
      <trkpt lat="59.169616" lon="18.148451">
        <ele>65</ele>
        <time>2019-08-23T08:52:35Z</time>
      </trkpt>
      <trkpt lat="59.169641" lon="18.148441">
        <ele>65</ele>
        <time>2019-08-23T08:52:35Z</time>
      </trkpt>
      <trkpt lat="59.169663" lon="18.148428">
        <ele>65</ele>
        <time>2019-08-23T08:52:37Z</time>
      </trkpt>
      <trkpt lat="59.169685" lon="18.148414">
        <ele>65</ele>
        <time>2019-08-23T08:52:37Z</time>
      </trkpt>
      <trkpt lat="59.169709" lon="18.148412">
        <ele>65</ele>
        <time>2019-08-23T08:52:39Z</time>
      </trkpt>
      <trkpt lat="59.169734" lon="18.148402">
        <ele>65</ele>
        <time>2019-08-23T08:52:39Z</time>
      </trkpt>
      <trkpt lat="59.169757" lon="18.14839">
        <ele>64</ele>
        <time>2019-08-23T08:52:40Z</time>
      </trkpt>
      <trkpt lat="59.16978" lon="18.148381">
        <ele>64</ele>
        <time>2019-08-23T08:52:41Z</time>
      </trkpt>
      <trkpt lat="59.169806" lon="18.148378">
        <ele>64</ele>
        <time>2019-08-23T08:52:42Z</time>
      </trkpt>
      <trkpt lat="59.16983" lon="18.148371">
        <ele>64</ele>
        <time>2019-08-23T08:52:44Z</time>
      </trkpt>
      <trkpt lat="59.169853" lon="18.148362">
        <ele>64</ele>
        <time>2019-08-23T08:52:44Z</time>
      </trkpt>
      <trkpt lat="59.169877" lon="18.148363">
        <ele>64</ele>
        <time>2019-08-23T08:52:45Z</time>
      </trkpt>
      <trkpt lat="59.169902" lon="18.148357">
        <ele>64</ele>
        <time>2019-08-23T08:52:46Z</time>
      </trkpt>
      <trkpt lat="59.169926" lon="18.148345">
        <ele>65</ele>
        <time>2019-08-23T08:52:47Z</time>
      </trkpt>
      <trkpt lat="59.169949" lon="18.148331">
        <ele>65</ele>
        <time>2019-08-23T08:52:49Z</time>
      </trkpt>
      <trkpt lat="59.169973" lon="18.148318">
        <ele>65</ele>
        <time>2019-08-23T08:52:49Z</time>
      </trkpt>
      <trkpt lat="59.169998" lon="18.148301">
        <ele>65</ele>
        <time>2019-08-23T08:52:50Z</time>
      </trkpt>
      <trkpt lat="59.170023" lon="18.14829">
        <ele>65</ele>
        <time>2019-08-23T08:52:52Z</time>
      </trkpt>
      <trkpt lat="59.170048" lon="18.148281">
        <ele>65</ele>
        <time>2019-08-23T08:52:52Z</time>
      </trkpt>
      <trkpt lat="59.17007" lon="18.148274">
        <ele>65</ele>
        <time>2019-08-23T08:52:53Z</time>
      </trkpt>
      <trkpt lat="59.170096" lon="18.148266">
        <ele>65</ele>
        <time>2019-08-23T08:52:55Z</time>
      </trkpt>
      <trkpt lat="59.170119" lon="18.148256">
        <ele>65</ele>
        <time>2019-08-23T08:52:56Z</time>
      </trkpt>
      <trkpt lat="59.170143" lon="18.14825">
        <ele>65</ele>
        <time>2019-08-23T08:52:56Z</time>
      </trkpt>
      <trkpt lat="59.170166" lon="18.148249">
        <ele>65</ele>
        <time>2019-08-23T08:52:58Z</time>
      </trkpt>
      <trkpt lat="59.170189" lon="18.148242">
        <ele>64</ele>
        <time>2019-08-23T08:52:58Z</time>
      </trkpt>
      <trkpt lat="59.170213" lon="18.14823">
        <ele>64</ele>
        <time>2019-08-23T08:52:59Z</time>
      </trkpt>
      <trkpt lat="59.170235" lon="18.14822">
        <ele>64</ele>
        <time>2019-08-23T08:53:00Z</time>
      </trkpt>
      <trkpt lat="59.170258" lon="18.148207">
        <ele>64</ele>
        <time>2019-08-23T08:53:01Z</time>
      </trkpt>
      <trkpt lat="59.170281" lon="18.148194">
        <ele>64</ele>
        <time>2019-08-23T08:53:02Z</time>
      </trkpt>
      <trkpt lat="59.170302" lon="18.148181">
        <ele>64</ele>
        <time>2019-08-23T08:53:03Z</time>
      </trkpt>
      <trkpt lat="59.170324" lon="18.148171">
        <ele>64</ele>
        <time>2019-08-23T08:53:04Z</time>
      </trkpt>
      <trkpt lat="59.170344" lon="18.148163">
        <ele>64</ele>
        <time>2019-08-23T08:53:06Z</time>
      </trkpt>
      <trkpt lat="59.170365" lon="18.14815">
        <ele>64</ele>
        <time>2019-08-23T08:53:06Z</time>
      </trkpt>
      <trkpt lat="59.170388" lon="18.148141">
        <ele>65</ele>
        <time>2019-08-23T08:53:07Z</time>
      </trkpt>
      <trkpt lat="59.17041" lon="18.148126">
        <ele>65</ele>
        <time>2019-08-23T08:53:08Z</time>
      </trkpt>
      <trkpt lat="59.170431" lon="18.148109">
        <ele>65</ele>
        <time>2019-08-23T08:53:09Z</time>
      </trkpt>
      <trkpt lat="59.170452" lon="18.14809">
        <ele>65</ele>
        <time>2019-08-23T08:53:10Z</time>
      </trkpt>
      <trkpt lat="59.170475" lon="18.148072">
        <ele>65</ele>
        <time>2019-08-23T08:53:12Z</time>
      </trkpt>
      <trkpt lat="59.170498" lon="18.148057">
        <ele>65</ele>
        <time>2019-08-23T08:53:12Z</time>
      </trkpt>
      <trkpt lat="59.17052" lon="18.148045">
        <ele>65</ele>
        <time>2019-08-23T08:53:13Z</time>
      </trkpt>
      <trkpt lat="59.170545" lon="18.148035">
        <ele>65</ele>
        <time>2019-08-23T08:53:15Z</time>
      </trkpt>
      <trkpt lat="59.170569" lon="18.148024">
        <ele>65</ele>
        <time>2019-08-23T08:53:15Z</time>
      </trkpt>
      <trkpt lat="59.170615" lon="18.148002">
        <ele>65</ele>
        <time>2019-08-23T08:53:17Z</time>
      </trkpt>
      <trkpt lat="59.170636" lon="18.147988">
        <ele>65</ele>
        <time>2019-08-23T08:53:18Z</time>
      </trkpt>
      <trkpt lat="59.170661" lon="18.147971">
        <ele>65</ele>
        <time>2019-08-23T08:53:20Z</time>
      </trkpt>
      <trkpt lat="59.170684" lon="18.147955">
        <ele>64</ele>
        <time>2019-08-23T08:53:20Z</time>
      </trkpt>
      <trkpt lat="59.170707" lon="18.147939">
        <ele>64</ele>
        <time>2019-08-23T08:53:21Z</time>
      </trkpt>
      <trkpt lat="59.170729" lon="18.147926">
        <ele>64</ele>
        <time>2019-08-23T08:53:23Z</time>
      </trkpt>
      <trkpt lat="59.170752" lon="18.14792">
        <ele>64</ele>
        <time>2019-08-23T08:53:23Z</time>
      </trkpt>
      <trkpt lat="59.170774" lon="18.147914">
        <ele>64</ele>
        <time>2019-08-23T08:53:24Z</time>
      </trkpt>
      <trkpt lat="59.170796" lon="18.147901">
        <ele>64</ele>
        <time>2019-08-23T08:53:25Z</time>
      </trkpt>
      <trkpt lat="59.17082" lon="18.147889">
        <ele>64</ele>
        <time>2019-08-23T08:53:27Z</time>
      </trkpt>
      <trkpt lat="59.170845" lon="18.147878">
        <ele>63</ele>
        <time>2019-08-23T08:53:27Z</time>
      </trkpt>
      <trkpt lat="59.170868" lon="18.147864">
        <ele>63</ele>
        <time>2019-08-23T08:53:29Z</time>
      </trkpt>
      <trkpt lat="59.170893" lon="18.147849">
        <ele>63</ele>
        <time>2019-08-23T08:53:29Z</time>
      </trkpt>
      <trkpt lat="59.170918" lon="18.147837">
        <ele>63</ele>
        <time>2019-08-23T08:53:30Z</time>
      </trkpt>
      <trkpt lat="59.170941" lon="18.147821">
        <ele>63</ele>
        <time>2019-08-23T08:53:32Z</time>
      </trkpt>
      <trkpt lat="59.170964" lon="18.147805">
        <ele>64</ele>
        <time>2019-08-23T08:53:32Z</time>
      </trkpt>
      <trkpt lat="59.170985" lon="18.14779">
        <ele>64</ele>
        <time>2019-08-23T08:53:34Z</time>
      </trkpt>
      <trkpt lat="59.171006" lon="18.147777">
        <ele>64</ele>
        <time>2019-08-23T08:53:34Z</time>
      </trkpt>
      <trkpt lat="59.171028" lon="18.147767">
        <ele>64</ele>
        <time>2019-08-23T08:53:36Z</time>
      </trkpt>
      <trkpt lat="59.171052" lon="18.147753">
        <ele>64</ele>
        <time>2019-08-23T08:53:36Z</time>
      </trkpt>
      <trkpt lat="59.171073" lon="18.147741">
        <ele>64</ele>
        <time>2019-08-23T08:53:37Z</time>
      </trkpt>
      <trkpt lat="59.171094" lon="18.147727">
        <ele>64</ele>
        <time>2019-08-23T08:53:38Z</time>
      </trkpt>
      <trkpt lat="59.171121" lon="18.147715">
        <ele>64</ele>
        <time>2019-08-23T08:53:39Z</time>
      </trkpt>
      <trkpt lat="59.171147" lon="18.147705">
        <ele>65</ele>
        <time>2019-08-23T08:53:40Z</time>
      </trkpt>
      <trkpt lat="59.17117" lon="18.147694">
        <ele>65</ele>
        <time>2019-08-23T08:53:41Z</time>
      </trkpt>
      <trkpt lat="59.171192" lon="18.147685">
        <ele>65</ele>
        <time>2019-08-23T08:53:42Z</time>
      </trkpt>
      <trkpt lat="59.171217" lon="18.14768">
        <ele>65</ele>
        <time>2019-08-23T08:53:44Z</time>
      </trkpt>
      <trkpt lat="59.171243" lon="18.147681">
        <ele>65</ele>
        <time>2019-08-23T08:53:44Z</time>
      </trkpt>
      <trkpt lat="59.171272" lon="18.147686">
        <ele>65</ele>
        <time>2019-08-23T08:53:45Z</time>
      </trkpt>
      <trkpt lat="59.171299" lon="18.147692">
        <ele>65</ele>
        <time>2019-08-23T08:53:47Z</time>
      </trkpt>
      <trkpt lat="59.171329" lon="18.147704">
        <ele>65</ele>
        <time>2019-08-23T08:53:47Z</time>
      </trkpt>
      <trkpt lat="59.171359" lon="18.147718">
        <ele>65</ele>
        <time>2019-08-23T08:53:48Z</time>
      </trkpt>
      <trkpt lat="59.17139" lon="18.147735">
        <ele>65</ele>
        <time>2019-08-23T08:53:50Z</time>
      </trkpt>
      <trkpt lat="59.171418" lon="18.147741">
        <ele>64</ele>
        <time>2019-08-23T08:53:50Z</time>
      </trkpt>
      <trkpt lat="59.171446" lon="18.147744">
        <ele>64</ele>
        <time>2019-08-23T08:53:51Z</time>
      </trkpt>
      <trkpt lat="59.171474" lon="18.147734">
        <ele>64</ele>
        <time>2019-08-23T08:53:53Z</time>
      </trkpt>
      <trkpt lat="59.171502" lon="18.147718">
        <ele>64</ele>
        <time>2019-08-23T08:53:53Z</time>
      </trkpt>
      <trkpt lat="59.171528" lon="18.147703">
        <ele>64</ele>
        <time>2019-08-23T08:53:54Z</time>
      </trkpt>
      <trkpt lat="59.171552" lon="18.147685">
        <ele>64</ele>
        <time>2019-08-23T08:53:55Z</time>
      </trkpt>
      <trkpt lat="59.171577" lon="18.147669">
        <ele>64</ele>
        <time>2019-08-23T08:53:56Z</time>
      </trkpt>
      <trkpt lat="59.171602" lon="18.147653">
        <ele>64</ele>
        <time>2019-08-23T08:53:58Z</time>
      </trkpt>
      <trkpt lat="59.171628" lon="18.14764">
        <ele>64</ele>
        <time>2019-08-23T08:53:58Z</time>
      </trkpt>
      <trkpt lat="59.171653" lon="18.147626">
        <ele>64</ele>
        <time>2019-08-23T08:53:59Z</time>
      </trkpt>
      <trkpt lat="59.171678" lon="18.147609">
        <ele>63</ele>
        <time>2019-08-23T08:54:01Z</time>
      </trkpt>
      <trkpt lat="59.171703" lon="18.147588">
        <ele>63</ele>
        <time>2019-08-23T08:54:01Z</time>
      </trkpt>
      <trkpt lat="59.171726" lon="18.147571">
        <ele>63</ele>
        <time>2019-08-23T08:54:02Z</time>
      </trkpt>
      <trkpt lat="59.171749" lon="18.147553">
        <ele>63</ele>
        <time>2019-08-23T08:54:03Z</time>
      </trkpt>
      <trkpt lat="59.171773" lon="18.147536">
        <ele>63</ele>
        <time>2019-08-23T08:54:05Z</time>
      </trkpt>
      <trkpt lat="59.171799" lon="18.147522">
        <ele>63</ele>
        <time>2019-08-23T08:54:05Z</time>
      </trkpt>
      <trkpt lat="59.171822" lon="18.147508">
        <ele>63</ele>
        <time>2019-08-23T08:54:06Z</time>
      </trkpt>
      <trkpt lat="59.171846" lon="18.147488">
        <ele>63</ele>
        <time>2019-08-23T08:54:07Z</time>
      </trkpt>
      <trkpt lat="59.171867" lon="18.147469">
        <ele>62</ele>
        <time>2019-08-23T08:54:08Z</time>
      </trkpt>
      <trkpt lat="59.17189" lon="18.147455">
        <ele>62</ele>
        <time>2019-08-23T08:54:09Z</time>
      </trkpt>
      <trkpt lat="59.17191" lon="18.147439">
        <ele>62</ele>
        <time>2019-08-23T08:54:10Z</time>
      </trkpt>
      <trkpt lat="59.171931" lon="18.147427">
        <ele>62</ele>
        <time>2019-08-23T08:54:12Z</time>
      </trkpt>
      <trkpt lat="59.171952" lon="18.147413">
        <ele>62</ele>
        <time>2019-08-23T08:54:12Z</time>
      </trkpt>
      <trkpt lat="59.171972" lon="18.147398">
        <ele>62</ele>
        <time>2019-08-23T08:54:14Z</time>
      </trkpt>
      <trkpt lat="59.171993" lon="18.147376">
        <ele>62</ele>
        <time>2019-08-23T08:54:14Z</time>
      </trkpt>
      <trkpt lat="59.172017" lon="18.147355">
        <ele>62</ele>
        <time>2019-08-23T08:54:15Z</time>
      </trkpt>
      <trkpt lat="59.172041" lon="18.14733">
        <ele>62</ele>
        <time>2019-08-23T08:54:16Z</time>
      </trkpt>
      <trkpt lat="59.172066" lon="18.147303">
        <ele>62</ele>
        <time>2019-08-23T08:54:17Z</time>
      </trkpt>
      <trkpt lat="59.172093" lon="18.147285">
        <ele>62</ele>
        <time>2019-08-23T08:54:18Z</time>
      </trkpt>
      <trkpt lat="59.172117" lon="18.147271">
        <ele>62</ele>
        <time>2019-08-23T08:54:19Z</time>
      </trkpt>
      <trkpt lat="59.172141" lon="18.147257">
        <ele>62</ele>
        <time>2019-08-23T08:54:20Z</time>
      </trkpt>
      <trkpt lat="59.172163" lon="18.147238">
        <ele>62</ele>
        <time>2019-08-23T08:54:22Z</time>
      </trkpt>
      <trkpt lat="59.172186" lon="18.147218">
        <ele>62</ele>
        <time>2019-08-23T08:54:22Z</time>
      </trkpt>
      <trkpt lat="59.172206" lon="18.147203">
        <ele>62</ele>
        <time>2019-08-23T08:54:23Z</time>
      </trkpt>
      <trkpt lat="59.172227" lon="18.147182">
        <ele>62</ele>
        <time>2019-08-23T08:54:25Z</time>
      </trkpt>
      <trkpt lat="59.172247" lon="18.147164">
        <ele>61</ele>
        <time>2019-08-23T08:54:26Z</time>
      </trkpt>
      <trkpt lat="59.172268" lon="18.147149">
        <ele>61</ele>
        <time>2019-08-23T08:54:26Z</time>
      </trkpt>
      <trkpt lat="59.172291" lon="18.147134">
        <ele>61</ele>
        <time>2019-08-23T08:54:27Z</time>
      </trkpt>
      <trkpt lat="59.172314" lon="18.147118">
        <ele>61</ele>
        <time>2019-08-23T08:54:28Z</time>
      </trkpt>
      <trkpt lat="59.172335" lon="18.147095">
        <ele>61</ele>
        <time>2019-08-23T08:54:29Z</time>
      </trkpt>
      <trkpt lat="59.172358" lon="18.147071">
        <ele>61</ele>
        <time>2019-08-23T08:54:31Z</time>
      </trkpt>
      <trkpt lat="59.172379" lon="18.147053">
        <ele>60</ele>
        <time>2019-08-23T08:54:31Z</time>
      </trkpt>
      <trkpt lat="59.172399" lon="18.147036">
        <ele>60</ele>
        <time>2019-08-23T08:54:33Z</time>
      </trkpt>
      <trkpt lat="59.17242" lon="18.147021">
        <ele>60</ele>
        <time>2019-08-23T08:54:33Z</time>
      </trkpt>
      <trkpt lat="59.172444" lon="18.147003">
        <ele>60</ele>
        <time>2019-08-23T08:54:34Z</time>
      </trkpt>
      <trkpt lat="59.172468" lon="18.146979">
        <ele>60</ele>
        <time>2019-08-23T08:54:35Z</time>
      </trkpt>
      <trkpt lat="59.17249" lon="18.146961">
        <ele>60</ele>
        <time>2019-08-23T08:54:36Z</time>
      </trkpt>
      <trkpt lat="59.172509" lon="18.146942">
        <ele>60</ele>
        <time>2019-08-23T08:54:37Z</time>
      </trkpt>
      <trkpt lat="59.172529" lon="18.14692">
        <ele>60</ele>
        <time>2019-08-23T08:54:38Z</time>
      </trkpt>
      <trkpt lat="59.172553" lon="18.146903">
        <ele>60</ele>
        <time>2019-08-23T08:54:39Z</time>
      </trkpt>
      <trkpt lat="59.172578" lon="18.146887">
        <ele>60</ele>
        <time>2019-08-23T08:54:41Z</time>
      </trkpt>
      <trkpt lat="59.172604" lon="18.146872">
        <ele>59</ele>
        <time>2019-08-23T08:54:41Z</time>
      </trkpt>
      <trkpt lat="59.172627" lon="18.146853">
        <ele>59</ele>
        <time>2019-08-23T08:54:42Z</time>
      </trkpt>
      <trkpt lat="59.172651" lon="18.146825">
        <ele>59</ele>
        <time>2019-08-23T08:54:44Z</time>
      </trkpt>
      <trkpt lat="59.172676" lon="18.146794">
        <ele>59</ele>
        <time>2019-08-23T08:54:45Z</time>
      </trkpt>
      <trkpt lat="59.172701" lon="18.146764">
        <ele>59</ele>
        <time>2019-08-23T08:54:45Z</time>
      </trkpt>
      <trkpt lat="59.172727" lon="18.146738">
        <ele>59</ele>
        <time>2019-08-23T08:54:46Z</time>
      </trkpt>
      <trkpt lat="59.17275" lon="18.146716">
        <ele>59</ele>
        <time>2019-08-23T08:54:47Z</time>
      </trkpt>
      <trkpt lat="59.172774" lon="18.146693">
        <ele>59</ele>
        <time>2019-08-23T08:54:48Z</time>
      </trkpt>
      <trkpt lat="59.172796" lon="18.146672">
        <ele>59</ele>
        <time>2019-08-23T08:54:50Z</time>
      </trkpt>
      <trkpt lat="59.172818" lon="18.146654">
        <ele>59</ele>
        <time>2019-08-23T08:54:50Z</time>
      </trkpt>
      <trkpt lat="59.17284" lon="18.146634">
        <ele>59</ele>
        <time>2019-08-23T08:54:51Z</time>
      </trkpt>
      <trkpt lat="59.17286" lon="18.146613">
        <ele>59</ele>
        <time>2019-08-23T08:54:52Z</time>
      </trkpt>
      <trkpt lat="59.172877" lon="18.146588">
        <ele>59</ele>
        <time>2019-08-23T08:54:53Z</time>
      </trkpt>
      <trkpt lat="59.172893" lon="18.146551">
        <ele>59</ele>
        <time>2019-08-23T08:54:54Z</time>
      </trkpt>
      <trkpt lat="59.172906" lon="18.146502">
        <ele>59</ele>
        <time>2019-08-23T08:54:55Z</time>
      </trkpt>
      <trkpt lat="59.172914" lon="18.14645">
        <ele>60</ele>
        <time>2019-08-23T08:54:56Z</time>
      </trkpt>
      <trkpt lat="59.172919" lon="18.146397">
        <ele>60</ele>
        <time>2019-08-23T08:54:58Z</time>
      </trkpt>
      <trkpt lat="59.172923" lon="18.146347">
        <ele>60</ele>
        <time>2019-08-23T08:54:58Z</time>
      </trkpt>
      <trkpt lat="59.172927" lon="18.1463">
        <ele>60</ele>
        <time>2019-08-23T08:54:59Z</time>
      </trkpt>
      <trkpt lat="59.172929" lon="18.146247">
        <ele>60</ele>
        <time>2019-08-23T08:55:01Z</time>
      </trkpt>
      <trkpt lat="59.17293" lon="18.146197">
        <ele>60</ele>
        <time>2019-08-23T08:55:01Z</time>
      </trkpt>
      <trkpt lat="59.172932" lon="18.146148">
        <ele>60</ele>
        <time>2019-08-23T08:55:02Z</time>
      </trkpt>
      <trkpt lat="59.172933" lon="18.1461">
        <ele>60</ele>
        <time>2019-08-23T08:55:03Z</time>
      </trkpt>
      <trkpt lat="59.172934" lon="18.14605">
        <ele>61</ele>
        <time>2019-08-23T08:55:04Z</time>
      </trkpt>
      <trkpt lat="59.172936" lon="18.146">
        <ele>61</ele>
        <time>2019-08-23T08:55:06Z</time>
      </trkpt>
      <trkpt lat="59.172939" lon="18.145947">
        <ele>61</ele>
        <time>2019-08-23T08:55:06Z</time>
      </trkpt>
      <trkpt lat="59.172944" lon="18.145897">
        <ele>62</ele>
        <time>2019-08-23T08:55:07Z</time>
      </trkpt>
      <trkpt lat="59.172947" lon="18.145852">
        <ele>62</ele>
        <time>2019-08-23T08:55:09Z</time>
      </trkpt>
      <trkpt lat="59.172948" lon="18.145805">
        <ele>62</ele>
        <time>2019-08-23T08:55:09Z</time>
      </trkpt>
      <trkpt lat="59.172946" lon="18.145753">
        <ele>62</ele>
        <time>2019-08-23T08:55:11Z</time>
      </trkpt>
      <trkpt lat="59.172946" lon="18.145701">
        <ele>62</ele>
        <time>2019-08-23T08:55:11Z</time>
      </trkpt>
      <trkpt lat="59.172944" lon="18.145642">
        <ele>62</ele>
        <time>2019-08-23T08:55:12Z</time>
      </trkpt>
      <trkpt lat="59.172948" lon="18.145591">
        <ele>62</ele>
        <time>2019-08-23T08:55:14Z</time>
      </trkpt>
      <trkpt lat="59.172959" lon="18.145547">
        <ele>62</ele>
        <time>2019-08-23T08:55:14Z</time>
      </trkpt>
      <trkpt lat="59.172967" lon="18.145502">
        <ele>62</ele>
        <time>2019-08-23T08:55:15Z</time>
      </trkpt>
      <trkpt lat="59.172979" lon="18.14546">
        <ele>62</ele>
        <time>2019-08-23T08:55:16Z</time>
      </trkpt>
      <trkpt lat="59.172989" lon="18.14542">
        <ele>63</ele>
        <time>2019-08-23T08:55:17Z</time>
      </trkpt>
      <trkpt lat="59.172996" lon="18.145378">
        <ele>63</ele>
        <time>2019-08-23T08:55:18Z</time>
      </trkpt>
      <trkpt lat="59.173004" lon="18.145332">
        <ele>63</ele>
        <time>2019-08-23T08:55:19Z</time>
      </trkpt>
      <trkpt lat="59.173011" lon="18.145288">
        <ele>63</ele>
        <time>2019-08-23T08:55:20Z</time>
      </trkpt>
      <trkpt lat="59.173019" lon="18.145241">
        <ele>63</ele>
        <time>2019-08-23T08:55:21Z</time>
      </trkpt>
      <trkpt lat="59.173025" lon="18.145193">
        <ele>63</ele>
        <time>2019-08-23T08:55:22Z</time>
      </trkpt>
      <trkpt lat="59.17303" lon="18.14514">
        <ele>63</ele>
        <time>2019-08-23T08:55:23Z</time>
      </trkpt>
      <trkpt lat="59.173035" lon="18.145089">
        <ele>63</ele>
        <time>2019-08-23T08:55:25Z</time>
      </trkpt>
      <trkpt lat="59.173043" lon="18.14504">
        <ele>63</ele>
        <time>2019-08-23T08:55:25Z</time>
      </trkpt>
      <trkpt lat="59.173051" lon="18.144993">
        <ele>63</ele>
        <time>2019-08-23T08:55:26Z</time>
      </trkpt>
      <trkpt lat="59.173058" lon="18.144946">
        <ele>63</ele>
        <time>2019-08-23T08:55:28Z</time>
      </trkpt>
      <trkpt lat="59.173067" lon="18.144903">
        <ele>63</ele>
        <time>2019-08-23T08:55:28Z</time>
      </trkpt>
      <trkpt lat="59.173075" lon="18.144857">
        <ele>63</ele>
        <time>2019-08-23T08:55:30Z</time>
      </trkpt>
      <trkpt lat="59.173077" lon="18.144812">
        <ele>63</ele>
        <time>2019-08-23T08:55:30Z</time>
      </trkpt>
      <trkpt lat="59.173081" lon="18.14477">
        <ele>63</ele>
        <time>2019-08-23T08:55:31Z</time>
      </trkpt>
      <trkpt lat="59.173086" lon="18.144728">
        <ele>64</ele>
        <time>2019-08-23T08:55:33Z</time>
      </trkpt>
      <trkpt lat="59.173095" lon="18.144681">
        <ele>64</ele>
        <time>2019-08-23T08:55:33Z</time>
      </trkpt>
      <trkpt lat="59.173102" lon="18.144627">
        <ele>64</ele>
        <time>2019-08-23T08:55:34Z</time>
      </trkpt>
      <trkpt lat="59.173108" lon="18.144576">
        <ele>64</ele>
        <time>2019-08-23T08:55:35Z</time>
      </trkpt>
      <trkpt lat="59.173114" lon="18.144524">
        <ele>65</ele>
        <time>2019-08-23T08:55:36Z</time>
      </trkpt>
      <trkpt lat="59.173119" lon="18.144477">
        <ele>65</ele>
        <time>2019-08-23T08:55:37Z</time>
      </trkpt>
      <trkpt lat="59.173125" lon="18.144429">
        <ele>65</ele>
        <time>2019-08-23T08:55:38Z</time>
      </trkpt>
      <trkpt lat="59.173132" lon="18.144381">
        <ele>65</ele>
        <time>2019-08-23T08:55:39Z</time>
      </trkpt>
      <trkpt lat="59.173136" lon="18.144331">
        <ele>65</ele>
        <time>2019-08-23T08:55:41Z</time>
      </trkpt>
      <trkpt lat="59.173137" lon="18.144275">
        <ele>65</ele>
        <time>2019-08-23T08:55:41Z</time>
      </trkpt>
      <trkpt lat="59.173136" lon="18.144215">
        <ele>65</ele>
        <time>2019-08-23T08:55:42Z</time>
      </trkpt>
      <trkpt lat="59.17314" lon="18.14416">
        <ele>65</ele>
        <time>2019-08-23T08:55:44Z</time>
      </trkpt>
      <trkpt lat="59.173149" lon="18.144114">
        <ele>65</ele>
        <time>2019-08-23T08:55:45Z</time>
      </trkpt>
      <trkpt lat="59.173156" lon="18.14407">
        <ele>65</ele>
        <time>2019-08-23T08:55:45Z</time>
      </trkpt>
      <trkpt lat="59.173165" lon="18.144015">
        <ele>65</ele>
        <time>2019-08-23T08:55:47Z</time>
      </trkpt>
      <trkpt lat="59.173173" lon="18.143956">
        <ele>66</ele>
        <time>2019-08-23T08:55:47Z</time>
      </trkpt>
      <trkpt lat="59.173183" lon="18.143907">
        <ele>66</ele>
        <time>2019-08-23T08:55:49Z</time>
      </trkpt>
      <trkpt lat="59.173197" lon="18.143859">
        <ele>66</ele>
        <time>2019-08-23T08:55:49Z</time>
      </trkpt>
      <trkpt lat="59.173207" lon="18.143815">
        <ele>67</ele>
        <time>2019-08-23T08:55:50Z</time>
      </trkpt>
      <trkpt lat="59.173223" lon="18.143769">
        <ele>67</ele>
        <time>2019-08-23T08:55:51Z</time>
      </trkpt>
      <trkpt lat="59.17324" lon="18.143723">
        <ele>67</ele>
        <time>2019-08-23T08:55:52Z</time>
      </trkpt>
      <trkpt lat="59.173257" lon="18.143674">
        <ele>67</ele>
        <time>2019-08-23T08:55:53Z</time>
      </trkpt>
      <trkpt lat="59.173269" lon="18.14363">
        <ele>67</ele>
        <time>2019-08-23T08:55:54Z</time>
      </trkpt>
      <trkpt lat="59.173278" lon="18.143584">
        <ele>67</ele>
        <time>2019-08-23T08:55:55Z</time>
      </trkpt>
      <trkpt lat="59.173283" lon="18.143536">
        <ele>67</ele>
        <time>2019-08-23T08:55:57Z</time>
      </trkpt>
      <trkpt lat="59.173283" lon="18.143483">
        <ele>66</ele>
        <time>2019-08-23T08:55:57Z</time>
      </trkpt>
      <trkpt lat="59.173286" lon="18.143435">
        <ele>66</ele>
        <time>2019-08-23T08:55:58Z</time>
      </trkpt>
      <trkpt lat="59.173286" lon="18.143389">
        <ele>66</ele>
        <time>2019-08-23T08:55:59Z</time>
      </trkpt>
      <trkpt lat="59.173292" lon="18.143347">
        <ele>0</ele>
        <time>2019-08-23T08:56:00Z</time>
      </trkpt>
    </trkseg>
  </trk>
</gpx>